<?xml version="1.0" encoding="utf-8"?>
<gpx xmlns:xsi="http://www.w3.org/2001/XMLSchema-instance" xmlns:xsd="http://www.w3.org/2001/XMLSchema" version="1.1" creator="Shapelink.com" xmlns="http://www.topografix.com/GPX/1/1" xmlns:gpxtpx="http://www.garmin.com/xmlschemas/TrackPointExtension/v1">
  <metadata>
    <name>Löpning 6.86 km, 2018-03-19</name>
    <desc></desc>
    <author><name>Bengt-Åke Forslund</name></author> 
    <time>2018-03-19T18:05:59Z</time>
  </metadata>
  <trk>
    <name>Löpning 6.86 km, 2018-03-19</name>
    <trkseg>
      <trkpt lat="62.637299831582" lon="17.965961267012">
        <ele>54.2</ele>
        <time>2018-03-19T18:05:59Z</time>
      </trkpt>
      <trkpt lat="62.637219030066" lon="17.965706205795">
        <ele>54</ele>
        <time>2018-03-19T18:06:18Z</time>
      </trkpt>
      <trkpt lat="62.637210396709" lon="17.965677036783">
        <ele>54</ele>
        <time>2018-03-19T18:06:19Z</time>
      </trkpt>
      <trkpt lat="62.637207127768" lon="17.965653651282">
        <ele>53.8</ele>
        <time>2018-03-19T18:06:20Z</time>
      </trkpt>
      <trkpt lat="62.637198662049" lon="17.965638480043">
        <ele>53.8</ele>
        <time>2018-03-19T18:06:21Z</time>
      </trkpt>
      <trkpt lat="62.63719019633" lon="17.965616268008">
        <ele>53.8</ele>
        <time>2018-03-19T18:06:22Z</time>
      </trkpt>
      <trkpt lat="62.637184329" lon="17.965593217783">
        <ele>53.8</ele>
        <time>2018-03-19T18:06:23Z</time>
      </trkpt>
      <trkpt lat="62.637172259064" lon="17.965556924156">
        <ele>53.6</ele>
        <time>2018-03-19T18:06:24Z</time>
      </trkpt>
      <trkpt lat="62.637161362594" lon="17.965521301081">
        <ele>53.8</ele>
        <time>2018-03-19T18:06:25Z</time>
      </trkpt>
      <trkpt lat="62.637158428929" lon="17.965493137897">
        <ele>53.6</ele>
        <time>2018-03-19T18:06:26Z</time>
      </trkpt>
      <trkpt lat="62.637146358993" lon="17.965453826786">
        <ele>53.6</ele>
        <time>2018-03-19T18:06:27Z</time>
      </trkpt>
      <trkpt lat="62.637137055084" lon="17.965419209539">
        <ele>53.6</ele>
        <time>2018-03-19T18:06:28Z</time>
      </trkpt>
      <trkpt lat="62.637127080623" lon="17.965387023043">
        <ele>53.6</ele>
        <time>2018-03-19T18:06:29Z</time>
      </trkpt>
      <trkpt lat="62.637118698723" lon="17.965352405796">
        <ele>53.6</ele>
        <time>2018-03-19T18:06:30Z</time>
      </trkpt>
      <trkpt lat="62.63711224466" lon="17.965326589544">
        <ele>53.4</ele>
        <time>2018-03-19T18:06:31Z</time>
      </trkpt>
      <trkpt lat="62.637101767285" lon="17.965289457727">
        <ele>53.6</ele>
        <time>2018-03-19T18:06:32Z</time>
      </trkpt>
      <trkpt lat="62.637089529711" lon="17.965258612335">
        <ele>53.4</ele>
        <time>2018-03-19T18:06:33Z</time>
      </trkpt>
      <trkpt lat="62.637077627413" lon="17.96523220935">
        <ele>53.4</ele>
        <time>2018-03-19T18:06:34Z</time>
      </trkpt>
      <trkpt lat="62.637068910237" lon="17.965191724773">
        <ele>53.4</ele>
        <time>2018-03-19T18:06:35Z</time>
      </trkpt>
      <trkpt lat="62.637057510853" lon="17.965154006223">
        <ele>53.6</ele>
        <time>2018-03-19T18:06:36Z</time>
      </trkpt>
      <trkpt lat="62.637051643523" lon="17.965115449483">
        <ele>53.6</ele>
        <time>2018-03-19T18:06:37Z</time>
      </trkpt>
      <trkpt lat="62.637039573587" lon="17.965081502788">
        <ele>53.6</ele>
        <time>2018-03-19T18:06:38Z</time>
      </trkpt>
      <trkpt lat="62.637033119524" lon="17.965038671279">
        <ele>53.8</ele>
        <time>2018-03-19T18:06:39Z</time>
      </trkpt>
      <trkpt lat="62.637021803959" lon="17.965004137851">
        <ele>53.6</ele>
        <time>2018-03-19T18:06:40Z</time>
      </trkpt>
      <trkpt lat="62.637011913317" lon="17.964972035174">
        <ele>53.6</ele>
        <time>2018-03-19T18:06:41Z</time>
      </trkpt>
      <trkpt lat="62.637001016847" lon="17.964930544769">
        <ele>53.4</ele>
        <time>2018-03-19T18:06:42Z</time>
      </trkpt>
      <trkpt lat="62.63699238349" lon="17.964896430436">
        <ele>53.4</ele>
        <time>2018-03-19T18:06:43Z</time>
      </trkpt>
      <trkpt lat="62.636977631346" lon="17.964857957515">
        <ele>53</ele>
        <time>2018-03-19T18:06:44Z</time>
      </trkpt>
      <trkpt lat="62.636967321609" lon="17.964821663888">
        <ele>53</ele>
        <time>2018-03-19T18:06:45Z</time>
      </trkpt>
      <trkpt lat="62.636957263329" lon="17.964773803239">
        <ele>53</ele>
        <time>2018-03-19T18:06:46Z</time>
      </trkpt>
      <trkpt lat="62.636948546153" lon="17.964735246499">
        <ele>53</ele>
        <time>2018-03-19T18:06:47Z</time>
      </trkpt>
      <trkpt lat="62.636940080434" lon="17.964699707243">
        <ele>53.2</ele>
        <time>2018-03-19T18:06:48Z</time>
      </trkpt>
      <trkpt lat="62.636925244471" lon="17.964666766376">
        <ele>53.4</ele>
        <time>2018-03-19T18:06:49Z</time>
      </trkpt>
      <trkpt lat="62.636909905594" lon="17.964632652043">
        <ele>53.6</ele>
        <time>2018-03-19T18:06:50Z</time>
      </trkpt>
      <trkpt lat="62.636892052147" lon="17.964608847447">
        <ele>53.6</ele>
        <time>2018-03-19T18:06:51Z</time>
      </trkpt>
      <trkpt lat="62.636871851768" lon="17.964578337331">
        <ele>53.6</ele>
        <time>2018-03-19T18:06:52Z</time>
      </trkpt>
      <trkpt lat="62.636857770176" lon="17.964554029821">
        <ele>53.6</ele>
        <time>2018-03-19T18:06:53Z</time>
      </trkpt>
      <trkpt lat="62.636837485978" lon="17.964520418402">
        <ele>53.6</ele>
        <time>2018-03-19T18:06:54Z</time>
      </trkpt>
      <trkpt lat="62.636821141273" lon="17.964485801155">
        <ele>53.4</ele>
        <time>2018-03-19T18:06:55Z</time>
      </trkpt>
      <trkpt lat="62.636808400785" lon="17.964458140885">
        <ele>53.4</ele>
        <time>2018-03-19T18:06:56Z</time>
      </trkpt>
      <trkpt lat="62.636793648641" lon="17.964419919421">
        <ele>53.4</ele>
        <time>2018-03-19T18:06:57Z</time>
      </trkpt>
      <trkpt lat="62.63678367418" lon="17.964389493124">
        <ele>53.6</ele>
        <time>2018-03-19T18:06:58Z</time>
      </trkpt>
      <trkpt lat="62.636774286452" lon="17.964359485922">
        <ele>53.4</ele>
        <time>2018-03-19T18:06:59Z</time>
      </trkpt>
      <trkpt lat="62.636762216516" lon="17.964319839535">
        <ele>53.6</ele>
        <time>2018-03-19T18:07:00Z</time>
      </trkpt>
      <trkpt lat="62.636746374725" lon="17.964288072134">
        <ele>53.8</ele>
        <time>2018-03-19T18:07:01Z</time>
      </trkpt>
      <trkpt lat="62.636729108011" lon="17.964256137095">
        <ele>53.6</ele>
        <time>2018-03-19T18:07:02Z</time>
      </trkpt>
      <trkpt lat="62.636714774962" lon="17.964217412717">
        <ele>53.8</ele>
        <time>2018-03-19T18:07:03Z</time>
      </trkpt>
      <trkpt lat="62.636703375578" lon="17.964182879289">
        <ele>53.8</ele>
        <time>2018-03-19T18:07:04Z</time>
      </trkpt>
      <trkpt lat="62.636692060013" lon="17.96414591511">
        <ele>54.2</ele>
        <time>2018-03-19T18:07:05Z</time>
      </trkpt>
      <trkpt lat="62.636679487163" lon="17.964103754153">
        <ele>54</ele>
        <time>2018-03-19T18:07:06Z</time>
      </trkpt>
      <trkpt lat="62.636668925969" lon="17.964068382535">
        <ele>54</ele>
        <time>2018-03-19T18:07:07Z</time>
      </trkpt>
      <trkpt lat="62.636654509101" lon="17.964033430012">
        <ele>54</ele>
        <time>2018-03-19T18:07:08Z</time>
      </trkpt>
      <trkpt lat="62.636643277355" lon="17.963993113073">
        <ele>53.8</ele>
        <time>2018-03-19T18:07:09Z</time>
      </trkpt>
      <trkpt lat="62.636626513555" lon="17.96395648417">
        <ele>53.8</ele>
        <time>2018-03-19T18:07:10Z</time>
      </trkpt>
      <trkpt lat="62.636612599601" lon="17.963915329041">
        <ele>54</ele>
        <time>2018-03-19T18:07:11Z</time>
      </trkpt>
      <trkpt lat="62.636595165249" lon="17.963875766473">
        <ele>53.6</ele>
        <time>2018-03-19T18:07:12Z</time>
      </trkpt>
      <trkpt lat="62.636581838028" lon="17.963840981588">
        <ele>53.6</ele>
        <time>2018-03-19T18:07:13Z</time>
      </trkpt>
      <trkpt lat="62.636570103368" lon="17.963793959129">
        <ele>53.4</ele>
        <time>2018-03-19T18:07:14Z</time>
      </trkpt>
      <trkpt lat="62.636556943785" lon="17.9637611859">
        <ele>53.2</ele>
        <time>2018-03-19T18:07:15Z</time>
      </trkpt>
      <trkpt lat="62.636541856365" lon="17.963730927241">
        <ele>53.2</ele>
        <time>2018-03-19T18:07:16Z</time>
      </trkpt>
      <trkpt lat="62.636525008746" lon="17.963712487061">
        <ele>53.2</ele>
        <time>2018-03-19T18:07:17Z</time>
      </trkpt>
      <trkpt lat="62.636503802539" lon="17.96369664527">
        <ele>53.2</ele>
        <time>2018-03-19T18:07:18Z</time>
      </trkpt>
      <trkpt lat="62.636478489201" lon="17.963675439063">
        <ele>53</ele>
        <time>2018-03-19T18:07:19Z</time>
      </trkpt>
      <trkpt lat="62.636447224714" lon="17.963646689146">
        <ele>53</ele>
        <time>2018-03-19T18:07:20Z</time>
      </trkpt>
      <trkpt lat="62.636422162833" lon="17.963643420205">
        <ele>52.8</ele>
        <time>2018-03-19T18:07:21Z</time>
      </trkpt>
      <trkpt lat="62.63639978316" lon="17.9636522212">
        <ele>52.6</ele>
        <time>2018-03-19T18:07:22Z</time>
      </trkpt>
      <trkpt lat="62.63638218117" lon="17.963669571733">
        <ele>52.6</ele>
        <time>2018-03-19T18:07:23Z</time>
      </trkpt>
      <trkpt lat="62.63636038823" lon="17.963696561451">
        <ele>52.4</ele>
        <time>2018-03-19T18:07:24Z</time>
      </trkpt>
      <trkpt lat="62.6363377571" lon="17.963721036599">
        <ele>52.4</ele>
        <time>2018-03-19T18:07:25Z</time>
      </trkpt>
      <trkpt lat="62.636318730187" lon="17.963747020489">
        <ele>52.6</ele>
        <time>2018-03-19T18:07:26Z</time>
      </trkpt>
      <trkpt lat="62.636300541464" lon="17.963774848397">
        <ele>52.4</ele>
        <time>2018-03-19T18:07:27Z</time>
      </trkpt>
      <trkpt lat="62.636279670533" lon="17.963802424848">
        <ele>52.4</ele>
        <time>2018-03-19T18:07:28Z</time>
      </trkpt>
      <trkpt lat="62.636259889249" lon="17.963825307435">
        <ele>52.6</ele>
        <time>2018-03-19T18:07:29Z</time>
      </trkpt>
      <trkpt lat="62.636241449069" lon="17.963848190022">
        <ele>52.6</ele>
        <time>2018-03-19T18:07:30Z</time>
      </trkpt>
      <trkpt lat="62.636215046084" lon="17.963878029586">
        <ele>52.6</ele>
        <time>2018-03-19T18:07:31Z</time>
      </trkpt>
      <trkpt lat="62.636197276456" lon="17.963909629349">
        <ele>52.8</ele>
        <time>2018-03-19T18:07:32Z</time>
      </trkpt>
      <trkpt lat="62.636175734973" lon="17.963932763393">
        <ele>52.8</ele>
        <time>2018-03-19T18:07:33Z</time>
      </trkpt>
      <trkpt lat="62.636155283137" lon="17.963949359555">
        <ele>53</ele>
        <time>2018-03-19T18:07:34Z</time>
      </trkpt>
      <trkpt lat="62.636133741654" lon="17.963969476115">
        <ele>53</ele>
        <time>2018-03-19T18:07:35Z</time>
      </trkpt>
      <trkpt lat="62.636110104696" lon="17.963988922123">
        <ele>53</ele>
        <time>2018-03-19T18:07:36Z</time>
      </trkpt>
      <trkpt lat="62.636091496878" lon="17.964007278484">
        <ele>53</ele>
        <time>2018-03-19T18:07:37Z</time>
      </trkpt>
      <trkpt lat="62.636071967051" lon="17.964030747804">
        <ele>53</ele>
        <time>2018-03-19T18:07:38Z</time>
      </trkpt>
      <trkpt lat="62.636047408084" lon="17.964052373106">
        <ele>52.8</ele>
        <time>2018-03-19T18:07:39Z</time>
      </trkpt>
      <trkpt lat="62.636028800266" lon="17.964075423331">
        <ele>53</ele>
        <time>2018-03-19T18:07:40Z</time>
      </trkpt>
      <trkpt lat="62.636007845516" lon="17.964093612054">
        <ele>53</ele>
        <time>2018-03-19T18:07:41Z</time>
      </trkpt>
      <trkpt lat="62.635983370368" lon="17.96411825484">
        <ele>53.2</ele>
        <time>2018-03-19T18:07:42Z</time>
      </trkpt>
      <trkpt lat="62.63596308617" lon="17.964141640341">
        <ele>53</ele>
        <time>2018-03-19T18:07:43Z</time>
      </trkpt>
      <trkpt lat="62.635937605194" lon="17.964163684738">
        <ele>53</ele>
        <time>2018-03-19T18:07:44Z</time>
      </trkpt>
      <trkpt lat="62.635916063711" lon="17.964184304212">
        <ele>53.2</ele>
        <time>2018-03-19T18:07:45Z</time>
      </trkpt>
      <trkpt lat="62.635892426753" lon="17.964206348609">
        <ele>53.4</ele>
        <time>2018-03-19T18:07:46Z</time>
      </trkpt>
      <trkpt lat="62.635869627985" lon="17.964221268391">
        <ele>53.4</ele>
        <time>2018-03-19T18:07:47Z</time>
      </trkpt>
      <trkpt lat="62.635848086502" lon="17.964242474598">
        <ele>53.4</ele>
        <time>2018-03-19T18:07:48Z</time>
      </trkpt>
      <trkpt lat="62.635822940802" lon="17.964260914778">
        <ele>53.4</ele>
        <time>2018-03-19T18:07:49Z</time>
      </trkpt>
      <trkpt lat="62.63579963912" lon="17.964278097673">
        <ele>53.4</ele>
        <time>2018-03-19T18:07:50Z</time>
      </trkpt>
      <trkpt lat="62.635782288587" lon="17.964299136242">
        <ele>53.6</ele>
        <time>2018-03-19T18:07:51Z</time>
      </trkpt>
      <trkpt lat="62.63575689143" lon="17.964328053797">
        <ele>53.6</ele>
        <time>2018-03-19T18:07:52Z</time>
      </trkpt>
      <trkpt lat="62.635739624716" lon="17.964347835081">
        <ele>53.6</ele>
        <time>2018-03-19T18:07:53Z</time>
      </trkpt>
      <trkpt lat="62.635714059921" lon="17.964365604709">
        <ele>53.6</ele>
        <time>2018-03-19T18:07:54Z</time>
      </trkpt>
      <trkpt lat="62.635690422963" lon="17.964387230011">
        <ele>53.8</ele>
        <time>2018-03-19T18:07:55Z</time>
      </trkpt>
      <trkpt lat="62.635669132937" lon="17.964409190589">
        <ele>53.8</ele>
        <time>2018-03-19T18:07:56Z</time>
      </trkpt>
      <trkpt lat="62.635646669445" lon="17.964435845031">
        <ele>53.8</ele>
        <time>2018-03-19T18:07:57Z</time>
      </trkpt>
      <trkpt lat="62.635627055799" lon="17.964451519184">
        <ele>54</ele>
        <time>2018-03-19T18:07:58Z</time>
      </trkpt>
      <trkpt lat="62.635604173212" lon="17.964474150314">
        <ele>54</ele>
        <time>2018-03-19T18:07:59Z</time>
      </trkpt>
      <trkpt lat="62.635580620073" lon="17.964498876919">
        <ele>54</ele>
        <time>2018-03-19T18:08:00Z</time>
      </trkpt>
      <trkpt lat="62.63555991678" lon="17.964515724538">
        <ele>54.2</ele>
        <time>2018-03-19T18:08:01Z</time>
      </trkpt>
      <trkpt lat="62.635534519623" lon="17.964531147234">
        <ele>54.2</ele>
        <time>2018-03-19T18:08:02Z</time>
      </trkpt>
      <trkpt lat="62.635511217941" lon="17.964551179975">
        <ele>54</ele>
        <time>2018-03-19T18:08:03Z</time>
      </trkpt>
      <trkpt lat="62.635489005906" lon="17.964569620155">
        <ele>54.2</ele>
        <time>2018-03-19T18:08:04Z</time>
      </trkpt>
      <trkpt lat="62.635463105835" lon="17.964585797222">
        <ele>54.2</ele>
        <time>2018-03-19T18:08:05Z</time>
      </trkpt>
      <trkpt lat="62.635438965963" lon="17.964611278198">
        <ele>54.4</ele>
        <time>2018-03-19T18:08:06Z</time>
      </trkpt>
      <trkpt lat="62.635415915738" lon="17.964631310939">
        <ele>54.4</ele>
        <time>2018-03-19T18:08:07Z</time>
      </trkpt>
      <trkpt lat="62.635394290436" lon="17.964641704495">
        <ele>54.2</ele>
        <time>2018-03-19T18:08:08Z</time>
      </trkpt>
      <trkpt lat="62.635370066745" lon="17.964658300657">
        <ele>54.4</ele>
        <time>2018-03-19T18:08:09Z</time>
      </trkpt>
      <trkpt lat="62.635346262149" lon="17.964679087769">
        <ele>54.4</ele>
        <time>2018-03-19T18:08:10Z</time>
      </trkpt>
      <trkpt lat="62.635324804485" lon="17.964684116909">
        <ele>54.6</ele>
        <time>2018-03-19T18:08:11Z</time>
      </trkpt>
      <trkpt lat="62.635302005717" lon="17.964690990067">
        <ele>54.6</ele>
        <time>2018-03-19T18:08:12Z</time>
      </trkpt>
      <trkpt lat="62.635280715691" lon="17.964698030863">
        <ele>54.8</ele>
        <time>2018-03-19T18:08:13Z</time>
      </trkpt>
      <trkpt lat="62.635256492" lon="17.964707167134">
        <ele>54.8</ele>
        <time>2018-03-19T18:08:14Z</time>
      </trkpt>
      <trkpt lat="62.635234112327" lon="17.964714459387">
        <ele>55</ele>
        <time>2018-03-19T18:08:15Z</time>
      </trkpt>
      <trkpt lat="62.635209218084" lon="17.964722506011">
        <ele>55</ele>
        <time>2018-03-19T18:08:16Z</time>
      </trkpt>
      <trkpt lat="62.635189101524" lon="17.964733570119">
        <ele>55</ele>
        <time>2018-03-19T18:08:17Z</time>
      </trkpt>
      <trkpt lat="62.635163369091" lon="17.964739269811">
        <ele>55.2</ele>
        <time>2018-03-19T18:08:18Z</time>
      </trkpt>
      <trkpt lat="62.635138726305" lon="17.9647418682">
        <ele>55.2</ele>
        <time>2018-03-19T18:08:19Z</time>
      </trkpt>
      <trkpt lat="62.635116681908" lon="17.964755865973">
        <ele>55.2</ele>
        <time>2018-03-19T18:08:20Z</time>
      </trkpt>
      <trkpt lat="62.635088770181" lon="17.964763409683">
        <ele>55.2</ele>
        <time>2018-03-19T18:08:21Z</time>
      </trkpt>
      <trkpt lat="62.635065636137" lon="17.964770282841">
        <ele>55.4</ele>
        <time>2018-03-19T18:08:22Z</time>
      </trkpt>
      <trkpt lat="62.635044681387" lon="17.964776401628">
        <ele>55.4</ele>
        <time>2018-03-19T18:08:23Z</time>
      </trkpt>
      <trkpt lat="62.635015763832" lon="17.964784951166">
        <ele>55.4</ele>
        <time>2018-03-19T18:08:24Z</time>
      </trkpt>
      <trkpt lat="62.634989696123" lon="17.964794003618">
        <ele>55.4</ele>
        <time>2018-03-19T18:08:25Z</time>
      </trkpt>
      <trkpt lat="62.634965807708" lon="17.964805486821">
        <ele>55.6</ele>
        <time>2018-03-19T18:08:26Z</time>
      </trkpt>
      <trkpt lat="62.63494133256" lon="17.964808252848">
        <ele>55.6</ele>
        <time>2018-03-19T18:08:27Z</time>
      </trkpt>
      <trkpt lat="62.634920713086" lon="17.964810767418">
        <ele>55.6</ele>
        <time>2018-03-19T18:08:28Z</time>
      </trkpt>
      <trkpt lat="62.634895148291" lon="17.964813281988">
        <ele>55.6</ele>
        <time>2018-03-19T18:08:29Z</time>
      </trkpt>
      <trkpt lat="62.63486924822" lon="17.96481227616">
        <ele>55.8</ele>
        <time>2018-03-19T18:08:30Z</time>
      </trkpt>
      <trkpt lat="62.634846449452" lon="17.964819400775">
        <ele>55.8</ele>
        <time>2018-03-19T18:08:31Z</time>
      </trkpt>
      <trkpt lat="62.634821052295" lon="17.964818562585">
        <ele>55.8</ele>
        <time>2018-03-19T18:08:32Z</time>
      </trkpt>
      <trkpt lat="62.634797582975" lon="17.96482149625">
        <ele>55.8</ele>
        <time>2018-03-19T18:08:33Z</time>
      </trkpt>
      <trkpt lat="62.63477201818" lon="17.964827615037">
        <ele>56</ele>
        <time>2018-03-19T18:08:34Z</time>
      </trkpt>
      <trkpt lat="62.634745950471" lon="17.964831051616">
        <ele>56</ele>
        <time>2018-03-19T18:08:35Z</time>
      </trkpt>
      <trkpt lat="62.634721894418" lon="17.964835326385">
        <ele>55.8</ele>
        <time>2018-03-19T18:08:36Z</time>
      </trkpt>
      <trkpt lat="62.634696748718" lon="17.964838176231">
        <ele>56</ele>
        <time>2018-03-19T18:08:37Z</time>
      </trkpt>
      <trkpt lat="62.634674452864" lon="17.964841361353">
        <ele>56</ele>
        <time>2018-03-19T18:08:38Z</time>
      </trkpt>
      <trkpt lat="62.63464796606" lon="17.964845552303">
        <ele>56</ele>
        <time>2018-03-19T18:08:39Z</time>
      </trkpt>
      <trkpt lat="62.634622317446" lon="17.964851084357">
        <ele>56</ele>
        <time>2018-03-19T18:08:40Z</time>
      </trkpt>
      <trkpt lat="62.634599770135" lon="17.964856364954">
        <ele>56</ele>
        <time>2018-03-19T18:08:41Z</time>
      </trkpt>
      <trkpt lat="62.63457336715" lon="17.96485334747">
        <ele>56</ele>
        <time>2018-03-19T18:08:42Z</time>
      </trkpt>
      <trkpt lat="62.634546796527" lon="17.964855694402">
        <ele>56</ele>
        <time>2018-03-19T18:08:43Z</time>
      </trkpt>
      <trkpt lat="62.634522153741" lon="17.96486256756">
        <ele>55.8</ele>
        <time>2018-03-19T18:08:44Z</time>
      </trkpt>
      <trkpt lat="62.634495918394" lon="17.96486089118">
        <ele>56</ele>
        <time>2018-03-19T18:08:45Z</time>
      </trkpt>
      <trkpt lat="62.63447446073" lon="17.964866255596">
        <ele>56.2</ele>
        <time>2018-03-19T18:08:46Z</time>
      </trkpt>
      <trkpt lat="62.634450823772" lon="17.964871452374">
        <ele>56.2</ele>
        <time>2018-03-19T18:08:47Z</time>
      </trkpt>
      <trkpt lat="62.63442500752" lon="17.964870865641">
        <ele>56.2</ele>
        <time>2018-03-19T18:08:48Z</time>
      </trkpt>
      <trkpt lat="62.634403046942" lon="17.964873966944">
        <ele>56.4</ele>
        <time>2018-03-19T18:08:49Z</time>
      </trkpt>
      <trkpt lat="62.634375386672" lon="17.964875056591">
        <ele>56.6</ele>
        <time>2018-03-19T18:08:50Z</time>
      </trkpt>
      <trkpt lat="62.634350827705" lon="17.964871703831">
        <ele>56.6</ele>
        <time>2018-03-19T18:08:51Z</time>
      </trkpt>
      <trkpt lat="62.634327190747" lon="17.964875643324">
        <ele>56.8</ele>
        <time>2018-03-19T18:08:52Z</time>
      </trkpt>
      <trkpt lat="62.634304056703" lon="17.964877319704">
        <ele>56.8</ele>
        <time>2018-03-19T18:08:53Z</time>
      </trkpt>
      <trkpt lat="62.634275977338" lon="17.964878996084">
        <ele>56.8</ele>
        <time>2018-03-19T18:08:54Z</time>
      </trkpt>
      <trkpt lat="62.634252088923" lon="17.964878912265">
        <ele>57</ele>
        <time>2018-03-19T18:08:55Z</time>
      </trkpt>
      <trkpt lat="62.634226105033" lon="17.964882181206">
        <ele>57</ele>
        <time>2018-03-19T18:08:56Z</time>
      </trkpt>
      <trkpt lat="62.634202970989" lon="17.964882097387">
        <ele>57</ele>
        <time>2018-03-19T18:08:57Z</time>
      </trkpt>
      <trkpt lat="62.634180339859" lon="17.964884192862">
        <ele>57</ele>
        <time>2018-03-19T18:08:58Z</time>
      </trkpt>
      <trkpt lat="62.634156283806" lon="17.964884276681">
        <ele>57.2</ele>
        <time>2018-03-19T18:08:59Z</time>
      </trkpt>
      <trkpt lat="62.634130719011" lon="17.964884611957">
        <ele>57.2</ele>
        <time>2018-03-19T18:09:00Z</time>
      </trkpt>
      <trkpt lat="62.634104399845" lon="17.964894670237">
        <ele>57.2</ele>
        <time>2018-03-19T18:09:01Z</time>
      </trkpt>
      <trkpt lat="62.634078499774" lon="17.964893999685">
        <ele>57.2</ele>
        <time>2018-03-19T18:09:02Z</time>
      </trkpt>
      <trkpt lat="62.634058634671" lon="17.964900956662">
        <ele>57.2</ele>
        <time>2018-03-19T18:09:03Z</time>
      </trkpt>
      <trkpt lat="62.634033824247" lon="17.964918055738">
        <ele>57.4</ele>
        <time>2018-03-19T18:09:04Z</time>
      </trkpt>
      <trkpt lat="62.634009516737" lon="17.964935154814">
        <ele>57.4</ele>
        <time>2018-03-19T18:09:05Z</time>
      </trkpt>
      <trkpt lat="62.63398495777" lon="17.964957366849">
        <ele>57.4</ele>
        <time>2018-03-19T18:09:06Z</time>
      </trkpt>
      <trkpt lat="62.633957968052" lon="17.964968095681">
        <ele>57.4</ele>
        <time>2018-03-19T18:09:07Z</time>
      </trkpt>
      <trkpt lat="62.633936091293" lon="17.964984021291">
        <ele>57.4</ele>
        <time>2018-03-19T18:09:08Z</time>
      </trkpt>
      <trkpt lat="62.63390952067" lon="17.965005562774">
        <ele>57.2</ele>
        <time>2018-03-19T18:09:09Z</time>
      </trkpt>
      <trkpt lat="62.633889907024" lon="17.965021404565">
        <ele>57.2</ele>
        <time>2018-03-19T18:09:10Z</time>
      </trkpt>
      <trkpt lat="62.633876579803" lon="17.965051747043">
        <ele>57.2</ele>
        <time>2018-03-19T18:09:11Z</time>
      </trkpt>
      <trkpt lat="62.633861492383" lon="17.965091141973">
        <ele>57.2</ele>
        <time>2018-03-19T18:09:12Z</time>
      </trkpt>
      <trkpt lat="62.633856379424" lon="17.965125256306">
        <ele>57.4</ele>
        <time>2018-03-19T18:09:13Z</time>
      </trkpt>
      <trkpt lat="62.633856379424" lon="17.965167584901">
        <ele>57.6</ele>
        <time>2018-03-19T18:09:14Z</time>
      </trkpt>
      <trkpt lat="62.633860486555" lon="17.965214858817">
        <ele>57.6</ele>
        <time>2018-03-19T18:09:15Z</time>
      </trkpt>
      <trkpt lat="62.633863252582" lon="17.965251655358">
        <ele>57.8</ele>
        <time>2018-03-19T18:09:16Z</time>
      </trkpt>
      <trkpt lat="62.633865012781" lon="17.965290547374">
        <ele>58</ele>
        <time>2018-03-19T18:09:17Z</time>
      </trkpt>
      <trkpt lat="62.633867862627" lon="17.965333295064">
        <ele>58.2</ele>
        <time>2018-03-19T18:09:18Z</time>
      </trkpt>
      <trkpt lat="62.633870544835" lon="17.965369756329">
        <ele>58.2</ele>
        <time>2018-03-19T18:09:19Z</time>
      </trkpt>
      <trkpt lat="62.633873310862" lon="17.965419377177">
        <ele>58.4</ele>
        <time>2018-03-19T18:09:20Z</time>
      </trkpt>
      <trkpt lat="62.63387431669" lon="17.965463298333">
        <ele>58.8</ele>
        <time>2018-03-19T18:09:21Z</time>
      </trkpt>
      <trkpt lat="62.633878004726" lon="17.965510236973">
        <ele>58.8</ele>
        <time>2018-03-19T18:09:22Z</time>
      </trkpt>
      <trkpt lat="62.633881776581" lon="17.965554325767">
        <ele>59</ele>
        <time>2018-03-19T18:09:23Z</time>
      </trkpt>
      <trkpt lat="62.633884710246" lon="17.965608221384">
        <ele>59.2</ele>
        <time>2018-03-19T18:09:24Z</time>
      </trkpt>
      <trkpt lat="62.633889068834" lon="17.965649879427">
        <ele>59.2</ele>
        <time>2018-03-19T18:09:25Z</time>
      </trkpt>
      <trkpt lat="62.633889990843" lon="17.965698494447">
        <ele>59.4</ele>
        <time>2018-03-19T18:09:26Z</time>
      </trkpt>
      <trkpt lat="62.633892589232" lon="17.965741996508">
        <ele>59.6</ele>
        <time>2018-03-19T18:09:27Z</time>
      </trkpt>
      <trkpt lat="62.633893930336" lon="17.965793293736">
        <ele>59.6</ele>
        <time>2018-03-19T18:09:28Z</time>
      </trkpt>
      <trkpt lat="62.633894014155" lon="17.965843082222">
        <ele>59.8</ele>
        <time>2018-03-19T18:09:29Z</time>
      </trkpt>
      <trkpt lat="62.633895522897" lon="17.96589270307">
        <ele>60</ele>
        <time>2018-03-19T18:09:30Z</time>
      </trkpt>
      <trkpt lat="62.633894349431" lon="17.96594634723">
        <ele>60.2</ele>
        <time>2018-03-19T18:09:31Z</time>
      </trkpt>
      <trkpt lat="62.633892505413" lon="17.965992782956">
        <ele>60.4</ele>
        <time>2018-03-19T18:09:32Z</time>
      </trkpt>
      <trkpt lat="62.633889823205" lon="17.96603770994">
        <ele>60.6</ele>
        <time>2018-03-19T18:09:33Z</time>
      </trkpt>
      <trkpt lat="62.633882782409" lon="17.966093114299">
        <ele>60.8</ele>
        <time>2018-03-19T18:09:34Z</time>
      </trkpt>
      <trkpt lat="62.633875322518" lon="17.966135191437">
        <ele>61</ele>
        <time>2018-03-19T18:09:35Z</time>
      </trkpt>
      <trkpt lat="62.63385755289" lon="17.966180705154">
        <ele>61.2</ele>
        <time>2018-03-19T18:09:36Z</time>
      </trkpt>
      <trkpt lat="62.633838945072" lon="17.966211299089">
        <ele>61.4</ele>
        <time>2018-03-19T18:09:37Z</time>
      </trkpt>
      <trkpt lat="62.633821175444" lon="17.966229068717">
        <ele>61.4</ele>
        <time>2018-03-19T18:09:38Z</time>
      </trkpt>
      <trkpt lat="62.633797035572" lon="17.966253040951">
        <ele>61.6</ele>
        <time>2018-03-19T18:09:39Z</time>
      </trkpt>
      <trkpt lat="62.633774823537" lon="17.966278354289">
        <ele>61.8</ele>
        <time>2018-03-19T18:09:40Z</time>
      </trkpt>
      <trkpt lat="62.633749761656" lon="17.966297716478">
        <ele>61.8</ele>
        <time>2018-03-19T18:09:41Z</time>
      </trkpt>
      <trkpt lat="62.633721430834" lon="17.966304338179">
        <ele>61.8</ele>
        <time>2018-03-19T18:09:42Z</time>
      </trkpt>
      <trkpt lat="62.633697626238" lon="17.966313306812">
        <ele>62</ele>
        <time>2018-03-19T18:09:43Z</time>
      </trkpt>
      <trkpt lat="62.633670385063" lon="17.966320766703">
        <ele>62.2</ele>
        <time>2018-03-19T18:09:44Z</time>
      </trkpt>
      <trkpt lat="62.633644401173" lon="17.966327053128">
        <ele>62.2</ele>
        <time>2018-03-19T18:09:45Z</time>
      </trkpt>
      <trkpt lat="62.633619590749" lon="17.966340715625">
        <ele>62.2</ele>
        <time>2018-03-19T18:09:46Z</time>
      </trkpt>
      <trkpt lat="62.633592768669" lon="17.966339793616">
        <ele>62.4</ele>
        <time>2018-03-19T18:09:47Z</time>
      </trkpt>
      <trkpt lat="62.633568964073" lon="17.966340128892">
        <ele>62.4</ele>
        <time>2018-03-19T18:09:48Z</time>
      </trkpt>
      <trkpt lat="62.633544405106" lon="17.966339374521">
        <ele>62.4</ele>
        <time>2018-03-19T18:09:49Z</time>
      </trkpt>
      <trkpt lat="62.633514565542" lon="17.966337279046">
        <ele>62.4</ele>
        <time>2018-03-19T18:09:50Z</time>
      </trkpt>
      <trkpt lat="62.63348874929" lon="17.966344152204">
        <ele>62.4</ele>
        <time>2018-03-19T18:09:51Z</time>
      </trkpt>
      <trkpt lat="62.633462933038" lon="17.966352115009">
        <ele>62.4</ele>
        <time>2018-03-19T18:09:52Z</time>
      </trkpt>
      <trkpt lat="62.633437452062" lon="17.966348762249">
        <ele>62.4</ele>
        <time>2018-03-19T18:09:53Z</time>
      </trkpt>
      <trkpt lat="62.633410629982" lon="17.96634364929">
        <ele>62.2</ele>
        <time>2018-03-19T18:09:54Z</time>
      </trkpt>
      <trkpt lat="62.633385065187" lon="17.966347504964">
        <ele>62.2</ele>
        <time>2018-03-19T18:09:55Z</time>
      </trkpt>
      <trkpt lat="62.633356650546" lon="17.96634951662">
        <ele>62.2</ele>
        <time>2018-03-19T18:09:56Z</time>
      </trkpt>
      <trkpt lat="62.63333033138" lon="17.96635538395">
        <ele>62.2</ele>
        <time>2018-03-19T18:09:57Z</time>
      </trkpt>
      <trkpt lat="62.63330602387" lon="17.966360664547">
        <ele>62</ele>
        <time>2018-03-19T18:09:58Z</time>
      </trkpt>
      <trkpt lat="62.633277776867" lon="17.966359407262">
        <ele>62</ele>
        <time>2018-03-19T18:09:59Z</time>
      </trkpt>
      <trkpt lat="62.633251038606" lon="17.966361167461">
        <ele>61.8</ele>
        <time>2018-03-19T18:10:00Z</time>
      </trkpt>
      <trkpt lat="62.633224467983" lon="17.966366867153">
        <ele>62</ele>
        <time>2018-03-19T18:10:01Z</time>
      </trkpt>
      <trkpt lat="62.633196556256" lon="17.966368711171">
        <ele>61.8</ele>
        <time>2018-03-19T18:10:02Z</time>
      </trkpt>
      <trkpt lat="62.633171326737" lon="17.966368962628">
        <ele>61.8</ele>
        <time>2018-03-19T18:10:03Z</time>
      </trkpt>
      <trkpt lat="62.633143498829" lon="17.966370387551">
        <ele>62</ele>
        <time>2018-03-19T18:10:04Z</time>
      </trkpt>
      <trkpt lat="62.633116173835" lon="17.966370219913">
        <ele>62</ele>
        <time>2018-03-19T18:10:05Z</time>
      </trkpt>
      <trkpt lat="62.633087926832" lon="17.966378601813">
        <ele>62</ele>
        <time>2018-03-19T18:10:06Z</time>
      </trkpt>
      <trkpt lat="62.63306378696" lon="17.966377428347">
        <ele>61.8</ele>
        <time>2018-03-19T18:10:07Z</time>
      </trkpt>
      <trkpt lat="62.633039060355" lon="17.966377260709">
        <ele>61.8</ele>
        <time>2018-03-19T18:10:08Z</time>
      </trkpt>
      <trkpt lat="62.63301349556" lon="17.966378685632">
        <ele>61.4</ele>
        <time>2018-03-19T18:10:09Z</time>
      </trkpt>
      <trkpt lat="62.632983907453" lon="17.966379356184">
        <ele>61.4</ele>
        <time>2018-03-19T18:10:10Z</time>
      </trkpt>
      <trkpt lat="62.632960857228" lon="17.966382457487">
        <ele>61.2</ele>
        <time>2018-03-19T18:10:11Z</time>
      </trkpt>
      <trkpt lat="62.632931269121" lon="17.966386564618">
        <ele>61</ele>
        <time>2018-03-19T18:10:12Z</time>
      </trkpt>
      <trkpt lat="62.632903860308" lon="17.966384050048">
        <ele>60.8</ele>
        <time>2018-03-19T18:10:13Z</time>
      </trkpt>
      <trkpt lat="62.632876367676" lon="17.966379859098">
        <ele>61</ele>
        <time>2018-03-19T18:10:14Z</time>
      </trkpt>
      <trkpt lat="62.632850970519" lon="17.966385642609">
        <ele>60.8</ele>
        <time>2018-03-19T18:10:15Z</time>
      </trkpt>
      <trkpt lat="62.632824232258" lon="17.966385642609">
        <ele>60.6</ele>
        <time>2018-03-19T18:10:16Z</time>
      </trkpt>
      <trkpt lat="62.632801349671" lon="17.966379272365">
        <ele>60.8</ele>
        <time>2018-03-19T18:10:17Z</time>
      </trkpt>
      <trkpt lat="62.632775784876" lon="17.966379020908">
        <ele>60.8</ele>
        <time>2018-03-19T18:10:18Z</time>
      </trkpt>
      <trkpt lat="62.632745526217" lon="17.966376673976">
        <ele>60.8</ele>
        <time>2018-03-19T18:10:19Z</time>
      </trkpt>
      <trkpt lat="62.632719877603" lon="17.966379356184">
        <ele>60.6</ele>
        <time>2018-03-19T18:10:20Z</time>
      </trkpt>
      <trkpt lat="62.632692971704" lon="17.966382289849">
        <ele>60.6</ele>
        <time>2018-03-19T18:10:21Z</time>
      </trkpt>
      <trkpt lat="62.632666903995" lon="17.966383798591">
        <ele>60.4</ele>
        <time>2018-03-19T18:10:22Z</time>
      </trkpt>
      <trkpt lat="62.632644189046" lon="17.966376254881">
        <ele>60.4</ele>
        <time>2018-03-19T18:10:23Z</time>
      </trkpt>
      <trkpt lat="62.632614014206" lon="17.96637382413">
        <ele>60.2</ele>
        <time>2018-03-19T18:10:24Z</time>
      </trkpt>
      <trkpt lat="62.632586270117" lon="17.966368040619">
        <ele>60.2</ele>
        <time>2018-03-19T18:10:25Z</time>
      </trkpt>
      <trkpt lat="62.632563555168" lon="17.966362592384">
        <ele>60.2</ele>
        <time>2018-03-19T18:10:26Z</time>
      </trkpt>
      <trkpt lat="62.632536230174" lon="17.96635538395">
        <ele>60</ele>
        <time>2018-03-19T18:10:27Z</time>
      </trkpt>
      <trkpt lat="62.632509827189" lon="17.966352701742">
        <ele>60</ele>
        <time>2018-03-19T18:10:28Z</time>
      </trkpt>
      <trkpt lat="62.632483675661" lon="17.966343900747">
        <ele>59.8</ele>
        <time>2018-03-19T18:10:29Z</time>
      </trkpt>
      <trkpt lat="62.632453752278" lon="17.966340045073">
        <ele>59.8</ele>
        <time>2018-03-19T18:10:30Z</time>
      </trkpt>
      <trkpt lat="62.632431875519" lon="17.966337279046">
        <ele>59.6</ele>
        <time>2018-03-19T18:10:31Z</time>
      </trkpt>
      <trkpt lat="62.632400108118" lon="17.966330154431">
        <ele>59.6</ele>
        <time>2018-03-19T18:10:32Z</time>
      </trkpt>
      <trkpt lat="62.632375297694" lon="17.966325712024">
        <ele>59.4</ele>
        <time>2018-03-19T18:10:33Z</time>
      </trkpt>
      <trkpt lat="62.63234126718" lon="17.966316911029">
        <ele>59.4</ele>
        <time>2018-03-19T18:10:34Z</time>
      </trkpt>
      <trkpt lat="62.632320815344" lon="17.966310540785">
        <ele>59.4</ele>
        <time>2018-03-19T18:10:35Z</time>
      </trkpt>
      <trkpt lat="62.632292316884" lon="17.966308864405">
        <ele>59.2</ele>
        <time>2018-03-19T18:10:36Z</time>
      </trkpt>
      <trkpt lat="62.63226331551" lon="17.96631850359">
        <ele>59.2</ele>
        <time>2018-03-19T18:10:37Z</time>
      </trkpt>
      <trkpt lat="62.632240852018" lon="17.966339039245">
        <ele>59</ele>
        <time>2018-03-19T18:10:38Z</time>
      </trkpt>
      <trkpt lat="62.632216041594" lon="17.966374913777">
        <ele>59</ele>
        <time>2018-03-19T18:10:39Z</time>
      </trkpt>
      <trkpt lat="62.632200367441" lon="17.966418918752">
        <ele>59</ele>
        <time>2018-03-19T18:10:40Z</time>
      </trkpt>
      <trkpt lat="62.632196008853" lon="17.966462839908">
        <ele>59</ele>
        <time>2018-03-19T18:10:41Z</time>
      </trkpt>
      <trkpt lat="62.632193242826" lon="17.966521429389">
        <ele>58.8</ele>
        <time>2018-03-19T18:10:42Z</time>
      </trkpt>
      <trkpt lat="62.632189890066" lon="17.966568787124">
        <ele>58.8</ele>
        <time>2018-03-19T18:10:43Z</time>
      </trkpt>
      <trkpt lat="62.632184274193" lon="17.966624359121">
        <ele>58.6</ele>
        <time>2018-03-19T18:10:44Z</time>
      </trkpt>
      <trkpt lat="62.632176395207" lon="17.966677835643">
        <ele>58.6</ele>
        <time>2018-03-19T18:10:45Z</time>
      </trkpt>
      <trkpt lat="62.632174299732" lon="17.966722930265">
        <ele>58.6</ele>
        <time>2018-03-19T18:10:46Z</time>
      </trkpt>
      <trkpt lat="62.632169102954" lon="17.966775233321">
        <ele>58.8</ele>
        <time>2018-03-19T18:10:47Z</time>
      </trkpt>
      <trkpt lat="62.632164660547" lon="17.96682728492">
        <ele>58.8</ele>
        <time>2018-03-19T18:10:48Z</time>
      </trkpt>
      <trkpt lat="62.632164325271" lon="17.966881348175">
        <ele>59</ele>
        <time>2018-03-19T18:10:49Z</time>
      </trkpt>
      <trkpt lat="62.632160050502" lon="17.966936836353">
        <ele>59.2</ele>
        <time>2018-03-19T18:10:50Z</time>
      </trkpt>
      <trkpt lat="62.63215602719" lon="17.966989390866">
        <ele>59.6</ele>
        <time>2018-03-19T18:10:51Z</time>
      </trkpt>
      <trkpt lat="62.632150914231" lon="17.967032725289">
        <ele>59.8</ele>
        <time>2018-03-19T18:10:52Z</time>
      </trkpt>
      <trkpt lat="62.632145298358" lon="17.96707622735">
        <ele>59.8</ele>
        <time>2018-03-19T18:10:53Z</time>
      </trkpt>
      <trkpt lat="62.632137754648" lon="17.967130625881">
        <ele>60.2</ele>
        <time>2018-03-19T18:10:54Z</time>
      </trkpt>
      <trkpt lat="62.632137000277" lon="17.967177061607">
        <ele>60.4</ele>
        <time>2018-03-19T18:10:55Z</time>
      </trkpt>
      <trkpt lat="62.632127025816" lon="17.967224167885">
        <ele>60.4</ele>
        <time>2018-03-19T18:10:56Z</time>
      </trkpt>
      <trkpt lat="62.632115542613" lon="17.967270184516">
        <ele>60.8</ele>
        <time>2018-03-19T18:10:57Z</time>
      </trkpt>
      <trkpt lat="62.632106741618" lon="17.967310669093">
        <ele>60.8</ele>
        <time>2018-03-19T18:10:58Z</time>
      </trkpt>
      <trkpt lat="62.632090983646" lon="17.967357691552">
        <ele>61</ele>
        <time>2018-03-19T18:10:59Z</time>
      </trkpt>
      <trkpt lat="62.632076818235" lon="17.967396332111">
        <ele>61.2</ele>
        <time>2018-03-19T18:11:00Z</time>
      </trkpt>
      <trkpt lat="62.632063407195" lon="17.967442348742">
        <ele>61.4</ele>
        <time>2018-03-19T18:11:01Z</time>
      </trkpt>
      <trkpt lat="62.632049157965" lon="17.967487443364">
        <ele>61.4</ele>
        <time>2018-03-19T18:11:02Z</time>
      </trkpt>
      <trkpt lat="62.632039434961" lon="17.967522898801">
        <ele>61.6</ele>
        <time>2018-03-19T18:11:03Z</time>
      </trkpt>
      <trkpt lat="62.63202191679" lon="17.967571346183">
        <ele>61.8</ele>
        <time>2018-03-19T18:11:04Z</time>
      </trkpt>
      <trkpt lat="62.632010349768" lon="17.967611327846">
        <ele>62.2</ele>
        <time>2018-03-19T18:11:05Z</time>
      </trkpt>
      <trkpt lat="62.631997860737" lon="17.967653237346">
        <ele>62.6</ele>
        <time>2018-03-19T18:11:06Z</time>
      </trkpt>
      <trkpt lat="62.631981096937" lon="17.967694141018">
        <ele>62.8</ele>
        <time>2018-03-19T18:11:07Z</time>
      </trkpt>
      <trkpt lat="62.631968356449" lon="17.967730937559">
        <ele>63.2</ele>
        <time>2018-03-19T18:11:08Z</time>
      </trkpt>
      <trkpt lat="62.631954610133" lon="17.967771505955">
        <ele>63.6</ele>
        <time>2018-03-19T18:11:09Z</time>
      </trkpt>
      <trkpt lat="62.631938684523" lon="17.967814924197">
        <ele>63.8</ele>
        <time>2018-03-19T18:11:10Z</time>
      </trkpt>
      <trkpt lat="62.631923261827" lon="17.967858090982">
        <ele>63.8</ele>
        <time>2018-03-19T18:11:11Z</time>
      </trkpt>
      <trkpt lat="62.631912281538" lon="17.967886589442">
        <ele>64</ele>
        <time>2018-03-19T18:11:12Z</time>
      </trkpt>
      <trkpt lat="62.631896104471" lon="17.967933025168">
        <ele>64.2</ele>
        <time>2018-03-19T18:11:13Z</time>
      </trkpt>
      <trkpt lat="62.631883280164" lon="17.967969989347">
        <ele>64.2</ele>
        <time>2018-03-19T18:11:14Z</time>
      </trkpt>
      <trkpt lat="62.631868108925" lon="17.9680191911">
        <ele>64.6</ele>
        <time>2018-03-19T18:11:15Z</time>
      </trkpt>
      <trkpt lat="62.631854614066" lon="17.968057831659">
        <ele>64.8</ele>
        <time>2018-03-19T18:11:16Z</time>
      </trkpt>
      <trkpt lat="62.631843717596" lon="17.968098483874">
        <ele>64.8</ele>
        <time>2018-03-19T18:11:17Z</time>
      </trkpt>
      <trkpt lat="62.631830055099" lon="17.96813989046">
        <ele>65</ele>
        <time>2018-03-19T18:11:18Z</time>
      </trkpt>
      <trkpt lat="62.631814464765" lon="17.968186158548">
        <ele>65.2</ele>
        <time>2018-03-19T18:11:19Z</time>
      </trkpt>
      <trkpt lat="62.631801221363" lon="17.968227229858">
        <ele>65.4</ele>
        <time>2018-03-19T18:11:20Z</time>
      </trkpt>
      <trkpt lat="62.631785044296" lon="17.968268301168">
        <ele>65.4</ele>
        <time>2018-03-19T18:11:21Z</time>
      </trkpt>
      <trkpt lat="62.631773980188" lon="17.968307277003">
        <ele>65.8</ele>
        <time>2018-03-19T18:11:22Z</time>
      </trkpt>
      <trkpt lat="62.631762413166" lon="17.968343151535">
        <ele>66</ele>
        <time>2018-03-19T18:11:23Z</time>
      </trkpt>
      <trkpt lat="62.631746068461" lon="17.968387407967">
        <ele>66.2</ele>
        <time>2018-03-19T18:11:24Z</time>
      </trkpt>
      <trkpt lat="62.631735591086" lon="17.96843158058">
        <ele>66.4</ele>
        <time>2018-03-19T18:11:25Z</time>
      </trkpt>
      <trkpt lat="62.631724107883" lon="17.968475082641">
        <ele>66.8</ele>
        <time>2018-03-19T18:11:26Z</time>
      </trkpt>
      <trkpt lat="62.631706422074" lon="17.968520512539">
        <ele>67</ele>
        <time>2018-03-19T18:11:27Z</time>
      </trkpt>
      <trkpt lat="62.631696363794" lon="17.968560578021">
        <ele>67.2</ele>
        <time>2018-03-19T18:11:28Z</time>
      </trkpt>
      <trkpt lat="62.631683874763" lon="17.968609109222">
        <ele>67.4</ele>
        <time>2018-03-19T18:11:29Z</time>
      </trkpt>
      <trkpt lat="62.631672810655" lon="17.968656466957">
        <ele>67.8</ele>
        <time>2018-03-19T18:11:30Z</time>
      </trkpt>
      <trkpt lat="62.631667530058" lon="17.968700220475">
        <ele>67.8</ele>
        <time>2018-03-19T18:11:31Z</time>
      </trkpt>
      <trkpt lat="62.631658645244" lon="17.968750511875">
        <ele>68</ele>
        <time>2018-03-19T18:11:32Z</time>
      </trkpt>
      <trkpt lat="62.63165478957" lon="17.96878781133">
        <ele>68.4</ele>
        <time>2018-03-19T18:11:33Z</time>
      </trkpt>
      <trkpt lat="62.631652107362" lon="17.968836258712">
        <ele>68.4</ele>
        <time>2018-03-19T18:11:34Z</time>
      </trkpt>
      <trkpt lat="62.631652107362" lon="17.96887665947">
        <ele>68.6</ele>
        <time>2018-03-19T18:11:35Z</time>
      </trkpt>
      <trkpt lat="62.631658393787" lon="17.968919574798">
        <ele>68.6</ele>
        <time>2018-03-19T18:11:36Z</time>
      </trkpt>
      <trkpt lat="62.631661914185" lon="17.968973638053">
        <ele>69</ele>
        <time>2018-03-19T18:11:37Z</time>
      </trkpt>
      <trkpt lat="62.631669793171" lon="17.96901998996">
        <ele>69</ele>
        <time>2018-03-19T18:11:38Z</time>
      </trkpt>
      <trkpt lat="62.631677504519" lon="17.96906273765">
        <ele>69.2</ele>
        <time>2018-03-19T18:11:39Z</time>
      </trkpt>
      <trkpt lat="62.631686724609" lon="17.969107329358">
        <ele>69.4</ele>
        <time>2018-03-19T18:11:40Z</time>
      </trkpt>
      <trkpt lat="62.631696363794" lon="17.969155022369">
        <ele>69.6</ele>
        <time>2018-03-19T18:11:41Z</time>
      </trkpt>
      <trkpt lat="62.63171011011" lon="17.969201458095">
        <ele>69.8</ele>
        <time>2018-03-19T18:11:42Z</time>
      </trkpt>
      <trkpt lat="62.63172016839" lon="17.969243870509">
        <ele>69.8</ele>
        <time>2018-03-19T18:11:43Z</time>
      </trkpt>
      <trkpt lat="62.631732489783" lon="17.969291395882">
        <ele>70.2</ele>
        <time>2018-03-19T18:11:44Z</time>
      </trkpt>
      <trkpt lat="62.631744308262" lon="17.969331377545">
        <ele>70.2</ele>
        <time>2018-03-19T18:11:45Z</time>
      </trkpt>
      <trkpt lat="62.631759479501" lon="17.969383848239">
        <ele>70.4</ele>
        <time>2018-03-19T18:11:46Z</time>
      </trkpt>
      <trkpt lat="62.631773309636" lon="17.969418297848">
        <ele>70.6</ele>
        <time>2018-03-19T18:11:47Z</time>
      </trkpt>
      <trkpt lat="62.631791246902" lon="17.969447634498">
        <ele>70.8</ele>
        <time>2018-03-19T18:11:48Z</time>
      </trkpt>
      <trkpt lat="62.63181069291" lon="17.969467164325">
        <ele>71</ele>
        <time>2018-03-19T18:11:49Z</time>
      </trkpt>
      <trkpt lat="62.631827875805" lon="17.969487280885">
        <ele>71.2</ele>
        <time>2018-03-19T18:11:50Z</time>
      </trkpt>
      <trkpt lat="62.631846567442" lon="17.969502619762">
        <ele>71.4</ele>
        <time>2018-03-19T18:11:51Z</time>
      </trkpt>
      <trkpt lat="62.63186349888" lon="17.969524496521">
        <ele>71.6</ele>
        <time>2018-03-19T18:11:52Z</time>
      </trkpt>
      <trkpt lat="62.631882190517" lon="17.969529190385">
        <ele>71.6</ele>
        <time>2018-03-19T18:11:53Z</time>
      </trkpt>
      <trkpt lat="62.631905827475" lon="17.969543104339">
        <ele>72</ele>
        <time>2018-03-19T18:11:54Z</time>
      </trkpt>
      <trkpt lat="62.631929296795" lon="17.969549558402">
        <ele>72</ele>
        <time>2018-03-19T18:11:55Z</time>
      </trkpt>
      <trkpt lat="62.631948826622" lon="17.969553581714">
        <ele>72.2</ele>
        <time>2018-03-19T18:11:56Z</time>
      </trkpt>
      <trkpt lat="62.631970116648" lon="17.969553414076">
        <ele>72.4</ele>
        <time>2018-03-19T18:11:57Z</time>
      </trkpt>
      <trkpt lat="62.631990652303" lon="17.969555509551">
        <ele>72.6</ele>
        <time>2018-03-19T18:11:58Z</time>
      </trkpt>
      <trkpt lat="62.632012026148" lon="17.969550815687">
        <ele>72.6</ele>
        <time>2018-03-19T18:11:59Z</time>
      </trkpt>
      <trkpt lat="62.632036501296" lon="17.969549390764">
        <ele>72.6</ele>
        <time>2018-03-19T18:12:00Z</time>
      </trkpt>
      <trkpt lat="62.63206214991" lon="17.969545870366">
        <ele>72.6</ele>
        <time>2018-03-19T18:12:01Z</time>
      </trkpt>
      <trkpt lat="62.632083272298" lon="17.969534051887">
        <ele>72.6</ele>
        <time>2018-03-19T18:12:02Z</time>
      </trkpt>
      <trkpt lat="62.632105316695" lon="17.969532459326">
        <ele>72.6</ele>
        <time>2018-03-19T18:12:03Z</time>
      </trkpt>
      <trkpt lat="62.632131552042" lon="17.96952374215">
        <ele>72.6</ele>
        <time>2018-03-19T18:12:04Z</time>
      </trkpt>
      <trkpt lat="62.632152925887" lon="17.969518880648">
        <ele>72.6</ele>
        <time>2018-03-19T18:12:05Z</time>
      </trkpt>
      <trkpt lat="62.632178323044" lon="17.96951871301">
        <ele>72.6</ele>
        <time>2018-03-19T18:12:06Z</time>
      </trkpt>
      <trkpt lat="62.632204474572" lon="17.969511588395">
        <ele>72.8</ele>
        <time>2018-03-19T18:12:07Z</time>
      </trkpt>
      <trkpt lat="62.632225680779" lon="17.969506223979">
        <ele>72.8</ele>
        <time>2018-03-19T18:12:08Z</time>
      </trkpt>
      <trkpt lat="62.632251748488" lon="17.969496500975">
        <ele>72.6</ele>
        <time>2018-03-19T18:12:09Z</time>
      </trkpt>
      <trkpt lat="62.632276391274" lon="17.969493483491">
        <ele>72.6</ele>
        <time>2018-03-19T18:12:10Z</time>
      </trkpt>
      <trkpt lat="62.632297094567" lon="17.969488454351">
        <ele>72.6</ele>
        <time>2018-03-19T18:12:11Z</time>
      </trkpt>
      <trkpt lat="62.632326850312" lon="17.969485939781">
        <ele>72.4</ele>
        <time>2018-03-19T18:12:12Z</time>
      </trkpt>
      <trkpt lat="62.632349565261" lon="17.96948350903">
        <ele>72.6</ele>
        <time>2018-03-19T18:12:13Z</time>
      </trkpt>
      <trkpt lat="62.632374710961" lon="17.969481748831">
        <ele>72.6</ele>
        <time>2018-03-19T18:12:14Z</time>
      </trkpt>
      <trkpt lat="62.63240329324" lon="17.969480826822">
        <ele>72.4</ele>
        <time>2018-03-19T18:12:15Z</time>
      </trkpt>
      <trkpt lat="62.632428774216" lon="17.969479569537">
        <ele>72.6</ele>
        <time>2018-03-19T18:12:16Z</time>
      </trkpt>
      <trkpt lat="62.632450734794" lon="17.969481162098">
        <ele>72.4</ele>
        <time>2018-03-19T18:12:17Z</time>
      </trkpt>
      <trkpt lat="62.63247789215" lon="17.969494908414">
        <ele>72.6</ele>
        <time>2018-03-19T18:12:18Z</time>
      </trkpt>
      <trkpt lat="62.632506474429" lon="17.969512678042">
        <ele>72.6</ele>
        <time>2018-03-19T18:12:19Z</time>
      </trkpt>
      <trkpt lat="62.632533128871" lon="17.969527849281">
        <ele>72.6</ele>
        <time>2018-03-19T18:12:20Z</time>
      </trkpt>
      <trkpt lat="62.632558693666" lon="17.969544110167">
        <ele>72.8</ele>
        <time>2018-03-19T18:12:21Z</time>
      </trkpt>
      <trkpt lat="62.63258434228" lon="17.969552575886">
        <ele>72.8</ele>
        <time>2018-03-19T18:12:22Z</time>
      </trkpt>
      <trkpt lat="62.632608230695" lon="17.969557185931">
        <ele>72.8</ele>
        <time>2018-03-19T18:12:23Z</time>
      </trkpt>
      <trkpt lat="62.63264050101" lon="17.969562885623">
        <ele>72.6</ele>
        <time>2018-03-19T18:12:24Z</time>
      </trkpt>
      <trkpt lat="62.632667406909" lon="17.969572860084">
        <ele>72.4</ele>
        <time>2018-03-19T18:12:25Z</time>
      </trkpt>
      <trkpt lat="62.632693139342" lon="17.969578811233">
        <ele>72.6</ele>
        <time>2018-03-19T18:12:26Z</time>
      </trkpt>
      <trkpt lat="62.632722895087" lon="17.969580236156">
        <ele>72.6</ele>
        <time>2018-03-19T18:12:27Z</time>
      </trkpt>
      <trkpt lat="62.63274527476" lon="17.969584762382">
        <ele>72.6</ele>
        <time>2018-03-19T18:12:28Z</time>
      </trkpt>
      <trkpt lat="62.632772013021" lon="17.969585349115">
        <ele>72.6</ele>
        <time>2018-03-19T18:12:29Z</time>
      </trkpt>
      <trkpt lat="62.632796739626" lon="17.969597754327">
        <ele>72.6</ele>
        <time>2018-03-19T18:12:30Z</time>
      </trkpt>
      <trkpt lat="62.632818113471" lon="17.969594569205">
        <ele>72.4</ele>
        <time>2018-03-19T18:12:31Z</time>
      </trkpt>
      <trkpt lat="62.63284585756" lon="17.969570177876">
        <ele>72.4</ele>
        <time>2018-03-19T18:12:32Z</time>
      </trkpt>
      <trkpt lat="62.63287016507" lon="17.969565232555">
        <ele>72.6</ele>
        <time>2018-03-19T18:12:33Z</time>
      </trkpt>
      <trkpt lat="62.63289531077" lon="17.969559616682">
        <ele>72.6</ele>
        <time>2018-03-19T18:12:34Z</time>
      </trkpt>
      <trkpt lat="62.63292045647" lon="17.96955894613">
        <ele>72.4</ele>
        <time>2018-03-19T18:12:35Z</time>
      </trkpt>
      <trkpt lat="62.632945518351" lon="17.96955810794">
        <ele>72.6</ele>
        <time>2018-03-19T18:12:36Z</time>
      </trkpt>
      <trkpt lat="62.632968736214" lon="17.969556263922">
        <ele>72.8</ele>
        <time>2018-03-19T18:12:37Z</time>
      </trkpt>
      <trkpt lat="62.632993462819" lon="17.969567663306">
        <ele>73</ele>
        <time>2018-03-19T18:12:38Z</time>
      </trkpt>
      <trkpt lat="62.633018859976" lon="17.96956900441">
        <ele>73</ele>
        <time>2018-03-19T18:12:39Z</time>
      </trkpt>
      <trkpt lat="62.633043586581" lon="17.969571602799">
        <ele>73.2</ele>
        <time>2018-03-19T18:12:40Z</time>
      </trkpt>
      <trkpt lat="62.633066720625" lon="17.96957487174">
        <ele>73.2</ele>
        <time>2018-03-19T18:12:41Z</time>
      </trkpt>
      <trkpt lat="62.633084909348" lon="17.969590462074">
        <ele>73.4</ele>
        <time>2018-03-19T18:12:42Z</time>
      </trkpt>
      <trkpt lat="62.633113323989" lon="17.969598424879">
        <ele>73.4</ele>
        <time>2018-03-19T18:12:43Z</time>
      </trkpt>
      <trkpt lat="62.633139810793" lon="17.969604459847">
        <ele>73.6</ele>
        <time>2018-03-19T18:12:44Z</time>
      </trkpt>
      <trkpt lat="62.633161939009" lon="17.969614099032">
        <ele>73.6</ele>
        <time>2018-03-19T18:12:45Z</time>
      </trkpt>
      <trkpt lat="62.633187671442" lon="17.969624995502">
        <ele>73.6</ele>
        <time>2018-03-19T18:12:46Z</time>
      </trkpt>
      <trkpt lat="62.633209883477" lon="17.969641172569">
        <ele>73.6</ele>
        <time>2018-03-19T18:12:47Z</time>
      </trkpt>
      <trkpt lat="62.633232346969" lon="17.969647458994">
        <ele>73.4</ele>
        <time>2018-03-19T18:12:48Z</time>
      </trkpt>
      <trkpt lat="62.63326243799" lon="17.969667156459">
        <ele>73.2</ele>
        <time>2018-03-19T18:12:49Z</time>
      </trkpt>
      <trkpt lat="62.633286661681" lon="17.969683668802">
        <ele>73.2</ele>
        <time>2018-03-19T18:12:50Z</time>
      </trkpt>
      <trkpt lat="62.633307281155" lon="17.969703030991">
        <ele>72.8</ele>
        <time>2018-03-19T18:12:51Z</time>
      </trkpt>
      <trkpt lat="62.633330415199" lon="17.969732870555">
        <ele>72.6</ele>
        <time>2018-03-19T18:12:52Z</time>
      </trkpt>
      <trkpt lat="62.633344832067" lon="17.969762039567">
        <ele>72.6</ele>
        <time>2018-03-19T18:12:53Z</time>
      </trkpt>
      <trkpt lat="62.633364110437" lon="17.969811828053">
        <ele>72.6</ele>
        <time>2018-03-19T18:12:54Z</time>
      </trkpt>
      <trkpt lat="62.633373833441" lon="17.969876536321">
        <ele>72.6</ele>
        <time>2018-03-19T18:12:55Z</time>
      </trkpt>
      <trkpt lat="62.633377102382" lon="17.969924899884">
        <ele>72.8</ele>
        <time>2018-03-19T18:12:56Z</time>
      </trkpt>
      <trkpt lat="62.633386657748" lon="17.969990530161">
        <ele>73</ele>
        <time>2018-03-19T18:12:57Z</time>
      </trkpt>
      <trkpt lat="62.633392022164" lon="17.970037887896">
        <ele>73.4</ele>
        <time>2018-03-19T18:12:58Z</time>
      </trkpt>
      <trkpt lat="62.633400655521" lon="17.97008700583">
        <ele>73.6</ele>
        <time>2018-03-19T18:12:59Z</time>
      </trkpt>
      <trkpt lat="62.633404511195" lon="17.970153893392">
        <ele>74</ele>
        <time>2018-03-19T18:13:00Z</time>
      </trkpt>
      <trkpt lat="62.633405097928" lon="17.970206280267">
        <ele>74.4</ele>
        <time>2018-03-19T18:13:01Z</time>
      </trkpt>
      <trkpt lat="62.633408199231" lon="17.970260008246">
        <ele>74.6</ele>
        <time>2018-03-19T18:13:02Z</time>
      </trkpt>
      <trkpt lat="62.633412138724" lon="17.970313149492">
        <ele>74.8</ele>
        <time>2018-03-19T18:13:03Z</time>
      </trkpt>
      <trkpt lat="62.633416245855" lon="17.970367631842">
        <ele>74.8</ele>
        <time>2018-03-19T18:13:04Z</time>
      </trkpt>
      <trkpt lat="62.633417419321" lon="17.970401662356">
        <ele>74.8</ele>
        <time>2018-03-19T18:13:05Z</time>
      </trkpt>
      <trkpt lat="62.633420185348" lon="17.970482296234">
        <ele>75</ele>
        <time>2018-03-19T18:13:06Z</time>
      </trkpt>
      <trkpt lat="62.633422113185" lon="17.970533593462">
        <ele>75</ele>
        <time>2018-03-19T18:13:07Z</time>
      </trkpt>
      <trkpt lat="62.633421107357" lon="17.970587740536">
        <ele>75</ele>
        <time>2018-03-19T18:13:08Z</time>
      </trkpt>
      <trkpt lat="62.63342253228" lon="17.970647587302">
        <ele>75.2</ele>
        <time>2018-03-19T18:13:09Z</time>
      </trkpt>
      <trkpt lat="62.63342672323" lon="17.970703159299">
        <ele>75.2</ele>
        <time>2018-03-19T18:13:10Z</time>
      </trkpt>
      <trkpt lat="62.633426220316" lon="17.970748924473">
        <ele>75.2</ele>
        <time>2018-03-19T18:13:11Z</time>
      </trkpt>
      <trkpt lat="62.633428567248" lon="17.970809944705">
        <ele>75.4</ele>
        <time>2018-03-19T18:13:12Z</time>
      </trkpt>
      <trkpt lat="62.633428315791" lon="17.970856883345">
        <ele>75.6</ele>
        <time>2018-03-19T18:13:13Z</time>
      </trkpt>
      <trkpt lat="62.633428818705" lon="17.970917735939">
        <ele>75.6</ele>
        <time>2018-03-19T18:13:14Z</time>
      </trkpt>
      <trkpt lat="62.633429153981" lon="17.970969955176">
        <ele>75.6</ele>
        <time>2018-03-19T18:13:15Z</time>
      </trkpt>
      <trkpt lat="62.63343007599" lon="17.971023012603">
        <ele>75.8</ele>
        <time>2018-03-19T18:13:16Z</time>
      </trkpt>
      <trkpt lat="62.633428651067" lon="17.971074058374">
        <ele>75.8</ele>
        <time>2018-03-19T18:13:17Z</time>
      </trkpt>
      <trkpt lat="62.633431165637" lon="17.971121751385">
        <ele>75.8</ele>
        <time>2018-03-19T18:13:18Z</time>
      </trkpt>
      <trkpt lat="62.633431249456" lon="17.971184867092">
        <ele>76</ele>
        <time>2018-03-19T18:13:19Z</time>
      </trkpt>
      <trkpt lat="62.63343007599" lon="17.971239936175">
        <ele>76</ele>
        <time>2018-03-19T18:13:20Z</time>
      </trkpt>
      <trkpt lat="62.633429992171" lon="17.971294250887">
        <ele>76.2</ele>
        <time>2018-03-19T18:13:21Z</time>
      </trkpt>
      <trkpt lat="62.633427645239" lon="17.971351080169">
        <ele>76.2</ele>
        <time>2018-03-19T18:13:22Z</time>
      </trkpt>
      <trkpt lat="62.633425465945" lon="17.971391397108">
        <ele>76.4</ele>
        <time>2018-03-19T18:13:23Z</time>
      </trkpt>
      <trkpt lat="62.633427309963" lon="17.97145660829">
        <ele>76.6</ele>
        <time>2018-03-19T18:13:24Z</time>
      </trkpt>
      <trkpt lat="62.633425298307" lon="17.97151863435">
        <ele>76.6</ele>
        <time>2018-03-19T18:13:25Z</time>
      </trkpt>
      <trkpt lat="62.633422364642" lon="17.971563645153">
        <ele>76.6</ele>
        <time>2018-03-19T18:13:26Z</time>
      </trkpt>
      <trkpt lat="62.633419011882" lon="17.971622905186">
        <ele>76.8</ele>
        <time>2018-03-19T18:13:27Z</time>
      </trkpt>
      <trkpt lat="62.63341331219" lon="17.971673950957">
        <ele>76.8</ele>
        <time>2018-03-19T18:13:28Z</time>
      </trkpt>
      <trkpt lat="62.633411049077" lon="17.971728684764">
        <ele>76.8</ele>
        <time>2018-03-19T18:13:29Z</time>
      </trkpt>
      <trkpt lat="62.633406187575" lon="17.971790543186">
        <ele>77</ele>
        <time>2018-03-19T18:13:30Z</time>
      </trkpt>
      <trkpt lat="62.633399146779" lon="17.971843432975">
        <ele>77.2</ele>
        <time>2018-03-19T18:13:31Z</time>
      </trkpt>
      <trkpt lat="62.633394369096" lon="17.971892047995">
        <ele>77.2</ele>
        <time>2018-03-19T18:13:32Z</time>
      </trkpt>
      <trkpt lat="62.633387076843" lon="17.971940746834">
        <ele>77.4</ele>
        <time>2018-03-19T18:13:33Z</time>
      </trkpt>
      <trkpt lat="62.633381880065" lon="17.97199640265">
        <ele>77.4</ele>
        <time>2018-03-19T18:13:34Z</time>
      </trkpt>
      <trkpt lat="62.633377437658" lon="17.972043928023">
        <ele>77.4</ele>
        <time>2018-03-19T18:13:35Z</time>
      </trkpt>
      <trkpt lat="62.633370313043" lon="17.972103104237">
        <ele>77.6</ele>
        <time>2018-03-19T18:13:36Z</time>
      </trkpt>
      <trkpt lat="62.633362685514" lon="17.972154401465">
        <ele>77.6</ele>
        <time>2018-03-19T18:13:37Z</time>
      </trkpt>
      <trkpt lat="62.633356482908" lon="17.972202932666">
        <ele>77.8</ele>
        <time>2018-03-19T18:13:38Z</time>
      </trkpt>
      <trkpt lat="62.633345586438" lon="17.97226713802">
        <ele>78</ele>
        <time>2018-03-19T18:13:39Z</time>
      </trkpt>
      <trkpt lat="62.633335695796" lon="17.97231323847">
        <ele>78.2</ele>
        <time>2018-03-19T18:13:40Z</time>
      </trkpt>
      <trkpt lat="62.633329744647" lon="17.972354645056">
        <ele>78.4</ele>
        <time>2018-03-19T18:13:41Z</time>
      </trkpt>
      <trkpt lat="62.63331775853" lon="17.972414408003">
        <ele>78.4</ele>
        <time>2018-03-19T18:13:42Z</time>
      </trkpt>
      <trkpt lat="62.63330937663" lon="17.972461849557">
        <ele>78.6</ele>
        <time>2018-03-19T18:13:43Z</time>
      </trkpt>
      <trkpt lat="62.633298396341" lon="17.97252362416">
        <ele>79</ele>
        <time>2018-03-19T18:13:44Z</time>
      </trkpt>
      <trkpt lat="62.633288505699" lon="17.972569640791">
        <ele>79</ele>
        <time>2018-03-19T18:13:45Z</time>
      </trkpt>
      <trkpt lat="62.633276938677" lon="17.972620351286">
        <ele>79</ele>
        <time>2018-03-19T18:13:46Z</time>
      </trkpt>
      <trkpt lat="62.633265120198" lon="17.972677599663">
        <ele>79.2</ele>
        <time>2018-03-19T18:13:47Z</time>
      </trkpt>
      <trkpt lat="62.633254475185" lon="17.972732082013">
        <ele>79.2</ele>
        <time>2018-03-19T18:13:48Z</time>
      </trkpt>
      <trkpt lat="62.633243578715" lon="17.972787318734">
        <ele>79</ele>
        <time>2018-03-19T18:13:49Z</time>
      </trkpt>
      <trkpt lat="62.633230251494" lon="17.97284129817">
        <ele>79</ele>
        <time>2018-03-19T18:13:50Z</time>
      </trkpt>
      <trkpt lat="62.633217846282" lon="17.972889410276">
        <ele>79.2</ele>
        <time>2018-03-19T18:13:51Z</time>
      </trkpt>
      <trkpt lat="62.633206782174" lon="17.97294104278">
        <ele>79.2</ele>
        <time>2018-03-19T18:13:52Z</time>
      </trkpt>
      <trkpt lat="62.633195298971" lon="17.972987813782">
        <ele>79</ele>
        <time>2018-03-19T18:13:53Z</time>
      </trkpt>
      <trkpt lat="62.633185995062" lon="17.973040033019">
        <ele>79.2</ele>
        <time>2018-03-19T18:13:54Z</time>
      </trkpt>
      <trkpt lat="62.63317442804" lon="17.973093006627">
        <ele>79.2</ele>
        <time>2018-03-19T18:13:55Z</time>
      </trkpt>
      <trkpt lat="62.633161352276" lon="17.973146902244">
        <ele>79.4</ele>
        <time>2018-03-19T18:13:56Z</time>
      </trkpt>
      <trkpt lat="62.63315095872" lon="17.973194762893">
        <ele>79.4</ele>
        <time>2018-03-19T18:13:57Z</time>
      </trkpt>
      <trkpt lat="62.63313922406" lon="17.973246646854">
        <ele>79.6</ele>
        <time>2018-03-19T18:13:58Z</time>
      </trkpt>
      <trkpt lat="62.633125142468" lon="17.973297608806">
        <ele>79.6</ele>
        <time>2018-03-19T18:13:59Z</time>
      </trkpt>
      <trkpt lat="62.633113659265" lon="17.973357287934">
        <ele>79.8</ele>
        <time>2018-03-19T18:14:00Z</time>
      </trkpt>
      <trkpt lat="62.63310066732" lon="17.973410932094">
        <ele>79.8</ele>
        <time>2018-03-19T18:14:01Z</time>
      </trkpt>
      <trkpt lat="62.633089938488" lon="17.973466420272">
        <ele>79.8</ele>
        <time>2018-03-19T18:14:02Z</time>
      </trkpt>
      <trkpt lat="62.633082562416" lon="17.973502797718">
        <ele>80.2</ele>
        <time>2018-03-19T18:14:03Z</time>
      </trkpt>
      <trkpt lat="62.633066804444" lon="17.973558034439">
        <ele>80.2</ele>
        <time>2018-03-19T18:14:04Z</time>
      </trkpt>
      <trkpt lat="62.633054315413" lon="17.973606062726">
        <ele>80</ele>
        <time>2018-03-19T18:14:05Z</time>
      </trkpt>
      <trkpt lat="62.633038892717" lon="17.973651744081">
        <ele>80.2</ele>
        <time>2018-03-19T18:14:06Z</time>
      </trkpt>
      <trkpt lat="62.6330269066" lon="17.973709411553">
        <ele>80.4</ele>
        <time>2018-03-19T18:14:07Z</time>
      </trkpt>
      <trkpt lat="62.633020284899" lon="17.973760289686">
        <ele>80.4</ele>
        <time>2018-03-19T18:14:08Z</time>
      </trkpt>
      <trkpt lat="62.633003269642" lon="17.973822902479">
        <ele>80.4</ele>
        <time>2018-03-19T18:14:09Z</time>
      </trkpt>
      <trkpt lat="62.632991451163" lon="17.973875037897">
        <ele>80.6</ele>
        <time>2018-03-19T18:14:10Z</time>
      </trkpt>
      <trkpt lat="62.632980387055" lon="17.973918120863">
        <ele>80.6</ele>
        <time>2018-03-19T18:14:11Z</time>
      </trkpt>
      <trkpt lat="62.632962533608" lon="17.973981655665">
        <ele>80.6</ele>
        <time>2018-03-19T18:14:12Z</time>
      </trkpt>
      <trkpt lat="62.632952056233" lon="17.974028007572">
        <ele>80.8</ele>
        <time>2018-03-19T18:14:13Z</time>
      </trkpt>
      <trkpt lat="62.632937471727" lon="17.974087183786">
        <ele>80.8</ele>
        <time>2018-03-19T18:14:14Z</time>
      </trkpt>
      <trkpt lat="62.632922887221" lon="17.974140408851">
        <ele>81</ele>
        <time>2018-03-19T18:14:15Z</time>
      </trkpt>
      <trkpt lat="62.632911152561" lon="17.97419246045">
        <ele>81</ele>
        <time>2018-03-19T18:14:16Z</time>
      </trkpt>
      <trkpt lat="62.632897238607" lon="17.974240321099">
        <ele>81</ele>
        <time>2018-03-19T18:14:17Z</time>
      </trkpt>
      <trkpt lat="62.632881983549" lon="17.974291534508">
        <ele>81.2</ele>
        <time>2018-03-19T18:14:18Z</time>
      </trkpt>
      <trkpt lat="62.632865219749" lon="17.97434249646">
        <ele>81.2</ele>
        <time>2018-03-19T18:14:19Z</time>
      </trkpt>
      <trkpt lat="62.632842923895" lon="17.974392620222">
        <ele>81.4</ele>
        <time>2018-03-19T18:14:20Z</time>
      </trkpt>
      <trkpt lat="62.632822220602" lon="17.974430422591">
        <ele>81.4</ele>
        <time>2018-03-19T18:14:21Z</time>
      </trkpt>
      <trkpt lat="62.632799505653" lon="17.974456909395">
        <ele>81.6</ele>
        <time>2018-03-19T18:14:22Z</time>
      </trkpt>
      <trkpt lat="62.632776203971" lon="17.974472835005">
        <ele>81.4</ele>
        <time>2018-03-19T18:14:23Z</time>
      </trkpt>
      <trkpt lat="62.632745945312" lon="17.974488676796">
        <ele>81.4</ele>
        <time>2018-03-19T18:14:24Z</time>
      </trkpt>
      <trkpt lat="62.632716189567" lon="17.974487084235">
        <ele>81.6</ele>
        <time>2018-03-19T18:14:25Z</time>
      </trkpt>
      <trkpt lat="62.632687272012" lon="17.974476103946">
        <ele>81.4</ele>
        <time>2018-03-19T18:14:26Z</time>
      </trkpt>
      <trkpt lat="62.632665143796" lon="17.974463698734">
        <ele>81.4</ele>
        <time>2018-03-19T18:14:27Z</time>
      </trkpt>
      <trkpt lat="62.632638740811" lon="17.974444336545">
        <ele>81.6</ele>
        <time>2018-03-19T18:14:28Z</time>
      </trkpt>
      <trkpt lat="62.632606302858" lon="17.974428662392">
        <ele>81.6</ele>
        <time>2018-03-19T18:14:29Z</time>
      </trkpt>
      <trkpt lat="62.63257931314" lon="17.974411730954">
        <ele>81.6</ele>
        <time>2018-03-19T18:14:30Z</time>
      </trkpt>
      <trkpt lat="62.632561292055" lon="17.974388010177">
        <ele>81.6</ele>
        <time>2018-03-19T18:14:31Z</time>
      </trkpt>
      <trkpt lat="62.632540085848" lon="17.97436764216">
        <ele>81.6</ele>
        <time>2018-03-19T18:14:32Z</time>
      </trkpt>
      <trkpt lat="62.632518376727" lon="17.974353225292">
        <ele>81.6</ele>
        <time>2018-03-19T18:14:33Z</time>
      </trkpt>
      <trkpt lat="62.63248962681" lon="17.974325062108">
        <ele>81.6</ele>
        <time>2018-03-19T18:14:34Z</time>
      </trkpt>
      <trkpt lat="62.63246615749" lon="17.974295725458">
        <ele>81.6</ele>
        <time>2018-03-19T18:14:35Z</time>
      </trkpt>
      <trkpt lat="62.632439167772" lon="17.974271753224">
        <ele>81.6</ele>
        <time>2018-03-19T18:14:36Z</time>
      </trkpt>
      <trkpt lat="62.632417039556" lon="17.974249960284">
        <ele>81.6</ele>
        <time>2018-03-19T18:14:37Z</time>
      </trkpt>
      <trkpt lat="62.63240077867" lon="17.97422934081">
        <ele>81.6</ele>
        <time>2018-03-19T18:14:38Z</time>
      </trkpt>
      <trkpt lat="62.632385858888" lon="17.974193969192">
        <ele>81.6</ele>
        <time>2018-03-19T18:14:39Z</time>
      </trkpt>
      <trkpt lat="62.632365155595" lon="17.974167985302">
        <ele>81.6</ele>
        <time>2018-03-19T18:14:40Z</time>
      </trkpt>
      <trkpt lat="62.632340680447" lon="17.974146192362">
        <ele>81.4</ele>
        <time>2018-03-19T18:14:41Z</time>
      </trkpt>
      <trkpt lat="62.632310840883" lon="17.974123142137">
        <ele>81.4</ele>
        <time>2018-03-19T18:14:42Z</time>
      </trkpt>
      <trkpt lat="62.632287371563" lon="17.974099756636">
        <ele>81.4</ele>
        <time>2018-03-19T18:14:43Z</time>
      </trkpt>
      <trkpt lat="62.63226331551" lon="17.97407846661">
        <ele>81.4</ele>
        <time>2018-03-19T18:14:44Z</time>
      </trkpt>
      <trkpt lat="62.632230123186" lon="17.97403655711">
        <ele>81.4</ele>
        <time>2018-03-19T18:14:45Z</time>
      </trkpt>
      <trkpt lat="62.632211012454" lon="17.974012752514">
        <ele>81.4</ele>
        <time>2018-03-19T18:14:46Z</time>
      </trkpt>
      <trkpt lat="62.632192656093" lon="17.973994815248">
        <ele>81.4</ele>
        <time>2018-03-19T18:14:47Z</time>
      </trkpt>
      <trkpt lat="62.6321719528" lon="17.973970759195">
        <ele>81.2</ele>
        <time>2018-03-19T18:14:48Z</time>
      </trkpt>
      <trkpt lat="62.632145298358" lon="17.973941757821">
        <ele>81.2</ele>
        <time>2018-03-19T18:14:49Z</time>
      </trkpt>
      <trkpt lat="62.632113447138" lon="17.973913594637">
        <ele>81.2</ele>
        <time>2018-03-19T18:14:50Z</time>
      </trkpt>
      <trkpt lat="62.632083188479" lon="17.973880234675">
        <ele>81.2</ele>
        <time>2018-03-19T18:14:51Z</time>
      </trkpt>
      <trkpt lat="62.632060724987" lon="17.973848970188">
        <ele>81</ele>
        <time>2018-03-19T18:14:52Z</time>
      </trkpt>
      <trkpt lat="62.632041362798" lon="17.973828183076">
        <ele>81</ele>
        <time>2018-03-19T18:14:53Z</time>
      </trkpt>
      <trkpt lat="62.632014875994" lon="17.973791386535">
        <ele>81</ele>
        <time>2018-03-19T18:14:54Z</time>
      </trkpt>
      <trkpt lat="62.631992747778" lon="17.973759367677">
        <ele>80.8</ele>
        <time>2018-03-19T18:14:55Z</time>
      </trkpt>
      <trkpt lat="62.631966428612" lon="17.973729611932">
        <ele>80.8</ele>
        <time>2018-03-19T18:14:56Z</time>
      </trkpt>
      <trkpt lat="62.631941785826" lon="17.973700023825">
        <ele>80.6</ele>
        <time>2018-03-19T18:14:57Z</time>
      </trkpt>
      <trkpt lat="62.631920411981" lon="17.97367026808">
        <ele>80.6</ele>
        <time>2018-03-19T18:14:58Z</time>
      </trkpt>
      <trkpt lat="62.631893589901" lon="17.973634812643">
        <ele>80.4</ele>
        <time>2018-03-19T18:14:59Z</time>
      </trkpt>
      <trkpt lat="62.631864085613" lon="17.973605475993">
        <ele>80.4</ele>
        <time>2018-03-19T18:15:00Z</time>
      </trkpt>
      <trkpt lat="62.631842292673" lon="17.973586113804">
        <ele>80.2</ele>
        <time>2018-03-19T18:15:01Z</time>
      </trkpt>
      <trkpt lat="62.631815302955" lon="17.973555352231">
        <ele>80.2</ele>
        <time>2018-03-19T18:15:02Z</time>
      </trkpt>
      <trkpt lat="62.631796527499" lon="17.973533475472">
        <ele>80.4</ele>
        <time>2018-03-19T18:15:03Z</time>
      </trkpt>
      <trkpt lat="62.6317696216" lon="17.973504809374">
        <ele>80.4</ele>
        <time>2018-03-19T18:15:04Z</time>
      </trkpt>
      <trkpt lat="62.631747158108" lon="17.973472958154">
        <ele>80.2</ele>
        <time>2018-03-19T18:15:05Z</time>
      </trkpt>
      <trkpt lat="62.631722096227" lon="17.973440101106">
        <ele>80.4</ele>
        <time>2018-03-19T18:15:06Z</time>
      </trkpt>
      <trkpt lat="62.631701057658" lon="17.973406992601">
        <ele>80.4</ele>
        <time>2018-03-19T18:15:07Z</time>
      </trkpt>
      <trkpt lat="62.631679683813" lon="17.973373129725">
        <ele>80.4</ele>
        <time>2018-03-19T18:15:08Z</time>
      </trkpt>
      <trkpt lat="62.631654957208" lon="17.973341446143">
        <ele>80.4</ele>
        <time>2018-03-19T18:15:09Z</time>
      </trkpt>
      <trkpt lat="62.631630230603" lon="17.973308756733">
        <ele>80.4</ele>
        <time>2018-03-19T18:15:10Z</time>
      </trkpt>
      <trkpt lat="62.631604749627" lon="17.973266679595">
        <ele>80.4</ele>
        <time>2018-03-19T18:15:11Z</time>
      </trkpt>
      <trkpt lat="62.631581783221" lon="17.973224434819">
        <ele>80.4</ele>
        <time>2018-03-19T18:15:12Z</time>
      </trkpt>
      <trkpt lat="62.631563007765" lon="17.973191829228">
        <ele>80.4</ele>
        <time>2018-03-19T18:15:13Z</time>
      </trkpt>
      <trkpt lat="62.631546243965" lon="17.973142376018">
        <ele>80.4</ele>
        <time>2018-03-19T18:15:14Z</time>
      </trkpt>
      <trkpt lat="62.631527049414" lon="17.973096610844">
        <ele>80.4</ele>
        <time>2018-03-19T18:15:15Z</time>
      </trkpt>
      <trkpt lat="62.631507938682" lon="17.973059311389">
        <ele>80.2</ele>
        <time>2018-03-19T18:15:16Z</time>
      </trkpt>
      <trkpt lat="62.63148631338" lon="17.973022263391">
        <ele>80</ele>
        <time>2018-03-19T18:15:17Z</time>
      </trkpt>
      <trkpt lat="62.631469801037" lon="17.972982449366">
        <ele>79.8</ele>
        <time>2018-03-19T18:15:18Z</time>
      </trkpt>
      <trkpt lat="62.631452282866" lon="17.972935594545">
        <ele>79.6</ele>
        <time>2018-03-19T18:15:19Z</time>
      </trkpt>
      <trkpt lat="62.631437446903" lon="17.972883123851">
        <ele>79.2</ele>
        <time>2018-03-19T18:15:20Z</time>
      </trkpt>
      <trkpt lat="62.631421521293" lon="17.972834425012">
        <ele>79</ele>
        <time>2018-03-19T18:15:21Z</time>
      </trkpt>
      <trkpt lat="62.631404338398" lon="17.972790839132">
        <ele>78.8</ele>
        <time>2018-03-19T18:15:22Z</time>
      </trkpt>
      <trkpt lat="62.631392017005" lon="17.972753372039">
        <ele>78.8</ele>
        <time>2018-03-19T18:15:23Z</time>
      </trkpt>
      <trkpt lat="62.631371732807" lon="17.972696961852">
        <ele>78.4</ele>
        <time>2018-03-19T18:15:24Z</time>
      </trkpt>
      <trkpt lat="62.631362680355" lon="17.972653962705">
        <ele>78.2</ele>
        <time>2018-03-19T18:15:25Z</time>
      </trkpt>
      <trkpt lat="62.631349436953" lon="17.972613729585">
        <ele>78</ele>
        <time>2018-03-19T18:15:26Z</time>
      </trkpt>
      <trkpt lat="62.631332840791" lon="17.97256469547">
        <ele>78</ele>
        <time>2018-03-19T18:15:27Z</time>
      </trkpt>
      <trkpt lat="62.631316496086" lon="17.972519014115">
        <ele>77.8</ele>
        <time>2018-03-19T18:15:28Z</time>
      </trkpt>
      <trkpt lat="62.631301157209" lon="17.972474422407">
        <ele>77.4</ele>
        <time>2018-03-19T18:15:29Z</time>
      </trkpt>
      <trkpt lat="62.631280873011" lon="17.97242471774">
        <ele>77.4</ele>
        <time>2018-03-19T18:15:30Z</time>
      </trkpt>
      <trkpt lat="62.631263690116" lon="17.97237191177">
        <ele>77.4</ele>
        <time>2018-03-19T18:15:31Z</time>
      </trkpt>
      <trkpt lat="62.631246004307" lon="17.972331427193">
        <ele>77.2</ele>
        <time>2018-03-19T18:15:32Z</time>
      </trkpt>
      <trkpt lat="62.63123234181" lon="17.972288847141">
        <ele>77.2</ele>
        <time>2018-03-19T18:15:33Z</time>
      </trkpt>
      <trkpt lat="62.631213314897" lon="17.972234029515">
        <ele>77.2</ele>
        <time>2018-03-19T18:15:34Z</time>
      </trkpt>
      <trkpt lat="62.631205352092" lon="17.972198657897">
        <ele>77.2</ele>
        <time>2018-03-19T18:15:35Z</time>
      </trkpt>
      <trkpt lat="62.631186492817" lon="17.97213805676">
        <ele>77</ele>
        <time>2018-03-19T18:15:36Z</time>
      </trkpt>
      <trkpt lat="62.63117199213" lon="17.972082652401">
        <ele>76.8</ele>
        <time>2018-03-19T18:15:37Z</time>
      </trkpt>
      <trkpt lat="62.631160089832" lon="17.97204417948">
        <ele>76.6</ele>
        <time>2018-03-19T18:15:38Z</time>
      </trkpt>
      <trkpt lat="62.631143661308" lon="17.971992546976">
        <ele>76.4</ele>
        <time>2018-03-19T18:15:39Z</time>
      </trkpt>
      <trkpt lat="62.631129495897" lon="17.971933454581">
        <ele>76.2</ele>
        <time>2018-03-19T18:15:40Z</time>
      </trkpt>
      <trkpt lat="62.631120527264" lon="17.971883247">
        <ele>76.2</ele>
        <time>2018-03-19T18:15:41Z</time>
      </trkpt>
      <trkpt lat="62.63111080426" lon="17.971830357211">
        <ele>76.4</ele>
        <time>2018-03-19T18:15:42Z</time>
      </trkpt>
      <trkpt lat="62.631099237238" lon="17.971782748019">
        <ele>76.4</ele>
        <time>2018-03-19T18:15:43Z</time>
      </trkpt>
      <trkpt lat="62.631078282488" lon="17.971734300637">
        <ele>76.6</ele>
        <time>2018-03-19T18:15:44Z</time>
      </trkpt>
      <trkpt lat="62.631063949439" lon="17.971687445816">
        <ele>76.6</ele>
        <time>2018-03-19T18:15:45Z</time>
      </trkpt>
      <trkpt lat="62.631051711865" lon="17.971629694525">
        <ele>76.6</ele>
        <time>2018-03-19T18:15:46Z</time>
      </trkpt>
      <trkpt lat="62.631042407956" lon="17.971582504428">
        <ele>76.4</ele>
        <time>2018-03-19T18:15:47Z</time>
      </trkpt>
      <trkpt lat="62.6310320144" lon="17.971530033734">
        <ele>76.4</ele>
        <time>2018-03-19T18:15:48Z</time>
      </trkpt>
      <trkpt lat="62.631024973604" lon="17.971461888887">
        <ele>76.4</ele>
        <time>2018-03-19T18:15:49Z</time>
      </trkpt>
      <trkpt lat="62.631017513713" lon="17.971408999098">
        <ele>76</ele>
        <time>2018-03-19T18:15:50Z</time>
      </trkpt>
      <trkpt lat="62.631007874528" lon="17.971350744893">
        <ele>76</ele>
        <time>2018-03-19T18:15:51Z</time>
      </trkpt>
      <trkpt lat="62.631002426293" lon="17.971295089077">
        <ele>75.6</ele>
        <time>2018-03-19T18:15:52Z</time>
      </trkpt>
      <trkpt lat="62.630994631126" lon="17.971247228428">
        <ele>75.4</ele>
        <time>2018-03-19T18:15:53Z</time>
      </trkpt>
      <trkpt lat="62.630988177063" lon="17.971185118549">
        <ele>75</ele>
        <time>2018-03-19T18:15:54Z</time>
      </trkpt>
      <trkpt lat="62.630978286421" lon="17.971120158824">
        <ele>74.8</ele>
        <time>2018-03-19T18:15:55Z</time>
      </trkpt>
      <trkpt lat="62.630973424919" lon="17.971066766121">
        <ele>74.6</ele>
        <time>2018-03-19T18:15:56Z</time>
      </trkpt>
      <trkpt lat="62.630968228141" lon="17.971006919355">
        <ele>74.4</ele>
        <time>2018-03-19T18:15:57Z</time>
      </trkpt>
      <trkpt lat="62.630962863725" lon="17.970953861928">
        <ele>74.4</ele>
        <time>2018-03-19T18:15:58Z</time>
      </trkpt>
      <trkpt lat="62.630957750766" lon="17.970896613551">
        <ele>74.4</ele>
        <time>2018-03-19T18:15:59Z</time>
      </trkpt>
      <trkpt lat="62.630948027762" lon="17.970836431509">
        <ele>74.2</ele>
        <time>2018-03-19T18:16:00Z</time>
      </trkpt>
      <trkpt lat="62.630938304758" lon="17.970776081829">
        <ele>74.2</ele>
        <time>2018-03-19T18:16:01Z</time>
      </trkpt>
      <trkpt lat="62.630934281446" lon="17.970717827624">
        <ele>74</ele>
        <time>2018-03-19T18:16:02Z</time>
      </trkpt>
      <trkpt lat="62.630930006677" lon="17.97066619512">
        <ele>74</ele>
        <time>2018-03-19T18:16:03Z</time>
      </trkpt>
      <trkpt lat="62.63092053513" lon="17.970600313386">
        <ele>74</ele>
        <time>2018-03-19T18:16:04Z</time>
      </trkpt>
      <trkpt lat="62.630917014732" lon="17.970570725279">
        <ele>74</ele>
        <time>2018-03-19T18:16:05Z</time>
      </trkpt>
      <trkpt lat="62.630901759674" lon="17.97048933703">
        <ele>73.8</ele>
        <time>2018-03-19T18:16:06Z</time>
      </trkpt>
      <trkpt lat="62.630893126317" lon="17.970434519404">
        <ele>73.8</ele>
        <time>2018-03-19T18:16:07Z</time>
      </trkpt>
      <trkpt lat="62.630883319494" lon="17.970385988203">
        <ele>73.6</ele>
        <time>2018-03-19T18:16:08Z</time>
      </trkpt>
      <trkpt lat="62.630872003929" lon="17.970319435917">
        <ele>73.2</ele>
        <time>2018-03-19T18:16:09Z</time>
      </trkpt>
      <trkpt lat="62.63086102364" lon="17.970282052643">
        <ele>73.2</ele>
        <time>2018-03-19T18:16:10Z</time>
      </trkpt>
      <trkpt lat="62.630845181849" lon="17.970264785929">
        <ele>73.2</ele>
        <time>2018-03-19T18:16:11Z</time>
      </trkpt>
      <trkpt lat="62.630815007009" lon="17.970256739305">
        <ele>73</ele>
        <time>2018-03-19T18:16:12Z</time>
      </trkpt>
      <trkpt lat="62.630789861309" lon="17.970264283015">
        <ele>73</ele>
        <time>2018-03-19T18:16:13Z</time>
      </trkpt>
      <trkpt lat="62.630765134704" lon="17.970286159774">
        <ele>73</ele>
        <time>2018-03-19T18:16:14Z</time>
      </trkpt>
      <trkpt lat="62.630740072823" lon="17.970293284389">
        <ele>72.8</ele>
        <time>2018-03-19T18:16:15Z</time>
      </trkpt>
      <trkpt lat="62.630715513856" lon="17.970298564986">
        <ele>72.8</ele>
        <time>2018-03-19T18:16:16Z</time>
      </trkpt>
      <trkpt lat="62.630691876898" lon="17.970299654633">
        <ele>72.6</ele>
        <time>2018-03-19T18:16:17Z</time>
      </trkpt>
      <trkpt lat="62.630669329587" lon="17.970299151719">
        <ele>72.6</ele>
        <time>2018-03-19T18:16:18Z</time>
      </trkpt>
      <trkpt lat="62.630646363181" lon="17.970306192515">
        <ele>72.6</ele>
        <time>2018-03-19T18:16:19Z</time>
      </trkpt>
      <trkpt lat="62.630622223309" lon="17.970312143664">
        <ele>72.6</ele>
        <time>2018-03-19T18:16:20Z</time>
      </trkpt>
      <trkpt lat="62.630593054297" lon="17.970313820044">
        <ele>72.8</ele>
        <time>2018-03-19T18:16:21Z</time>
      </trkpt>
      <trkpt lat="62.630568327692" lon="17.970304767592">
        <ele>72.8</ele>
        <time>2018-03-19T18:16:22Z</time>
      </trkpt>
      <trkpt lat="62.630545445105" lon="17.970289680172">
        <ele>72.8</ele>
        <time>2018-03-19T18:16:23Z</time>
      </trkpt>
      <trkpt lat="62.630518958301" lon="17.970252548355">
        <ele>73</ele>
        <time>2018-03-19T18:16:24Z</time>
      </trkpt>
      <trkpt lat="62.630507642736" lon="17.970202005498">
        <ele>73</ele>
        <time>2018-03-19T18:16:25Z</time>
      </trkpt>
      <trkpt lat="62.630500182845" lon="17.970143416017">
        <ele>73.2</ele>
        <time>2018-03-19T18:16:26Z</time>
      </trkpt>
      <trkpt lat="62.630494399334" lon="17.970088849848">
        <ele>73.2</ele>
        <time>2018-03-19T18:16:27Z</time>
      </trkpt>
      <trkpt lat="62.63049473461" lon="17.970046688891">
        <ele>73</ele>
        <time>2018-03-19T18:16:28Z</time>
      </trkpt>
      <trkpt lat="62.630495237524" lon="17.969994134378">
        <ele>73</ele>
        <time>2018-03-19T18:16:29Z</time>
      </trkpt>
      <trkpt lat="62.63049054366" lon="17.96993613163">
        <ele>72.8</ele>
        <time>2018-03-19T18:16:30Z</time>
      </trkpt>
      <trkpt lat="62.630483754321" lon="17.969893635397">
        <ele>72.6</ele>
        <time>2018-03-19T18:16:31Z</time>
      </trkpt>
      <trkpt lat="62.630476042973" lon="17.969834543002">
        <ele>72.6</ele>
        <time>2018-03-19T18:16:32Z</time>
      </trkpt>
      <trkpt lat="62.630471852023" lon="17.96978944838">
        <ele>72.6</ele>
        <time>2018-03-19T18:16:33Z</time>
      </trkpt>
      <trkpt lat="62.630462380476" lon="17.969735049849">
        <ele>72.2</ele>
        <time>2018-03-19T18:16:34Z</time>
      </trkpt>
      <trkpt lat="62.630452657472" lon="17.969692637435">
        <ele>72.2</ele>
        <time>2018-03-19T18:16:35Z</time>
      </trkpt>
      <trkpt lat="62.630439749346" lon="17.969640585836">
        <ele>72.2</ele>
        <time>2018-03-19T18:16:36Z</time>
      </trkpt>
      <trkpt lat="62.630425583935" lon="17.969597251413">
        <ele>72</ele>
        <time>2018-03-19T18:16:37Z</time>
      </trkpt>
      <trkpt lat="62.630416447664" lon="17.969562215071">
        <ele>71.8</ele>
        <time>2018-03-19T18:16:38Z</time>
      </trkpt>
      <trkpt lat="62.630404713004" lon="17.969524161245">
        <ele>71.6</ele>
        <time>2018-03-19T18:16:39Z</time>
      </trkpt>
      <trkpt lat="62.630389541765" lon="17.96949608188">
        <ele>71.6</ele>
        <time>2018-03-19T18:16:40Z</time>
      </trkpt>
      <trkpt lat="62.630383674435" lon="17.969479569537">
        <ele>71.6</ele>
        <time>2018-03-19T18:16:41Z</time>
      </trkpt>
      <trkpt lat="62.630373113241" lon="17.96946842161">
        <ele>71.6</ele>
        <time>2018-03-19T18:16:42Z</time>
      </trkpt>
      <trkpt lat="62.630378393838" lon="17.969474791854">
        <ele>71.6</ele>
        <time>2018-03-19T18:16:43Z</time>
      </trkpt>
      <trkpt lat="62.630374454345" lon="17.969474456578">
        <ele>71.8</ele>
        <time>2018-03-19T18:16:44Z</time>
      </trkpt>
      <trkpt lat="62.630375543992" lon="17.969474372759">
        <ele>71.8</ele>
        <time>2018-03-19T18:16:45Z</time>
      </trkpt>
      <trkpt lat="62.630379651123" lon="17.969472444922">
        <ele>71.6</ele>
        <time>2018-03-19T18:16:46Z</time>
      </trkpt>
      <trkpt lat="62.630378477657" lon="17.969473199293">
        <ele>71.6</ele>
        <time>2018-03-19T18:16:47Z</time>
      </trkpt>
      <trkpt lat="62.630427176496" lon="17.969794980434">
        <ele>71.4</ele>
        <time>2018-03-19T18:17:36Z</time>
      </trkpt>
      <trkpt lat="62.630430277799" lon="17.969828675672">
        <ele>71.4</ele>
        <time>2018-03-19T18:17:37Z</time>
      </trkpt>
      <trkpt lat="62.630434301111" lon="17.969878715615">
        <ele>71.4</ele>
        <time>2018-03-19T18:17:38Z</time>
      </trkpt>
      <trkpt lat="62.630438072966" lon="17.969927665911">
        <ele>71.6</ele>
        <time>2018-03-19T18:17:39Z</time>
      </trkpt>
      <trkpt lat="62.630441174269" lon="17.969972676714">
        <ele>71.8</ele>
        <time>2018-03-19T18:17:40Z</time>
      </trkpt>
      <trkpt lat="62.630447209237" lon="17.970024560675">
        <ele>72</ele>
        <time>2018-03-19T18:17:41Z</time>
      </trkpt>
      <trkpt lat="62.630460955553" lon="17.970067643641">
        <ele>72.2</ele>
        <time>2018-03-19T18:17:42Z</time>
      </trkpt>
      <trkpt lat="62.63047377986" lon="17.970093962807">
        <ele>72.4</ele>
        <time>2018-03-19T18:17:43Z</time>
      </trkpt>
      <trkpt lat="62.630494902248" lon="17.970123970009">
        <ele>72.8</ele>
        <time>2018-03-19T18:17:44Z</time>
      </trkpt>
      <trkpt lat="62.630524406536" lon="17.970125730208">
        <ele>73.2</ele>
        <time>2018-03-19T18:17:45Z</time>
      </trkpt>
      <trkpt lat="62.630544858372" lon="17.970118437955">
        <ele>75.8</ele>
        <time>2018-03-19T18:17:46Z</time>
      </trkpt>
      <trkpt lat="62.63056178981" lon="17.970116761575">
        <ele>76</ele>
        <time>2018-03-19T18:17:47Z</time>
      </trkpt>
      <trkpt lat="62.630583331293" lon="17.970113324996">
        <ele>75.6</ele>
        <time>2018-03-19T18:17:48Z</time>
      </trkpt>
      <trkpt lat="62.630607135889" lon="17.970103685811">
        <ele>75.4</ele>
        <time>2018-03-19T18:17:49Z</time>
      </trkpt>
      <trkpt lat="62.630631275761" lon="17.970098153757">
        <ele>74.8</ele>
        <time>2018-03-19T18:17:50Z</time>
      </trkpt>
      <trkpt lat="62.630656086185" lon="17.970090274771">
        <ele>72.2</ele>
        <time>2018-03-19T18:17:51Z</time>
      </trkpt>
      <trkpt lat="62.630680561333" lon="17.97007778574">
        <ele>72.4</ele>
        <time>2018-03-19T18:17:52Z</time>
      </trkpt>
      <trkpt lat="62.630703360101" lon="17.970076444636">
        <ele>72.2</ele>
        <time>2018-03-19T18:17:53Z</time>
      </trkpt>
      <trkpt lat="62.630729846905" lon="17.970073008057">
        <ele>72.2</ele>
        <time>2018-03-19T18:17:54Z</time>
      </trkpt>
      <trkpt lat="62.630750047284" lon="17.970067140727">
        <ele>72.4</ele>
        <time>2018-03-19T18:17:55Z</time>
      </trkpt>
      <trkpt lat="62.630772007862" lon="17.97006688927">
        <ele>72.4</ele>
        <time>2018-03-19T18:17:56Z</time>
      </trkpt>
      <trkpt lat="62.63078474835" lon="17.970072421324">
        <ele>72.4</ele>
        <time>2018-03-19T18:17:57Z</time>
      </trkpt>
      <trkpt lat="62.630799751951" lon="17.970081473776">
        <ele>72.2</ele>
        <time>2018-03-19T18:17:58Z</time>
      </trkpt>
      <trkpt lat="62.630810396964" lon="17.970090107133">
        <ele>72.4</ele>
        <time>2018-03-19T18:17:59Z</time>
      </trkpt>
      <trkpt lat="62.630819197959" lon="17.970107373847">
        <ele>72.2</ele>
        <time>2018-03-19T18:18:00Z</time>
      </trkpt>
      <trkpt lat="62.630827160764" lon="17.970113157358">
        <ele>72.2</ele>
        <time>2018-03-19T18:18:01Z</time>
      </trkpt>
      <trkpt lat="62.63083587794" lon="17.970115085195">
        <ele>72.2</ele>
        <time>2018-03-19T18:18:02Z</time>
      </trkpt>
      <trkpt lat="62.630831519352" lon="17.970113492634">
        <ele>72.2</ele>
        <time>2018-03-19T18:18:03Z</time>
      </trkpt>
      <trkpt lat="62.630831435533" lon="17.970113157358">
        <ele>72</ele>
        <time>2018-03-19T18:18:04Z</time>
      </trkpt>
      <trkpt lat="62.631165621886" lon="17.969963875719">
        <ele>72.2</ele>
        <time>2018-03-19T18:20:52Z</time>
      </trkpt>
      <trkpt lat="62.631188839749" lon="17.969949291213">
        <ele>72</ele>
        <time>2018-03-19T18:20:53Z</time>
      </trkpt>
      <trkpt lat="62.631229911059" lon="17.969927246816">
        <ele>71.6</ele>
        <time>2018-03-19T18:20:54Z</time>
      </trkpt>
      <trkpt lat="62.631263103383" lon="17.969909644826">
        <ele>71.4</ele>
        <time>2018-03-19T18:20:55Z</time>
      </trkpt>
      <trkpt lat="62.631289003454" lon="17.969889863542">
        <ele>71.4</ele>
        <time>2018-03-19T18:20:56Z</time>
      </trkpt>
      <trkpt lat="62.631320854674" lon="17.969879553805">
        <ele>71.6</ele>
        <time>2018-03-19T18:20:57Z</time>
      </trkpt>
      <trkpt lat="62.631346838564" lon="17.96986656186">
        <ele>71.4</ele>
        <time>2018-03-19T18:20:58Z</time>
      </trkpt>
      <trkpt lat="62.631375337024" lon="17.969848876051">
        <ele>71.2</ele>
        <time>2018-03-19T18:20:59Z</time>
      </trkpt>
      <trkpt lat="62.631407607339" lon="17.969834375364">
        <ele>71.2</ele>
        <time>2018-03-19T18:21:00Z</time>
      </trkpt>
      <trkpt lat="62.631434513238" lon="17.969820209953">
        <ele>71</ele>
        <time>2018-03-19T18:21:01Z</time>
      </trkpt>
      <trkpt lat="62.631465777725" lon="17.969806966551">
        <ele>71</ele>
        <time>2018-03-19T18:21:02Z</time>
      </trkpt>
      <trkpt lat="62.631492432167" lon="17.969792046769">
        <ele>70.8</ele>
        <time>2018-03-19T18:21:03Z</time>
      </trkpt>
      <trkpt lat="62.631526295043" lon="17.969779306281">
        <ele>70.6</ele>
        <time>2018-03-19T18:21:04Z</time>
      </trkpt>
      <trkpt lat="62.631552446571" lon="17.969766901069">
        <ele>70.6</ele>
        <time>2018-03-19T18:21:05Z</time>
      </trkpt>
      <trkpt lat="62.631584130153" lon="17.969747035966">
        <ele>70.8</ele>
        <time>2018-03-19T18:21:06Z</time>
      </trkpt>
      <trkpt lat="62.631616065192" lon="17.969721974085">
        <ele>70.8</ele>
        <time>2018-03-19T18:21:07Z</time>
      </trkpt>
      <trkpt lat="62.631642468177" lon="17.969696744566">
        <ele>70.6</ele>
        <time>2018-03-19T18:21:08Z</time>
      </trkpt>
      <trkpt lat="62.631672056284" lon="17.969663300785">
        <ele>70.2</ele>
        <time>2018-03-19T18:21:09Z</time>
      </trkpt>
      <trkpt lat="62.631698710726" lon="17.969632455393">
        <ele>70.2</ele>
        <time>2018-03-19T18:21:10Z</time>
      </trkpt>
      <trkpt lat="62.631723940245" lon="17.969600771811">
        <ele>69.6</ele>
        <time>2018-03-19T18:21:11Z</time>
      </trkpt>
      <trkpt lat="62.631760233872" lon="17.969585097658">
        <ele>69.4</ele>
        <time>2018-03-19T18:21:12Z</time>
      </trkpt>
      <trkpt lat="62.631787475047" lon="17.969565903107">
        <ele>69.2</ele>
        <time>2018-03-19T18:21:13Z</time>
      </trkpt>
      <trkpt lat="62.631820918828" lon="17.969553833171">
        <ele>69</ele>
        <time>2018-03-19T18:21:14Z</time>
      </trkpt>
      <trkpt lat="62.631845813071" lon="17.969550648049">
        <ele>69</ele>
        <time>2018-03-19T18:21:15Z</time>
      </trkpt>
      <trkpt lat="62.631873389522" lon="17.969554503723">
        <ele>69.2</ele>
        <time>2018-03-19T18:21:16Z</time>
      </trkpt>
      <trkpt lat="62.631900211602" lon="17.969549642221">
        <ele>69.4</ele>
        <time>2018-03-19T18:21:17Z</time>
      </trkpt>
      <trkpt lat="62.631925608759" lon="17.969539751579">
        <ele>69.4</ele>
        <time>2018-03-19T18:21:18Z</time>
      </trkpt>
      <trkpt lat="62.631962237662" lon="17.969539500122">
        <ele>69.6</ele>
        <time>2018-03-19T18:21:19Z</time>
      </trkpt>
      <trkpt lat="62.631989981751" lon="17.969540757407">
        <ele>69.6</ele>
        <time>2018-03-19T18:21:20Z</time>
      </trkpt>
      <trkpt lat="62.63201940222" lon="17.969531956412">
        <ele>69.8</ele>
        <time>2018-03-19T18:21:21Z</time>
      </trkpt>
      <trkpt lat="62.632045805205" lon="17.969534722439">
        <ele>70</ele>
        <time>2018-03-19T18:21:22Z</time>
      </trkpt>
      <trkpt lat="62.632071118543" lon="17.969535225353">
        <ele>70.2</ele>
        <time>2018-03-19T18:21:23Z</time>
      </trkpt>
      <trkpt lat="62.632106238704" lon="17.96953547681">
        <ele>70.6</ele>
        <time>2018-03-19T18:21:24Z</time>
      </trkpt>
      <trkpt lat="62.632135994449" lon="17.96953128586">
        <ele>70.6</ele>
        <time>2018-03-19T18:21:25Z</time>
      </trkpt>
      <trkpt lat="62.632166169289" lon="17.969525502349">
        <ele>70.6</ele>
        <time>2018-03-19T18:21:26Z</time>
      </trkpt>
      <trkpt lat="62.632198104328" lon="17.969524412702">
        <ele>70.8</ele>
        <time>2018-03-19T18:21:27Z</time>
      </trkpt>
      <trkpt lat="62.63222308239" lon="17.969514102965">
        <ele>70.8</ele>
        <time>2018-03-19T18:21:28Z</time>
      </trkpt>
      <trkpt lat="62.632254598334" lon="17.969507732721">
        <ele>70.4</ele>
        <time>2018-03-19T18:21:29Z</time>
      </trkpt>
      <trkpt lat="62.632285611364" lon="17.969508151816">
        <ele>70.2</ele>
        <time>2018-03-19T18:21:30Z</time>
      </trkpt>
      <trkpt lat="62.632316037661" lon="17.969503960866">
        <ele>70.2</ele>
        <time>2018-03-19T18:21:31Z</time>
      </trkpt>
      <trkpt lat="62.632346715415" lon="17.969503541771">
        <ele>70.4</ele>
        <time>2018-03-19T18:21:32Z</time>
      </trkpt>
      <trkpt lat="62.63237395659" lon="17.969501362477">
        <ele>70.4</ele>
        <time>2018-03-19T18:21:33Z</time>
      </trkpt>
      <trkpt lat="62.632408490018" lon="17.969503374133">
        <ele>70.4</ele>
        <time>2018-03-19T18:21:34Z</time>
      </trkpt>
      <trkpt lat="62.63243346808" lon="17.969504882875">
        <ele>70.6</ele>
        <time>2018-03-19T18:21:35Z</time>
      </trkpt>
      <trkpt lat="62.632469342612" lon="17.969509073825">
        <ele>70.4</ele>
        <time>2018-03-19T18:21:36Z</time>
      </trkpt>
      <trkpt lat="62.632501110013" lon="17.969514857336">
        <ele>70.2</ele>
        <time>2018-03-19T18:21:37Z</time>
      </trkpt>
      <trkpt lat="62.632527010084" lon="17.969513348594">
        <ele>70</ele>
        <time>2018-03-19T18:21:38Z</time>
      </trkpt>
      <trkpt lat="62.632558442209" lon="17.969518629191">
        <ele>70</ele>
        <time>2018-03-19T18:21:39Z</time>
      </trkpt>
      <trkpt lat="62.632585515746" lon="17.969521730494">
        <ele>69.8</ele>
        <time>2018-03-19T18:21:40Z</time>
      </trkpt>
      <trkpt lat="62.632615271491" lon="17.969525837625">
        <ele>69.6</ele>
        <time>2018-03-19T18:21:41Z</time>
      </trkpt>
      <trkpt lat="62.632645362512" lon="17.969529944756">
        <ele>69.8</ele>
        <time>2018-03-19T18:21:42Z</time>
      </trkpt>
      <trkpt lat="62.632670508212" lon="17.969532710783">
        <ele>70</ele>
        <time>2018-03-19T18:21:43Z</time>
      </trkpt>
      <trkpt lat="62.632700599233" lon="17.969528603652">
        <ele>70.2</ele>
        <time>2018-03-19T18:21:44Z</time>
      </trkpt>
      <trkpt lat="62.632725744933" lon="17.969524245064">
        <ele>70.4</ele>
        <time>2018-03-19T18:21:45Z</time>
      </trkpt>
      <trkpt lat="62.632753740479" lon="17.969533213697">
        <ele>70.4</ele>
        <time>2018-03-19T18:21:46Z</time>
      </trkpt>
      <trkpt lat="62.632776120152" lon="17.96953044767">
        <ele>70.6</ele>
        <time>2018-03-19T18:21:47Z</time>
      </trkpt>
      <trkpt lat="62.632802942232" lon="17.969524915616">
        <ele>70.6</ele>
        <time>2018-03-19T18:21:48Z</time>
      </trkpt>
      <trkpt lat="62.632829512855" lon="17.969524915616">
        <ele>70.8</ele>
        <time>2018-03-19T18:21:49Z</time>
      </trkpt>
      <trkpt lat="62.632852982175" lon="17.969525250892">
        <ele>71</ele>
        <time>2018-03-19T18:21:50Z</time>
      </trkpt>
      <trkpt lat="62.632881648273" lon="17.969530615308">
        <ele>70.4</ele>
        <time>2018-03-19T18:21:51Z</time>
      </trkpt>
      <trkpt lat="62.632908637991" lon="17.969534890077">
        <ele>70.6</ele>
        <time>2018-03-19T18:21:52Z</time>
      </trkpt>
      <trkpt lat="62.632934454243" lon="17.969537404647">
        <ele>70.8</ele>
        <time>2018-03-19T18:21:53Z</time>
      </trkpt>
      <trkpt lat="62.632965886368" lon="17.969538410475">
        <ele>71</ele>
        <time>2018-03-19T18:21:54Z</time>
      </trkpt>
      <trkpt lat="62.632993211362" lon="17.969542266149">
        <ele>71.4</ele>
        <time>2018-03-19T18:21:55Z</time>
      </trkpt>
      <trkpt lat="62.633023218564" lon="17.96955056423">
        <ele>72.2</ele>
        <time>2018-03-19T18:21:56Z</time>
      </trkpt>
      <trkpt lat="62.633048531902" lon="17.969555090456">
        <ele>72.6</ele>
        <time>2018-03-19T18:21:57Z</time>
      </trkpt>
      <trkpt lat="62.633075856896" lon="17.969566992754">
        <ele>72.8</ele>
        <time>2018-03-19T18:21:58Z</time>
      </trkpt>
      <trkpt lat="62.633103433347" lon="17.969574452645">
        <ele>72.8</ele>
        <time>2018-03-19T18:21:59Z</time>
      </trkpt>
      <trkpt lat="62.633135703662" lon="17.969577218672">
        <ele>72.2</ele>
        <time>2018-03-19T18:22:00Z</time>
      </trkpt>
      <trkpt lat="62.633167135787" lon="17.969588031323">
        <ele>72.2</ele>
        <time>2018-03-19T18:22:01Z</time>
      </trkpt>
      <trkpt lat="62.633191610935" lon="17.969599849802">
        <ele>72</ele>
        <time>2018-03-19T18:22:02Z</time>
      </trkpt>
      <trkpt lat="62.63321885211" lon="17.969612338833">
        <ele>72</ele>
        <time>2018-03-19T18:22:03Z</time>
      </trkpt>
      <trkpt lat="62.633248272579" lon="17.96962432495">
        <ele>71.8</ele>
        <time>2018-03-19T18:22:04Z</time>
      </trkpt>
      <trkpt lat="62.633264198189" lon="17.969629857004">
        <ele>71.8</ele>
        <time>2018-03-19T18:22:05Z</time>
      </trkpt>
      <trkpt lat="62.633299988902" lon="17.969655254161">
        <ele>72</ele>
        <time>2018-03-19T18:22:06Z</time>
      </trkpt>
      <trkpt lat="62.633320189281" lon="17.969683417345">
        <ele>71.8</ele>
        <time>2018-03-19T18:22:07Z</time>
      </trkpt>
      <trkpt lat="62.633338629461" lon="17.969716442031">
        <ele>71.8</ele>
        <time>2018-03-19T18:22:08Z</time>
      </trkpt>
      <trkpt lat="62.63335128613" lon="17.969773019856">
        <ele>71.8</ele>
        <time>2018-03-19T18:22:09Z</time>
      </trkpt>
      <trkpt lat="62.63335715346" lon="17.969832279889">
        <ele>71.4</ele>
        <time>2018-03-19T18:22:10Z</time>
      </trkpt>
      <trkpt lat="62.633366457369" lon="17.969900843831">
        <ele>71.6</ele>
        <time>2018-03-19T18:22:11Z</time>
      </trkpt>
      <trkpt lat="62.63337307907" lon="17.969960020045">
        <ele>71.8</ele>
        <time>2018-03-19T18:22:12Z</time>
      </trkpt>
      <trkpt lat="62.633370815957" lon="17.970019531535">
        <ele>72.4</ele>
        <time>2018-03-19T18:22:13Z</time>
      </trkpt>
      <trkpt lat="62.63337391726" lon="17.970084072165">
        <ele>72.8</ele>
        <time>2018-03-19T18:22:14Z</time>
      </trkpt>
      <trkpt lat="62.633378694943" lon="17.970146852596">
        <ele>73.2</ele>
        <time>2018-03-19T18:22:15Z</time>
      </trkpt>
      <trkpt lat="62.633381628608" lon="17.970200412937">
        <ele>73.8</ele>
        <time>2018-03-19T18:22:16Z</time>
      </trkpt>
      <trkpt lat="62.633391686888" lon="17.9702487765">
        <ele>74</ele>
        <time>2018-03-19T18:22:17Z</time>
      </trkpt>
      <trkpt lat="62.633400571702" lon="17.970309377637">
        <ele>74</ele>
        <time>2018-03-19T18:22:18Z</time>
      </trkpt>
      <trkpt lat="62.633404846471" lon="17.970369811136">
        <ele>74.4</ele>
        <time>2018-03-19T18:22:19Z</time>
      </trkpt>
      <trkpt lat="62.633407193403" lon="17.970426137504">
        <ele>75</ele>
        <time>2018-03-19T18:22:20Z</time>
      </trkpt>
      <trkpt lat="62.633407947774" lon="17.970487995926">
        <ele>75</ele>
        <time>2018-03-19T18:22:21Z</time>
      </trkpt>
      <trkpt lat="62.633410378525" lon="17.970540885715">
        <ele>75.4</ele>
        <time>2018-03-19T18:22:22Z</time>
      </trkpt>
      <trkpt lat="62.633409875611" lon="17.970593524047">
        <ele>75.6</ele>
        <time>2018-03-19T18:22:23Z</time>
      </trkpt>
      <trkpt lat="62.633410127068" lon="17.970656304478">
        <ele>75.8</ele>
        <time>2018-03-19T18:22:24Z</time>
      </trkpt>
      <trkpt lat="62.633411300534" lon="17.970705506231">
        <ele>75.6</ele>
        <time>2018-03-19T18:22:25Z</time>
      </trkpt>
      <trkpt lat="62.633412725457" lon="17.970766526463">
        <ele>75.4</ele>
        <time>2018-03-19T18:22:26Z</time>
      </trkpt>
      <trkpt lat="62.633415156208" lon="17.970817991329">
        <ele>75.6</ele>
        <time>2018-03-19T18:22:27Z</time>
      </trkpt>
      <trkpt lat="62.633417167864" lon="17.970871970765">
        <ele>75.6</ele>
        <time>2018-03-19T18:22:28Z</time>
      </trkpt>
      <trkpt lat="62.633417670778" lon="17.970930057332">
        <ele>75.6</ele>
        <time>2018-03-19T18:22:29Z</time>
      </trkpt>
      <trkpt lat="62.633419263339" lon="17.970985210234">
        <ele>75.8</ele>
        <time>2018-03-19T18:22:30Z</time>
      </trkpt>
      <trkpt lat="62.633418928063" lon="17.971045392276">
        <ele>76</ele>
        <time>2018-03-19T18:22:31Z</time>
      </trkpt>
      <trkpt lat="62.633420352986" lon="17.971103478843">
        <ele>76.4</ele>
        <time>2018-03-19T18:22:32Z</time>
      </trkpt>
      <trkpt lat="62.633418257511" lon="17.971150501302">
        <ele>77</ele>
        <time>2018-03-19T18:22:33Z</time>
      </trkpt>
      <trkpt lat="62.633418006054" lon="17.971218059416">
        <ele>77.2</ele>
        <time>2018-03-19T18:22:34Z</time>
      </trkpt>
      <trkpt lat="62.633417754597" lon="17.971264998056">
        <ele>77.2</ele>
        <time>2018-03-19T18:22:35Z</time>
      </trkpt>
      <trkpt lat="62.63341666495" lon="17.97132836522">
        <ele>77.4</ele>
        <time>2018-03-19T18:22:36Z</time>
      </trkpt>
      <trkpt lat="62.633413396009" lon="17.97138703852">
        <ele>77.2</ele>
        <time>2018-03-19T18:22:37Z</time>
      </trkpt>
      <trkpt lat="62.633412390181" lon="17.971437832834">
        <ele>77</ele>
        <time>2018-03-19T18:22:38Z</time>
      </trkpt>
      <trkpt lat="62.633410462344" lon="17.971503211654">
        <ele>77</ele>
        <time>2018-03-19T18:22:39Z</time>
      </trkpt>
      <trkpt lat="62.633406103756" lon="17.971563226058">
        <ele>76.8</ele>
        <time>2018-03-19T18:22:40Z</time>
      </trkpt>
      <trkpt lat="62.633401326073" lon="17.971614858562">
        <ele>76.6</ele>
        <time>2018-03-19T18:22:41Z</time>
      </trkpt>
      <trkpt lat="62.633395374924" lon="17.971678477183">
        <ele>76.6</ele>
        <time>2018-03-19T18:22:42Z</time>
      </trkpt>
      <trkpt lat="62.633390597241" lon="17.97172985823">
        <ele>76.6</ele>
        <time>2018-03-19T18:22:43Z</time>
      </trkpt>
      <trkpt lat="62.633386657748" lon="17.971789453539">
        <ele>76.6</ele>
        <time>2018-03-19T18:22:44Z</time>
      </trkpt>
      <trkpt lat="62.633383388807" lon="17.971850473771">
        <ele>76.8</ele>
        <time>2018-03-19T18:22:45Z</time>
      </trkpt>
      <trkpt lat="62.633378694943" lon="17.971908225062">
        <ele>77.2</ele>
        <time>2018-03-19T18:22:46Z</time>
      </trkpt>
      <trkpt lat="62.633371067414" lon="17.97195700772">
        <ele>77.2</ele>
        <time>2018-03-19T18:22:47Z</time>
      </trkpt>
      <trkpt lat="62.633365283903" lon="17.972017525038">
        <ele>77.2</ele>
        <time>2018-03-19T18:22:48Z</time>
      </trkpt>
      <trkpt lat="62.633356231451" lon="17.97208105984">
        <ele>77.2</ele>
        <time>2018-03-19T18:22:49Z</time>
      </trkpt>
      <trkpt lat="62.633342485135" lon="17.972129507222">
        <ele>77.4</ele>
        <time>2018-03-19T18:22:50Z</time>
      </trkpt>
      <trkpt lat="62.633329660828" lon="17.972184492486">
        <ele>77.6</ele>
        <time>2018-03-19T18:22:51Z</time>
      </trkpt>
      <trkpt lat="62.633318848177" lon="17.972245596537">
        <ele>77.4</ele>
        <time>2018-03-19T18:22:52Z</time>
      </trkpt>
      <trkpt lat="62.633309711906" lon="17.97229647467">
        <ele>77.4</ele>
        <time>2018-03-19T18:22:53Z</time>
      </trkpt>
      <trkpt lat="62.633300743273" lon="17.972357997816">
        <ele>77.6</ele>
        <time>2018-03-19T18:22:54Z</time>
      </trkpt>
      <trkpt lat="62.633286829319" lon="17.972418263677">
        <ele>77.6</ele>
        <time>2018-03-19T18:22:55Z</time>
      </trkpt>
      <trkpt lat="62.633277441591" lon="17.972474590045">
        <ele>77.8</ele>
        <time>2018-03-19T18:22:56Z</time>
      </trkpt>
      <trkpt lat="62.633268221501" lon="17.972524294712">
        <ele>78.2</ele>
        <time>2018-03-19T18:22:57Z</time>
      </trkpt>
      <trkpt lat="62.633257157393" lon="17.972580453442">
        <ele>78.6</ele>
        <time>2018-03-19T18:22:58Z</time>
      </trkpt>
      <trkpt lat="62.633246931475" lon="17.972633929964">
        <ele>78.6</ele>
        <time>2018-03-19T18:22:59Z</time>
      </trkpt>
      <trkpt lat="62.633235867367" lon="17.972692854721">
        <ele>78.8</ele>
        <time>2018-03-19T18:23:00Z</time>
      </trkpt>
      <trkpt lat="62.633225473811" lon="17.97275161184">
        <ele>79</ele>
        <time>2018-03-19T18:23:01Z</time>
      </trkpt>
      <trkpt lat="62.633214493522" lon="17.972809279312">
        <ele>79</ele>
        <time>2018-03-19T18:23:02Z</time>
      </trkpt>
      <trkpt lat="62.633202507405" lon="17.972859822169">
        <ele>79</ele>
        <time>2018-03-19T18:23:03Z</time>
      </trkpt>
      <trkpt lat="62.633192197668" lon="17.972918327831">
        <ele>79.4</ele>
        <time>2018-03-19T18:23:04Z</time>
      </trkpt>
      <trkpt lat="62.633182223207" lon="17.972964679738">
        <ele>79.6</ele>
        <time>2018-03-19T18:23:05Z</time>
      </trkpt>
      <trkpt lat="62.633169650357" lon="17.973029471825">
        <ele>79.8</ele>
        <time>2018-03-19T18:23:06Z</time>
      </trkpt>
      <trkpt lat="62.633158586249" lon="17.973074985542">
        <ele>80</ele>
        <time>2018-03-19T18:23:07Z</time>
      </trkpt>
      <trkpt lat="62.633148360331" lon="17.973125612218">
        <ele>80</ele>
        <time>2018-03-19T18:23:08Z</time>
      </trkpt>
      <trkpt lat="62.633135955119" lon="17.973180010749">
        <ele>80</ele>
        <time>2018-03-19T18:23:09Z</time>
      </trkpt>
      <trkpt lat="62.633123046993" lon="17.9732411148">
        <ele>80</ele>
        <time>2018-03-19T18:23:10Z</time>
      </trkpt>
      <trkpt lat="62.633111396152" lon="17.973292579666">
        <ele>80</ele>
        <time>2018-03-19T18:23:11Z</time>
      </trkpt>
      <trkpt lat="62.633100332044" lon="17.973347229654">
        <ele>79.8</ele>
        <time>2018-03-19T18:23:12Z</time>
      </trkpt>
      <trkpt lat="62.633087843013" lon="17.973399448891">
        <ele>79.8</ele>
        <time>2018-03-19T18:23:13Z</time>
      </trkpt>
      <trkpt lat="62.633072671774" lon="17.973459630933">
        <ele>79.6</ele>
        <time>2018-03-19T18:23:14Z</time>
      </trkpt>
      <trkpt lat="62.63306127239" lon="17.973507910677">
        <ele>79.4</ele>
        <time>2018-03-19T18:23:15Z</time>
      </trkpt>
      <trkpt lat="62.633046268789" lon="17.973561638656">
        <ele>79.4</ele>
        <time>2018-03-19T18:23:16Z</time>
      </trkpt>
      <trkpt lat="62.63303696488" lon="17.973610924228">
        <ele>79</ele>
        <time>2018-03-19T18:23:17Z</time>
      </trkpt>
      <trkpt lat="62.63302271565" lon="17.973663730198">
        <ele>79</ele>
        <time>2018-03-19T18:23:18Z</time>
      </trkpt>
      <trkpt lat="62.633007879687" lon="17.97372642681">
        <ele>79.2</ele>
        <time>2018-03-19T18:23:19Z</time>
      </trkpt>
      <trkpt lat="62.632997150855" lon="17.973772862536">
        <ele>79</ele>
        <time>2018-03-19T18:23:20Z</time>
      </trkpt>
      <trkpt lat="62.632981309064" lon="17.973833463673">
        <ele>79</ele>
        <time>2018-03-19T18:23:21Z</time>
      </trkpt>
      <trkpt lat="62.632968652395" lon="17.97388233015">
        <ele>79</ele>
        <time>2018-03-19T18:23:22Z</time>
      </trkpt>
      <trkpt lat="62.632956414821" lon="17.973928765876">
        <ele>79</ele>
        <time>2018-03-19T18:23:23Z</time>
      </trkpt>
      <trkpt lat="62.632940321573" lon="17.973989199375">
        <ele>78.8</ele>
        <time>2018-03-19T18:23:24Z</time>
      </trkpt>
      <trkpt lat="62.63292800018" lon="17.974039406956">
        <ele>78.8</ele>
        <time>2018-03-19T18:23:25Z</time>
      </trkpt>
      <trkpt lat="62.632912409846" lon="17.974095398048">
        <ele>79.4</ele>
        <time>2018-03-19T18:23:26Z</time>
      </trkpt>
      <trkpt lat="62.632897238607" lon="17.974152981701">
        <ele>79.6</ele>
        <time>2018-03-19T18:23:27Z</time>
      </trkpt>
      <trkpt lat="62.632883743748" lon="17.974198830694">
        <ele>79.6</ele>
        <time>2018-03-19T18:23:28Z</time>
      </trkpt>
      <trkpt lat="62.632869159242" lon="17.974252642492">
        <ele>80</ele>
        <time>2018-03-19T18:23:29Z</time>
      </trkpt>
      <trkpt lat="62.632853736546" lon="17.974307124842">
        <ele>80.2</ele>
        <time>2018-03-19T18:23:30Z</time>
      </trkpt>
      <trkpt lat="62.632834793452" lon="17.974359176441">
        <ele>80.6</ele>
        <time>2018-03-19T18:23:31Z</time>
      </trkpt>
      <trkpt lat="62.632814760711" lon="17.974403432873">
        <ele>80.8</ele>
        <time>2018-03-19T18:23:32Z</time>
      </trkpt>
      <trkpt lat="62.632793973599" lon="17.974436625197">
        <ele>80.8</ele>
        <time>2018-03-19T18:23:33Z</time>
      </trkpt>
      <trkpt lat="62.632763966397" lon="17.974464620743">
        <ele>81.2</ele>
        <time>2018-03-19T18:23:34Z</time>
      </trkpt>
      <trkpt lat="62.632741922" lon="17.974478450878">
        <ele>81.4</ele>
        <time>2018-03-19T18:23:35Z</time>
      </trkpt>
      <trkpt lat="62.632707053296" lon="17.974475517213">
        <ele>81.6</ele>
        <time>2018-03-19T18:23:36Z</time>
      </trkpt>
      <trkpt lat="62.632679225388" lon="17.974454059549">
        <ele>81.8</ele>
        <time>2018-03-19T18:23:37Z</time>
      </trkpt>
      <trkpt lat="62.632654834059" lon="17.974438217758">
        <ele>82</ele>
        <time>2018-03-19T18:23:38Z</time>
      </trkpt>
      <trkpt lat="62.632625832685" lon="17.974412820601">
        <ele>81.8</ele>
        <time>2018-03-19T18:23:39Z</time>
      </trkpt>
      <trkpt lat="62.632601608994" lon="17.974387591082">
        <ele>81.4</ele>
        <time>2018-03-19T18:23:40Z</time>
      </trkpt>
      <trkpt lat="62.632581995348" lon="17.974373258033">
        <ele>81.4</ele>
        <time>2018-03-19T18:23:41Z</time>
      </trkpt>
      <trkpt lat="62.632547964834" lon="17.974339478976">
        <ele>81.2</ele>
        <time>2018-03-19T18:23:42Z</time>
      </trkpt>
      <trkpt lat="62.632536733088" lon="17.974310309964">
        <ele>80.8</ele>
        <time>2018-03-19T18:23:43Z</time>
      </trkpt>
      <trkpt lat="62.632507144981" lon="17.974275357441">
        <ele>81</ele>
        <time>2018-03-19T18:23:44Z</time>
      </trkpt>
      <trkpt lat="62.632481831643" lon="17.974246272248">
        <ele>80.8</ele>
        <time>2018-03-19T18:23:45Z</time>
      </trkpt>
      <trkpt lat="62.632460541617" lon="17.974220707453">
        <ele>80.6</ele>
        <time>2018-03-19T18:23:46Z</time>
      </trkpt>
      <trkpt lat="62.632440005962" lon="17.974195394115">
        <ele>80.6</ele>
        <time>2018-03-19T18:23:47Z</time>
      </trkpt>
      <trkpt lat="62.6324150279" lon="17.974167733845">
        <ele>80.6</ele>
        <time>2018-03-19T18:23:48Z</time>
      </trkpt>
      <trkpt lat="62.632385355974" lon="17.974139738299">
        <ele>80.8</ele>
        <time>2018-03-19T18:23:49Z</time>
      </trkpt>
      <trkpt lat="62.632358952989" lon="17.974114173504">
        <ele>80.6</ele>
        <time>2018-03-19T18:23:50Z</time>
      </trkpt>
      <trkpt lat="62.63233037071" lon="17.974089614537">
        <ele>80.6</ele>
        <time>2018-03-19T18:23:51Z</time>
      </trkpt>
      <trkpt lat="62.63229851949" lon="17.974065642303">
        <ele>80.8</ele>
        <time>2018-03-19T18:23:52Z</time>
      </trkpt>
      <trkpt lat="62.632274044342" lon="17.974032030884">
        <ele>81</ele>
        <time>2018-03-19T18:23:53Z</time>
      </trkpt>
      <trkpt lat="62.63224319895" lon="17.973998251827">
        <ele>81</ele>
        <time>2018-03-19T18:23:54Z</time>
      </trkpt>
      <trkpt lat="62.63221302411" lon="17.973965897693">
        <ele>81</ele>
        <time>2018-03-19T18:23:55Z</time>
      </trkpt>
      <trkpt lat="62.63218452565" lon="17.97393848888">
        <ele>81</ele>
        <time>2018-03-19T18:23:56Z</time>
      </trkpt>
      <trkpt lat="62.632152087697" lon="17.97390999042">
        <ele>81</ele>
        <time>2018-03-19T18:23:57Z</time>
      </trkpt>
      <trkpt lat="62.632128031644" lon="17.973883335978">
        <ele>80.8</ele>
        <time>2018-03-19T18:23:58Z</time>
      </trkpt>
      <trkpt lat="62.6321048976" lon="17.973853412595">
        <ele>80.8</ele>
        <time>2018-03-19T18:23:59Z</time>
      </trkpt>
      <trkpt lat="62.632072040552" lon="17.973823573031">
        <ele>80.8</ele>
        <time>2018-03-19T18:24:00Z</time>
      </trkpt>
      <trkpt lat="62.632046391938" lon="17.973793984924">
        <ele>80.6</ele>
        <time>2018-03-19T18:24:01Z</time>
      </trkpt>
      <trkpt lat="62.632018228754" lon="17.97376163079">
        <ele>80.6</ele>
        <time>2018-03-19T18:24:02Z</time>
      </trkpt>
      <trkpt lat="62.631994088882" lon="17.973725756258">
        <ele>80.4</ele>
        <time>2018-03-19T18:24:03Z</time>
      </trkpt>
      <trkpt lat="62.631968691725" lon="17.973695246142">
        <ele>80.2</ele>
        <time>2018-03-19T18:24:04Z</time>
      </trkpt>
      <trkpt lat="62.631944300396" lon="17.973666412406">
        <ele>80.4</ele>
        <time>2018-03-19T18:24:05Z</time>
      </trkpt>
      <trkpt lat="62.631913203547" lon="17.973634980281">
        <ele>80.4</ele>
        <time>2018-03-19T18:24:06Z</time>
      </trkpt>
      <trkpt lat="62.631887387295" lon="17.973622407431">
        <ele>80.2</ele>
        <time>2018-03-19T18:24:07Z</time>
      </trkpt>
      <trkpt lat="62.631864839984" lon="17.97359231641">
        <ele>80.2</ele>
        <time>2018-03-19T18:24:08Z</time>
      </trkpt>
      <trkpt lat="62.631837012076" lon="17.973561135742">
        <ele>80.4</ele>
        <time>2018-03-19T18:24:09Z</time>
      </trkpt>
      <trkpt lat="62.631812872204" lon="17.973528278694">
        <ele>80.2</ele>
        <time>2018-03-19T18:24:10Z</time>
      </trkpt>
      <trkpt lat="62.631788648513" lon="17.97349676275">
        <ele>80</ele>
        <time>2018-03-19T18:24:11Z</time>
      </trkpt>
      <trkpt lat="62.631764424822" lon="17.973464576254">
        <ele>79.8</ele>
        <time>2018-03-19T18:24:12Z</time>
      </trkpt>
      <trkpt lat="62.63174279952" lon="17.973429120817">
        <ele>80</ele>
        <time>2018-03-19T18:24:13Z</time>
      </trkpt>
      <trkpt lat="62.631716899449" lon="17.973382601272">
        <ele>80.2</ele>
        <time>2018-03-19T18:24:14Z</time>
      </trkpt>
      <trkpt lat="62.63169334631" lon="17.973353767536">
        <ele>80.2</ele>
        <time>2018-03-19T18:24:15Z</time>
      </trkpt>
      <trkpt lat="62.631665266945" lon="17.973319234108">
        <ele>80.4</ele>
        <time>2018-03-19T18:24:16Z</time>
      </trkpt>
      <trkpt lat="62.631643306367" lon="17.973290316553">
        <ele>80.4</ele>
        <time>2018-03-19T18:24:17Z</time>
      </trkpt>
      <trkpt lat="62.631617406296" lon="17.973256956591">
        <ele>80.6</ele>
        <time>2018-03-19T18:24:18Z</time>
      </trkpt>
      <trkpt lat="62.631590165121" lon="17.973206497553">
        <ele>80.6</ele>
        <time>2018-03-19T18:24:19Z</time>
      </trkpt>
      <trkpt lat="62.631572898407" lon="17.973172634677">
        <ele>80.4</ele>
        <time>2018-03-19T18:24:20Z</time>
      </trkpt>
      <trkpt lat="62.631547836526" lon="17.973125947494">
        <ele>80.2</ele>
        <time>2018-03-19T18:24:21Z</time>
      </trkpt>
      <trkpt lat="62.63152822288" lon="17.973076661922">
        <ele>80.2</ele>
        <time>2018-03-19T18:24:22Z</time>
      </trkpt>
      <trkpt lat="62.631508190139" lon="17.973037602268">
        <ele>80</ele>
        <time>2018-03-19T18:24:23Z</time>
      </trkpt>
      <trkpt lat="62.631479691679" lon="17.972976498217">
        <ele>79.6</ele>
        <time>2018-03-19T18:24:24Z</time>
      </trkpt>
      <trkpt lat="62.631458401653" lon="17.972926039179">
        <ele>79.6</ele>
        <time>2018-03-19T18:24:25Z</time>
      </trkpt>
      <trkpt lat="62.631440129111" lon="17.972880357824">
        <ele>79.4</ele>
        <time>2018-03-19T18:24:26Z</time>
      </trkpt>
      <trkpt lat="62.631418084714" lon="17.972827551854">
        <ele>79</ele>
        <time>2018-03-19T18:24:27Z</time>
      </trkpt>
      <trkpt lat="62.631399057801" lon="17.972777260454">
        <ele>78.8</ele>
        <time>2018-03-19T18:24:28Z</time>
      </trkpt>
      <trkpt lat="62.631380366164" lon="17.972730824728">
        <ele>78.6</ele>
        <time>2018-03-19T18:24:29Z</time>
      </trkpt>
      <trkpt lat="62.631358992319" lon="17.972679276043">
        <ele>78.2</ele>
        <time>2018-03-19T18:24:30Z</time>
      </trkpt>
      <trkpt lat="62.631341055053" lon="17.972633007955">
        <ele>78</ele>
        <time>2018-03-19T18:24:31Z</time>
      </trkpt>
      <trkpt lat="62.631318591561" lon="17.972586572229">
        <ele>78</ele>
        <time>2018-03-19T18:24:32Z</time>
      </trkpt>
      <trkpt lat="62.631300905752" lon="17.972537957209">
        <ele>77.6</ele>
        <time>2018-03-19T18:24:33Z</time>
      </trkpt>
      <trkpt lat="62.63128179502" lon="17.972489677465">
        <ele>77.4</ele>
        <time>2018-03-19T18:24:34Z</time>
      </trkpt>
      <trkpt lat="62.63126754579" lon="17.972446594499">
        <ele>77</ele>
        <time>2018-03-19T18:24:35Z</time>
      </trkpt>
      <trkpt lat="62.63124910561" lon="17.972381048041">
        <ele>76.6</ele>
        <time>2018-03-19T18:24:36Z</time>
      </trkpt>
      <trkpt lat="62.631231252163" lon="17.972334277039">
        <ele>76.4</ele>
        <time>2018-03-19T18:24:37Z</time>
      </trkpt>
      <trkpt lat="62.631213147259" lon="17.972282141621">
        <ele>76.4</ele>
        <time>2018-03-19T18:24:38Z</time>
      </trkpt>
      <trkpt lat="62.631192443966" lon="17.972221372846">
        <ele>76.2</ele>
        <time>2018-03-19T18:24:39Z</time>
      </trkpt>
      <trkpt lat="62.631177691822" lon="17.972170662351">
        <ele>76.2</ele>
        <time>2018-03-19T18:24:40Z</time>
      </trkpt>
      <trkpt lat="62.63117366851" lon="17.972109306843">
        <ele>76.2</ele>
        <time>2018-03-19T18:24:41Z</time>
      </trkpt>
      <trkpt lat="62.631163358773" lon="17.972053483389">
        <ele>75.8</ele>
        <time>2018-03-19T18:24:42Z</time>
      </trkpt>
      <trkpt lat="62.631148690448" lon="17.972002186161">
        <ele>75.2</ele>
        <time>2018-03-19T18:24:43Z</time>
      </trkpt>
      <trkpt lat="62.631131926648" lon="17.971939238092">
        <ele>75.2</ele>
        <time>2018-03-19T18:24:44Z</time>
      </trkpt>
      <trkpt lat="62.631118515608" lon="17.971885091018">
        <ele>74.8</ele>
        <time>2018-03-19T18:24:45Z</time>
      </trkpt>
      <trkpt lat="62.631111307174" lon="17.971827172089">
        <ele>74.4</ele>
        <time>2018-03-19T18:24:46Z</time>
      </trkpt>
      <trkpt lat="62.631093705184" lon="17.971777132146">
        <ele>74.6</ele>
        <time>2018-03-19T18:24:47Z</time>
      </trkpt>
      <trkpt lat="62.631079623592" lon="17.971722649796">
        <ele>74.8</ele>
        <time>2018-03-19T18:24:48Z</time>
      </trkpt>
      <trkpt lat="62.631065793457" lon="17.971670262921">
        <ele>74.8</ele>
        <time>2018-03-19T18:24:49Z</time>
      </trkpt>
      <trkpt lat="62.631052047141" lon="17.971609661784">
        <ele>74.4</ele>
        <time>2018-03-19T18:24:50Z</time>
      </trkpt>
      <trkpt lat="62.631035450979" lon="17.971550401751">
        <ele>74</ele>
        <time>2018-03-19T18:24:51Z</time>
      </trkpt>
      <trkpt lat="62.631022878129" lon="17.971490387347">
        <ele>73.8</ele>
        <time>2018-03-19T18:24:52Z</time>
      </trkpt>
      <trkpt lat="62.631014663867" lon="17.971437413739">
        <ele>73.6</ele>
        <time>2018-03-19T18:24:53Z</time>
      </trkpt>
      <trkpt lat="62.63100854508" lon="17.971377650792">
        <ele>73.4</ele>
        <time>2018-03-19T18:24:54Z</time>
      </trkpt>
      <trkpt lat="62.631000330818" lon="17.971313110162">
        <ele>73.2</ele>
        <time>2018-03-19T18:24:55Z</time>
      </trkpt>
      <trkpt lat="62.630989518167" lon="17.971251000283">
        <ele>73.6</ele>
        <time>2018-03-19T18:24:56Z</time>
      </trkpt>
      <trkpt lat="62.63097753205" lon="17.971201966168">
        <ele>73.4</ele>
        <time>2018-03-19T18:24:57Z</time>
      </trkpt>
      <trkpt lat="62.630957164033" lon="17.971144466334">
        <ele>73.4</ele>
        <time>2018-03-19T18:24:58Z</time>
      </trkpt>
      <trkpt lat="62.630952805445" lon="17.971082104998">
        <ele>73.2</ele>
        <time>2018-03-19T18:24:59Z</time>
      </trkpt>
      <trkpt lat="62.630943752993" lon="17.971023599336">
        <ele>73</ele>
        <time>2018-03-19T18:25:00Z</time>
      </trkpt>
      <trkpt lat="62.630930341953" lon="17.970952269367">
        <ele>73</ele>
        <time>2018-03-19T18:25:01Z</time>
      </trkpt>
      <trkpt lat="62.630925312813" lon="17.970895356266">
        <ele>73</ele>
        <time>2018-03-19T18:25:02Z</time>
      </trkpt>
      <trkpt lat="62.630923217338" lon="17.970838443165">
        <ele>73</ele>
        <time>2018-03-19T18:25:03Z</time>
      </trkpt>
      <trkpt lat="62.630919445483" lon="17.970772393793">
        <ele>73</ele>
        <time>2018-03-19T18:25:04Z</time>
      </trkpt>
      <trkpt lat="62.630915338352" lon="17.970723359678">
        <ele>73</ele>
        <time>2018-03-19T18:25:05Z</time>
      </trkpt>
      <trkpt lat="62.63091047685" lon="17.970668039138">
        <ele>72.8</ele>
        <time>2018-03-19T18:25:06Z</time>
      </trkpt>
      <trkpt lat="62.630901927312" lon="17.970591093296">
        <ele>72.4</ele>
        <time>2018-03-19T18:25:07Z</time>
      </trkpt>
      <trkpt lat="62.630895473249" lon="17.970533425824">
        <ele>72</ele>
        <time>2018-03-19T18:25:08Z</time>
      </trkpt>
      <trkpt lat="62.630889186824" lon="17.970469388108">
        <ele>72</ele>
        <time>2018-03-19T18:25:09Z</time>
      </trkpt>
      <trkpt lat="62.63088197839" lon="17.970403757831">
        <ele>72</ele>
        <time>2018-03-19T18:25:10Z</time>
      </trkpt>
      <trkpt lat="62.630877200707" lon="17.970348604929">
        <ele>72</ele>
        <time>2018-03-19T18:25:11Z</time>
      </trkpt>
      <trkpt lat="62.630878877087" lon="17.97028817143">
        <ele>71.8</ele>
        <time>2018-03-19T18:25:12Z</time>
      </trkpt>
      <trkpt lat="62.630889019186" lon="17.970199658566">
        <ele>71.6</ele>
        <time>2018-03-19T18:25:14Z</time>
      </trkpt>
      <trkpt lat="62.630893629231" lon="17.970176356884">
        <ele>71.4</ele>
        <time>2018-03-19T18:25:15Z</time>
      </trkpt>
      <trkpt lat="62.630898239276" lon="17.970159341627">
        <ele>71</ele>
        <time>2018-03-19T18:25:16Z</time>
      </trkpt>
      <trkpt lat="62.63089455124" lon="17.970157078514">
        <ele>69.4</ele>
        <time>2018-03-19T18:25:17Z</time>
      </trkpt>
      <trkpt lat="62.630890947023" lon="17.97016998664">
        <ele>69.4</ele>
        <time>2018-03-19T18:25:18Z</time>
      </trkpt>
      <trkpt lat="62.63090712409" lon="17.970171746839">
        <ele>71</ele>
        <time>2018-03-19T18:25:23Z</time>
      </trkpt>
      <trkpt lat="62.630906537357" lon="17.970186163707">
        <ele>70.8</ele>
        <time>2018-03-19T18:25:24Z</time>
      </trkpt>
      <trkpt lat="62.631248686515" lon="17.969979130777">
        <ele>68.6</ele>
        <time>2018-03-19T18:27:42Z</time>
      </trkpt>
      <trkpt lat="62.631274586586" lon="17.969963624262">
        <ele>68.8</ele>
        <time>2018-03-19T18:27:43Z</time>
      </trkpt>
      <trkpt lat="62.631313813878" lon="17.969945938453">
        <ele>68.6</ele>
        <time>2018-03-19T18:27:44Z</time>
      </trkpt>
      <trkpt lat="62.631344910727" lon="17.969929593748">
        <ele>67.8</ele>
        <time>2018-03-19T18:27:45Z</time>
      </trkpt>
      <trkpt lat="62.631375169386" lon="17.969908387541">
        <ele>67</ele>
        <time>2018-03-19T18:27:46Z</time>
      </trkpt>
      <trkpt lat="62.631407188244" lon="17.969894641225">
        <ele>66.8</ele>
        <time>2018-03-19T18:27:47Z</time>
      </trkpt>
      <trkpt lat="62.631440045292" lon="17.969874608484">
        <ele>66.4</ele>
        <time>2018-03-19T18:27:48Z</time>
      </trkpt>
      <trkpt lat="62.631473153797" lon="17.969860610711">
        <ele>66</ele>
        <time>2018-03-19T18:27:49Z</time>
      </trkpt>
      <trkpt lat="62.631506262302" lon="17.969847367309">
        <ele>65.8</ele>
        <time>2018-03-19T18:27:50Z</time>
      </trkpt>
      <trkpt lat="62.631540208997" lon="17.969830100595">
        <ele>66.4</ele>
        <time>2018-03-19T18:27:51Z</time>
      </trkpt>
      <trkpt lat="62.631570383837" lon="17.969811408958">
        <ele>67</ele>
        <time>2018-03-19T18:27:52Z</time>
      </trkpt>
      <trkpt lat="62.631598966116" lon="17.969788191095">
        <ele>67.6</ele>
        <time>2018-03-19T18:27:53Z</time>
      </trkpt>
      <trkpt lat="62.631631990802" lon="17.969760530825">
        <ele>67.8</ele>
        <time>2018-03-19T18:27:54Z</time>
      </trkpt>
      <trkpt lat="62.631662417099" lon="17.969737732057">
        <ele>67.8</ele>
        <time>2018-03-19T18:27:55Z</time>
      </trkpt>
      <trkpt lat="62.631691502292" lon="17.969711831986">
        <ele>67.8</ele>
        <time>2018-03-19T18:27:56Z</time>
      </trkpt>
      <trkpt lat="62.631725281349" lon="17.969675286902">
        <ele>67.8</ele>
        <time>2018-03-19T18:27:57Z</time>
      </trkpt>
      <trkpt lat="62.631756629655" lon="17.969646872261">
        <ele>67.8</ele>
        <time>2018-03-19T18:27:58Z</time>
      </trkpt>
      <trkpt lat="62.631790660169" lon="17.96962600133">
        <ele>67.6</ele>
        <time>2018-03-19T18:27:59Z</time>
      </trkpt>
      <trkpt lat="62.631825025959" lon="17.969607309693">
        <ele>67.6</ele>
        <time>2018-03-19T18:28:00Z</time>
      </trkpt>
      <trkpt lat="62.631859475568" lon="17.969598173422">
        <ele>67.4</ele>
        <time>2018-03-19T18:28:01Z</time>
      </trkpt>
      <trkpt lat="62.631891494426" lon="17.96960169382">
        <ele>67.2</ele>
        <time>2018-03-19T18:28:02Z</time>
      </trkpt>
      <trkpt lat="62.631919322334" lon="17.969602029096">
        <ele>66.8</ele>
        <time>2018-03-19T18:28:03Z</time>
      </trkpt>
      <trkpt lat="62.63194899426" lon="17.969605465675">
        <ele>67</ele>
        <time>2018-03-19T18:28:04Z</time>
      </trkpt>
      <trkpt lat="62.631975732521" lon="17.96959415011">
        <ele>66.8</ele>
        <time>2018-03-19T18:28:05Z</time>
      </trkpt>
      <trkpt lat="62.632009260121" lon="17.969587779866">
        <ele>67.2</ele>
        <time>2018-03-19T18:28:06Z</time>
      </trkpt>
      <trkpt lat="62.632035495468" lon="17.969579230328">
        <ele>67.2</ele>
        <time>2018-03-19T18:28:07Z</time>
      </trkpt>
      <trkpt lat="62.632065418851" lon="17.969570513152">
        <ele>67.4</ele>
        <time>2018-03-19T18:28:08Z</time>
      </trkpt>
      <trkpt lat="62.632097102433" lon="17.969574201188">
        <ele>67.4</ele>
        <time>2018-03-19T18:28:09Z</time>
      </trkpt>
      <trkpt lat="62.63212752873" lon="17.969565986926">
        <ele>67.2</ele>
        <time>2018-03-19T18:28:10Z</time>
      </trkpt>
      <trkpt lat="62.632154183172" lon="17.969553330257">
        <ele>67.4</ele>
        <time>2018-03-19T18:28:11Z</time>
      </trkpt>
      <trkpt lat="62.632185112383" lon="17.969538745751">
        <ele>67.8</ele>
        <time>2018-03-19T18:28:12Z</time>
      </trkpt>
      <trkpt lat="62.632214784309" lon="17.969533046059">
        <ele>68</ele>
        <time>2018-03-19T18:28:13Z</time>
      </trkpt>
      <trkpt lat="62.632246467891" lon="17.969524664159">
        <ele>68.2</ele>
        <time>2018-03-19T18:28:14Z</time>
      </trkpt>
      <trkpt lat="62.632275469265" lon="17.969505804884">
        <ele>68.2</ele>
        <time>2018-03-19T18:28:15Z</time>
      </trkpt>
      <trkpt lat="62.632304889734" lon="17.969504799056">
        <ele>68.2</ele>
        <time>2018-03-19T18:28:16Z</time>
      </trkpt>
      <trkpt lat="62.63233456166" lon="17.96950194921">
        <ele>68.8</ele>
        <time>2018-03-19T18:28:17Z</time>
      </trkpt>
      <trkpt lat="62.632366161423" lon="17.969503122676">
        <ele>69</ele>
        <time>2018-03-19T18:28:18Z</time>
      </trkpt>
      <trkpt lat="62.632394743702" lon="17.969499769916">
        <ele>69</ele>
        <time>2018-03-19T18:28:19Z</time>
      </trkpt>
      <trkpt lat="62.632427433112" lon="17.969502284486">
        <ele>68.6</ele>
        <time>2018-03-19T18:28:20Z</time>
      </trkpt>
      <trkpt lat="62.632457524133" lon="17.969506475436">
        <ele>68.8</ele>
        <time>2018-03-19T18:28:21Z</time>
      </trkpt>
      <trkpt lat="62.632489207715" lon="17.969517791001">
        <ele>69</ele>
        <time>2018-03-19T18:28:22Z</time>
      </trkpt>
      <trkpt lat="62.632517119442" lon="17.969516701354">
        <ele>68.6</ele>
        <time>2018-03-19T18:28:23Z</time>
      </trkpt>
      <trkpt lat="62.632550227947" lon="17.969516282259">
        <ele>68.4</ele>
        <time>2018-03-19T18:28:24Z</time>
      </trkpt>
      <trkpt lat="62.632582582081" lon="17.969527346367">
        <ele>68.6</ele>
        <time>2018-03-19T18:28:25Z</time>
      </trkpt>
      <trkpt lat="62.632610661446" lon="17.969534973896">
        <ele>68.4</ele>
        <time>2018-03-19T18:28:26Z</time>
      </trkpt>
      <trkpt lat="62.632641087743" lon="17.969534890077">
        <ele>68.4</ele>
        <time>2018-03-19T18:28:27Z</time>
      </trkpt>
      <trkpt lat="62.632667490728" lon="17.969540673588">
        <ele>69</ele>
        <time>2018-03-19T18:28:28Z</time>
      </trkpt>
      <trkpt lat="62.632695234817" lon="17.969542266149">
        <ele>69.4</ele>
        <time>2018-03-19T18:28:29Z</time>
      </trkpt>
      <trkpt lat="62.632725661114" lon="17.969549306945">
        <ele>69</ele>
        <time>2018-03-19T18:28:30Z</time>
      </trkpt>
      <trkpt lat="62.6327503039" lon="17.969550396592">
        <ele>68.6</ele>
        <time>2018-03-19T18:28:31Z</time>
      </trkpt>
      <trkpt lat="62.632780059645" lon="17.96955224061">
        <ele>68.8</ele>
        <time>2018-03-19T18:28:32Z</time>
      </trkpt>
      <trkpt lat="62.632808222829" lon="17.969552743524">
        <ele>68.4</ele>
        <time>2018-03-19T18:28:33Z</time>
      </trkpt>
      <trkpt lat="62.632836805108" lon="17.969553749352">
        <ele>68.4</ele>
        <time>2018-03-19T18:28:34Z</time>
      </trkpt>
      <trkpt lat="62.632862453722" lon="17.969550061316">
        <ele>68.2</ele>
        <time>2018-03-19T18:28:35Z</time>
      </trkpt>
      <trkpt lat="62.632891706553" lon="17.969543607253">
        <ele>68.6</ele>
        <time>2018-03-19T18:28:36Z</time>
      </trkpt>
      <trkpt lat="62.632921965212" lon="17.969551486239">
        <ele>68.8</ele>
        <time>2018-03-19T18:28:37Z</time>
      </trkpt>
      <trkpt lat="62.632947194731" lon="17.969550731868">
        <ele>69.2</ele>
        <time>2018-03-19T18:28:38Z</time>
      </trkpt>
      <trkpt lat="62.632979632684" lon="17.969554252266">
        <ele>69</ele>
        <time>2018-03-19T18:28:39Z</time>
      </trkpt>
      <trkpt lat="62.633006454764" lon="17.969557018293">
        <ele>69</ele>
        <time>2018-03-19T18:28:40Z</time>
      </trkpt>
      <trkpt lat="62.633032019559" lon="17.969555174275">
        <ele>69</ele>
        <time>2018-03-19T18:28:41Z</time>
      </trkpt>
      <trkpt lat="62.633060685657" lon="17.969568501496">
        <ele>69</ele>
        <time>2018-03-19T18:28:42Z</time>
      </trkpt>
      <trkpt lat="62.633084154977" lon="17.969572608627">
        <ele>68.8</ele>
        <time>2018-03-19T18:28:43Z</time>
      </trkpt>
      <trkpt lat="62.633115587102" lon="17.969581996355">
        <ele>69.2</ele>
        <time>2018-03-19T18:28:44Z</time>
      </trkpt>
      <trkpt lat="62.633139307879" lon="17.969600687992">
        <ele>69.2</ele>
        <time>2018-03-19T18:28:45Z</time>
      </trkpt>
      <trkpt lat="62.63316604614" lon="17.969611668281">
        <ele>69.2</ele>
        <time>2018-03-19T18:28:46Z</time>
      </trkpt>
      <trkpt lat="62.633190269831" lon="17.969627510072">
        <ele>69</ele>
        <time>2018-03-19T18:28:47Z</time>
      </trkpt>
      <trkpt lat="62.633216086083" lon="17.969633377402">
        <ele>68.4</ele>
        <time>2018-03-19T18:28:48Z</time>
      </trkpt>
      <trkpt lat="62.633244500724" lon="17.969643184225">
        <ele>68</ele>
        <time>2018-03-19T18:28:49Z</time>
      </trkpt>
      <trkpt lat="62.633271909537" lon="17.969651398487">
        <ele>68</ele>
        <time>2018-03-19T18:28:50Z</time>
      </trkpt>
      <trkpt lat="62.633302335834" lon="17.96966707264">
        <ele>67.8</ele>
        <time>2018-03-19T18:28:51Z</time>
      </trkpt>
      <trkpt lat="62.633328068267" lon="17.969694313815">
        <ele>68</ele>
        <time>2018-03-19T18:28:52Z</time>
      </trkpt>
      <trkpt lat="62.633347765732" lon="17.969730523623">
        <ele>68.4</ele>
        <time>2018-03-19T18:28:53Z</time>
      </trkpt>
      <trkpt lat="62.633364864808" lon="17.969792130588">
        <ele>69</ele>
        <time>2018-03-19T18:28:54Z</time>
      </trkpt>
      <trkpt lat="62.633373749622" lon="17.969849462784">
        <ele>69.2</ele>
        <time>2018-03-19T18:28:55Z</time>
      </trkpt>
      <trkpt lat="62.633374839269" lon="17.969917272355">
        <ele>69.4</ele>
        <time>2018-03-19T18:28:56Z</time>
      </trkpt>
      <trkpt lat="62.633376599468" lon="17.969978208768">
        <ele>69.8</ele>
        <time>2018-03-19T18:28:57Z</time>
      </trkpt>
      <trkpt lat="62.633380455142" lon="17.970036630611">
        <ele>70.2</ele>
        <time>2018-03-19T18:28:58Z</time>
      </trkpt>
      <trkpt lat="62.633388501766" lon="17.970096561196">
        <ele>70.4</ele>
        <time>2018-03-19T18:28:59Z</time>
      </trkpt>
      <trkpt lat="62.63339822477" lon="17.97014987008">
        <ele>70.6</ele>
        <time>2018-03-19T18:29:00Z</time>
      </trkpt>
      <trkpt lat="62.633401409892" lon="17.970218936936">
        <ele>70.8</ele>
        <time>2018-03-19T18:29:01Z</time>
      </trkpt>
      <trkpt lat="62.633404846471" lon="17.970281968824">
        <ele>71</ele>
        <time>2018-03-19T18:29:02Z</time>
      </trkpt>
      <trkpt lat="62.633407109584" lon="17.970344497798">
        <ele>71.4</ele>
        <time>2018-03-19T18:29:03Z</time>
      </trkpt>
      <trkpt lat="62.63340828305" lon="17.970407362048">
        <ele>71.6</ele>
        <time>2018-03-19T18:29:04Z</time>
      </trkpt>
      <trkpt lat="62.633412390181" lon="17.970462263493">
        <ele>71.6</ele>
        <time>2018-03-19T18:29:05Z</time>
      </trkpt>
      <trkpt lat="62.633416329674" lon="17.970534096376">
        <ele>71.6</ele>
        <time>2018-03-19T18:29:06Z</time>
      </trkpt>
      <trkpt lat="62.633418257511" lon="17.9705924344">
        <ele>71.6</ele>
        <time>2018-03-19T18:29:07Z</time>
      </trkpt>
      <trkpt lat="62.633421777909" lon="17.970653706089">
        <ele>71.8</ele>
        <time>2018-03-19T18:29:08Z</time>
      </trkpt>
      <trkpt lat="62.633423957203" lon="17.970722689126">
        <ele>72</ele>
        <time>2018-03-19T18:29:09Z</time>
      </trkpt>
      <trkpt lat="62.63342839961" lon="17.970780356598">
        <ele>72.4</ele>
        <time>2018-03-19T18:29:10Z</time>
      </trkpt>
      <trkpt lat="62.633428148153" lon="17.97084472959">
        <ele>72.8</ele>
        <time>2018-03-19T18:29:11Z</time>
      </trkpt>
      <trkpt lat="62.633429321619" lon="17.970908180573">
        <ele>73</ele>
        <time>2018-03-19T18:29:12Z</time>
      </trkpt>
      <trkpt lat="62.633429656895" lon="17.97096794352">
        <ele>73</ele>
        <time>2018-03-19T18:29:13Z</time>
      </trkpt>
      <trkpt lat="62.633428818705" lon="17.971030388675">
        <ele>73.2</ele>
        <time>2018-03-19T18:29:14Z</time>
      </trkpt>
      <trkpt lat="62.633429489257" lon="17.971084703387">
        <ele>73.2</ele>
        <time>2018-03-19T18:29:15Z</time>
      </trkpt>
      <trkpt lat="62.6334292378" lon="17.971150585121">
        <ele>73.4</ele>
        <time>2018-03-19T18:29:16Z</time>
      </trkpt>
      <trkpt lat="62.633433093474" lon="17.971206492394">
        <ele>73.6</ele>
        <time>2018-03-19T18:29:17Z</time>
      </trkpt>
      <trkpt lat="62.633433177293" lon="17.97127220649">
        <ele>73.4</ele>
        <time>2018-03-19T18:29:18Z</time>
      </trkpt>
      <trkpt lat="62.633433847845" lon="17.971328113763">
        <ele>73.4</ele>
        <time>2018-03-19T18:29:19Z</time>
      </trkpt>
      <trkpt lat="62.633430243628" lon="17.97139039128">
        <ele>73.4</ele>
        <time>2018-03-19T18:29:20Z</time>
      </trkpt>
      <trkpt lat="62.633430746542" lon="17.971448477847">
        <ele>73.6</ele>
        <time>2018-03-19T18:29:21Z</time>
      </trkpt>
      <trkpt lat="62.633438709347" lon="17.971503966025">
        <ele>73.8</ele>
        <time>2018-03-19T18:29:22Z</time>
      </trkpt>
      <trkpt lat="62.633438206433" lon="17.971569512483">
        <ele>73.8</ele>
        <time>2018-03-19T18:29:23Z</time>
      </trkpt>
      <trkpt lat="62.633437284424" lon="17.97164352466">
        <ele>73.6</ele>
        <time>2018-03-19T18:29:24Z</time>
      </trkpt>
      <trkpt lat="62.633433931664" lon="17.971713597344">
        <ele>74</ele>
        <time>2018-03-19T18:29:25Z</time>
      </trkpt>
      <trkpt lat="62.6334292378" lon="17.971780568725">
        <ele>73.8</ele>
        <time>2018-03-19T18:29:26Z</time>
      </trkpt>
      <trkpt lat="62.633422699918" lon="17.971835553989">
        <ele>73.6</ele>
        <time>2018-03-19T18:29:27Z</time>
      </trkpt>
      <trkpt lat="62.633415407665" lon="17.97189414347">
        <ele>73.8</ele>
        <time>2018-03-19T18:29:28Z</time>
      </trkpt>
      <trkpt lat="62.633408953602" lon="17.971950721295">
        <ele>73.8</ele>
        <time>2018-03-19T18:29:29Z</time>
      </trkpt>
      <trkpt lat="62.633400906978" lon="17.972013753183">
        <ele>74</ele>
        <time>2018-03-19T18:29:30Z</time>
      </trkpt>
      <trkpt lat="62.633395961657" lon="17.972080137831">
        <ele>74.2</ele>
        <time>2018-03-19T18:29:31Z</time>
      </trkpt>
      <trkpt lat="62.633389926689" lon="17.972142582986">
        <ele>74.4</ele>
        <time>2018-03-19T18:29:32Z</time>
      </trkpt>
      <trkpt lat="62.633379114038" lon="17.972197400612">
        <ele>74.4</ele>
        <time>2018-03-19T18:29:33Z</time>
      </trkpt>
      <trkpt lat="62.633372492337" lon="17.972252972609">
        <ele>74.4</ele>
        <time>2018-03-19T18:29:34Z</time>
      </trkpt>
      <trkpt lat="62.633363942799" lon="17.972303264009">
        <ele>74.6</ele>
        <time>2018-03-19T18:29:35Z</time>
      </trkpt>
      <trkpt lat="62.633350615578" lon="17.972381383317">
        <ele>74.6</ele>
        <time>2018-03-19T18:29:36Z</time>
      </trkpt>
      <trkpt lat="62.633340138203" lon="17.972439050789">
        <ele>74.4</ele>
        <time>2018-03-19T18:29:37Z</time>
      </trkpt>
      <trkpt lat="62.633329074095" lon="17.972492694949">
        <ele>74.6</ele>
        <time>2018-03-19T18:29:38Z</time>
      </trkpt>
      <trkpt lat="62.633320189281" lon="17.972550194783">
        <ele>74.8</ele>
        <time>2018-03-19T18:29:39Z</time>
      </trkpt>
      <trkpt lat="62.633308286983" lon="17.972611466472">
        <ele>75</ele>
        <time>2018-03-19T18:29:40Z</time>
      </trkpt>
      <trkpt lat="62.633297977246" lon="17.972658908026">
        <ele>75.2</ele>
        <time>2018-03-19T18:29:41Z</time>
      </trkpt>
      <trkpt lat="62.633284566206" lon="17.972720179715">
        <ele>75.2</ele>
        <time>2018-03-19T18:29:42Z</time>
      </trkpt>
      <trkpt lat="62.633272412451" lon="17.972769046192">
        <ele>75.2</ele>
        <time>2018-03-19T18:29:43Z</time>
      </trkpt>
      <trkpt lat="62.633259755782" lon="17.972823612361">
        <ele>75.6</ele>
        <time>2018-03-19T18:29:44Z</time>
      </trkpt>
      <trkpt lat="62.633245003638" lon="17.972877843254">
        <ele>75.8</ele>
        <time>2018-03-19T18:29:45Z</time>
      </trkpt>
      <trkpt lat="62.633232430788" lon="17.972932074147">
        <ele>76</ele>
        <time>2018-03-19T18:29:46Z</time>
      </trkpt>
      <trkpt lat="62.633219271205" lon="17.972989741619">
        <ele>76.2</ele>
        <time>2018-03-19T18:29:47Z</time>
      </trkpt>
      <trkpt lat="62.633204854337" lon="17.973039027191">
        <ele>76.4</ele>
        <time>2018-03-19T18:29:48Z</time>
      </trkpt>
      <trkpt lat="62.633192700582" lon="17.973096275568">
        <ele>76.4</ele>
        <time>2018-03-19T18:29:49Z</time>
      </trkpt>
      <trkpt lat="62.633177948438" lon="17.973160229465">
        <ele>76.4</ele>
        <time>2018-03-19T18:29:50Z</time>
      </trkpt>
      <trkpt lat="62.633166968149" lon="17.973217896937">
        <ele>76.6</ele>
        <time>2018-03-19T18:29:51Z</time>
      </trkpt>
      <trkpt lat="62.633153389471" lon="17.973276905513">
        <ele>76.6</ele>
        <time>2018-03-19T18:29:52Z</time>
      </trkpt>
      <trkpt lat="62.633141235716" lon="17.973329040931">
        <ele>76.4</ele>
        <time>2018-03-19T18:29:53Z</time>
      </trkpt>
      <trkpt lat="62.6331274894" lon="17.973392911009">
        <ele>76.4</ele>
        <time>2018-03-19T18:29:54Z</time>
      </trkpt>
      <trkpt lat="62.633111899066" lon="17.973452590137">
        <ele>76.4</ele>
        <time>2018-03-19T18:29:55Z</time>
      </trkpt>
      <trkpt lat="62.633100415863" lon="17.973499864053">
        <ele>76.6</ele>
        <time>2018-03-19T18:29:56Z</time>
      </trkpt>
      <trkpt lat="62.633086334271" lon="17.973556358059">
        <ele>76.6</ele>
        <time>2018-03-19T18:29:57Z</time>
      </trkpt>
      <trkpt lat="62.633073426145" lon="17.973603045242">
        <ele>76.8</ele>
        <time>2018-03-19T18:29:58Z</time>
      </trkpt>
      <trkpt lat="62.63306211058" lon="17.973653671918">
        <ele>76.8</ele>
        <time>2018-03-19T18:29:59Z</time>
      </trkpt>
      <trkpt lat="62.633047693712" lon="17.973712261399">
        <ele>77</ele>
        <time>2018-03-19T18:30:00Z</time>
      </trkpt>
      <trkpt lat="62.633035037043" lon="17.973767917215">
        <ele>77.2</ele>
        <time>2018-03-19T18:30:01Z</time>
      </trkpt>
      <trkpt lat="62.633019530528" lon="17.973825249411">
        <ele>77.2</ele>
        <time>2018-03-19T18:30:02Z</time>
      </trkpt>
      <trkpt lat="62.633004862203" lon="17.973877217191">
        <ele>77.4</ele>
        <time>2018-03-19T18:30:03Z</time>
      </trkpt>
      <trkpt lat="62.632993630457" lon="17.973931699541">
        <ele>77.8</ele>
        <time>2018-03-19T18:30:04Z</time>
      </trkpt>
      <trkpt lat="62.632975860829" lon="17.97399380942">
        <ele>78</ele>
        <time>2018-03-19T18:30:05Z</time>
      </trkpt>
      <trkpt lat="62.632961443961" lon="17.974052985634">
        <ele>78.2</ele>
        <time>2018-03-19T18:30:06Z</time>
      </trkpt>
      <trkpt lat="62.632944428704" lon="17.974118783549">
        <ele>78.2</ele>
        <time>2018-03-19T18:30:07Z</time>
      </trkpt>
      <trkpt lat="62.632930766207" lon="17.974171086605">
        <ele>78.4</ele>
        <time>2018-03-19T18:30:08Z</time>
      </trkpt>
      <trkpt lat="62.632913918588" lon="17.974230849552">
        <ele>78.4</ele>
        <time>2018-03-19T18:30:09Z</time>
      </trkpt>
      <trkpt lat="62.632894388761" lon="17.974287343558">
        <ele>78.4</ele>
        <time>2018-03-19T18:30:10Z</time>
      </trkpt>
      <trkpt lat="62.632878295513" lon="17.974335120388">
        <ele>78.4</ele>
        <time>2018-03-19T18:30:11Z</time>
      </trkpt>
      <trkpt lat="62.632848539768" lon="17.97438775872">
        <ele>78.4</ele>
        <time>2018-03-19T18:30:12Z</time>
      </trkpt>
      <trkpt lat="62.632824232258" lon="17.974425980184">
        <ele>78.4</ele>
        <time>2018-03-19T18:30:13Z</time>
      </trkpt>
      <trkpt lat="62.632792967771" lon="17.9744564903">
        <ele>78.4</ele>
        <time>2018-03-19T18:30:14Z</time>
      </trkpt>
      <trkpt lat="62.632759272533" lon="17.974474595204">
        <ele>78.4</ele>
        <time>2018-03-19T18:30:15Z</time>
      </trkpt>
      <trkpt lat="62.632729181512" lon="17.97447912143">
        <ele>78.4</ele>
        <time>2018-03-19T18:30:16Z</time>
      </trkpt>
      <trkpt lat="62.632697749387" lon="17.974473086462">
        <ele>78.4</ele>
        <time>2018-03-19T18:30:17Z</time>
      </trkpt>
      <trkpt lat="62.632667742185" lon="17.974454478644">
        <ele>78.2</ele>
        <time>2018-03-19T18:30:18Z</time>
      </trkpt>
      <trkpt lat="62.632639411363" lon="17.974433440075">
        <ele>78.2</ele>
        <time>2018-03-19T18:30:19Z</time>
      </trkpt>
      <trkpt lat="62.632607476324" lon="17.974418185017">
        <ele>78.2</ele>
        <time>2018-03-19T18:30:20Z</time>
      </trkpt>
      <trkpt lat="62.632588617049" lon="17.974388848367">
        <ele>78.2</ele>
        <time>2018-03-19T18:30:21Z</time>
      </trkpt>
      <trkpt lat="62.632568165213" lon="17.974362529201">
        <ele>78.4</ele>
        <time>2018-03-19T18:30:22Z</time>
      </trkpt>
      <trkpt lat="62.632547629558" lon="17.974345178668">
        <ele>78.2</ele>
        <time>2018-03-19T18:30:23Z</time>
      </trkpt>
      <trkpt lat="62.632519298736" lon="17.974316764027">
        <ele>78</ele>
        <time>2018-03-19T18:30:24Z</time>
      </trkpt>
      <trkpt lat="62.63249381776" lon="17.974294216716">
        <ele>78.2</ele>
        <time>2018-03-19T18:30:25Z</time>
      </trkpt>
      <trkpt lat="62.632470683716" lon="17.974272507595">
        <ele>78.4</ele>
        <time>2018-03-19T18:30:26Z</time>
      </trkpt>
      <trkpt lat="62.632443777817" lon="17.974243003307">
        <ele>78.2</ele>
        <time>2018-03-19T18:30:27Z</time>
      </trkpt>
      <trkpt lat="62.63241418971" lon="17.974222551471">
        <ele>78.2</ele>
        <time>2018-03-19T18:30:28Z</time>
      </trkpt>
      <trkpt lat="62.632388038182" lon="17.974200171798">
        <ele>78.2</ele>
        <time>2018-03-19T18:30:29Z</time>
      </trkpt>
      <trkpt lat="62.632352498926" lon="17.974174774641">
        <ele>78.2</ele>
        <time>2018-03-19T18:30:30Z</time>
      </trkpt>
      <trkpt lat="62.632326934131" lon="17.974139067747">
        <ele>78.2</ele>
        <time>2018-03-19T18:30:31Z</time>
      </trkpt>
      <trkpt lat="62.632301369336" lon="17.97411199421">
        <ele>78.4</ele>
        <time>2018-03-19T18:30:32Z</time>
      </trkpt>
      <trkpt lat="62.632271865048" lon="17.974078634248">
        <ele>78.4</ele>
        <time>2018-03-19T18:30:33Z</time>
      </trkpt>
      <trkpt lat="62.632239930009" lon="17.974048710865">
        <ele>78.4</ele>
        <time>2018-03-19T18:30:34Z</time>
      </trkpt>
      <trkpt lat="62.632211850644" lon="17.974015769998">
        <ele>78.4</ele>
        <time>2018-03-19T18:30:35Z</time>
      </trkpt>
      <trkpt lat="62.632183603641" lon="17.973980314561">
        <ele>78.4</ele>
        <time>2018-03-19T18:30:36Z</time>
      </trkpt>
      <trkpt lat="62.632156949199" lon="17.97395609087">
        <ele>78.2</ele>
        <time>2018-03-19T18:30:37Z</time>
      </trkpt>
      <trkpt lat="62.63212669054" lon="17.973926167487">
        <ele>78</ele>
        <time>2018-03-19T18:30:38Z</time>
      </trkpt>
      <trkpt lat="62.632093665854" lon="17.973897752846">
        <ele>78.2</ele>
        <time>2018-03-19T18:30:39Z</time>
      </trkpt>
      <trkpt lat="62.632056869313" lon="17.973872523327">
        <ele>78</ele>
        <time>2018-03-19T18:30:40Z</time>
      </trkpt>
      <trkpt lat="62.632026443016" lon="17.973843270496">
        <ele>77.8</ele>
        <time>2018-03-19T18:30:41Z</time>
      </trkpt>
      <trkpt lat="62.631996603452" lon="17.973812592742">
        <ele>77.8</ele>
        <time>2018-03-19T18:30:42Z</time>
      </trkpt>
      <trkpt lat="62.631970284286" lon="17.973777807857">
        <ele>77.8</ele>
        <time>2018-03-19T18:30:43Z</time>
      </trkpt>
      <trkpt lat="62.631942372559" lon="17.973738329108">
        <ele>77.8</ele>
        <time>2018-03-19T18:30:44Z</time>
      </trkpt>
      <trkpt lat="62.631913622642" lon="17.973706226431">
        <ele>77.6</ele>
        <time>2018-03-19T18:30:45Z</time>
      </trkpt>
      <trkpt lat="62.631883112526" lon="17.97366523894">
        <ele>77.6</ele>
        <time>2018-03-19T18:30:46Z</time>
      </trkpt>
      <trkpt lat="62.631857296274" lon="17.973637746308">
        <ele>77.6</ele>
        <time>2018-03-19T18:30:47Z</time>
      </trkpt>
      <trkpt lat="62.631828211081" lon="17.973603548156">
        <ele>77.6</ele>
        <time>2018-03-19T18:30:48Z</time>
      </trkpt>
      <trkpt lat="62.631798203879" lon="17.973566751615">
        <ele>77.4</ele>
        <time>2018-03-19T18:30:49Z</time>
      </trkpt>
      <trkpt lat="62.631769789238" lon="17.973537331146">
        <ele>77.4</ele>
        <time>2018-03-19T18:30:50Z</time>
      </trkpt>
      <trkpt lat="62.631740033493" lon="17.973499193501">
        <ele>77.4</ele>
        <time>2018-03-19T18:30:51Z</time>
      </trkpt>
      <trkpt lat="62.631709691015" lon="17.973472958154">
        <ele>77.2</ele>
        <time>2018-03-19T18:30:52Z</time>
      </trkpt>
      <trkpt lat="62.631681527831" lon="17.973449405015">
        <ele>77.2</ele>
        <time>2018-03-19T18:30:53Z</time>
      </trkpt>
      <trkpt lat="62.631648251688" lon="17.973429875188">
        <ele>77.2</ele>
        <time>2018-03-19T18:30:54Z</time>
      </trkpt>
      <trkpt lat="62.631619166495" lon="17.973431803025">
        <ele>77</ele>
        <time>2018-03-19T18:30:55Z</time>
      </trkpt>
      <trkpt lat="62.631587482913" lon="17.973445716979">
        <ele>77</ele>
        <time>2018-03-19T18:30:56Z</time>
      </trkpt>
      <trkpt lat="62.63156175048" lon="17.973468767204">
        <ele>77.2</ele>
        <time>2018-03-19T18:30:57Z</time>
      </trkpt>
      <trkpt lat="62.631534676943" lon="17.973488297031">
        <ele>77</ele>
        <time>2018-03-19T18:30:58Z</time>
      </trkpt>
      <trkpt lat="62.631504083008" lon="17.973524506839">
        <ele>76.8</ele>
        <time>2018-03-19T18:30:59Z</time>
      </trkpt>
      <trkpt lat="62.631472483245" lon="17.973554514041">
        <ele>76.8</ele>
        <time>2018-03-19T18:31:00Z</time>
      </trkpt>
      <trkpt lat="62.631444655337" lon="17.973589634202">
        <ele>76.8</ele>
        <time>2018-03-19T18:31:01Z</time>
      </trkpt>
      <trkpt lat="62.631416575972" lon="17.973626766019">
        <ele>76.8</ele>
        <time>2018-03-19T18:31:02Z</time>
      </trkpt>
      <trkpt lat="62.631391346453" lon="17.973652498452">
        <ele>76.8</ele>
        <time>2018-03-19T18:31:03Z</time>
      </trkpt>
      <trkpt lat="62.631361171613" lon="17.973684936405">
        <ele>77</ele>
        <time>2018-03-19T18:31:04Z</time>
      </trkpt>
      <trkpt lat="62.631331583506" lon="17.973716033254">
        <ele>77</ele>
        <time>2018-03-19T18:31:05Z</time>
      </trkpt>
      <trkpt lat="62.631300654295" lon="17.973750231406">
        <ele>77</ele>
        <time>2018-03-19T18:31:06Z</time>
      </trkpt>
      <trkpt lat="62.631268803075" lon="17.973782250264">
        <ele>77</ele>
        <time>2018-03-19T18:31:07Z</time>
      </trkpt>
      <trkpt lat="62.631241058986" lon="17.973814185303">
        <ele>77</ele>
        <time>2018-03-19T18:31:08Z</time>
      </trkpt>
      <trkpt lat="62.631210381232" lon="17.973846455618">
        <ele>77</ele>
        <time>2018-03-19T18:31:09Z</time>
      </trkpt>
      <trkpt lat="62.631177440365" lon="17.973874870259">
        <ele>76.8</ele>
        <time>2018-03-19T18:31:10Z</time>
      </trkpt>
      <trkpt lat="62.631149025724" lon="17.973893897172">
        <ele>76.6</ele>
        <time>2018-03-19T18:31:11Z</time>
      </trkpt>
      <trkpt lat="62.631114911391" lon="17.973915354836">
        <ele>76.6</ele>
        <time>2018-03-19T18:31:12Z</time>
      </trkpt>
      <trkpt lat="62.631085407103" lon="17.973924910202">
        <ele>76.4</ele>
        <time>2018-03-19T18:31:13Z</time>
      </trkpt>
      <trkpt lat="62.631051628046" lon="17.973932705369">
        <ele>76.4</ele>
        <time>2018-03-19T18:31:14Z</time>
      </trkpt>
      <trkpt lat="62.631021201749" lon="17.973924574926">
        <ele>76.4</ele>
        <time>2018-03-19T18:31:15Z</time>
      </trkpt>
      <trkpt lat="62.630977112955" lon="17.973909906601">
        <ele>76.6</ele>
        <time>2018-03-19T18:31:16Z</time>
      </trkpt>
      <trkpt lat="62.630946016106" lon="17.973887946023">
        <ele>76.4</ele>
        <time>2018-03-19T18:31:17Z</time>
      </trkpt>
      <trkpt lat="62.63091885875" lon="17.973840169193">
        <ele>76.4</ele>
        <time>2018-03-19T18:31:18Z</time>
      </trkpt>
      <trkpt lat="62.630896059982" lon="17.973798092055">
        <ele>76.4</ele>
        <time>2018-03-19T18:31:19Z</time>
      </trkpt>
      <trkpt lat="62.630875775784" lon="17.973720643299">
        <ele>76.4</ele>
        <time>2018-03-19T18:31:20Z</time>
      </trkpt>
      <trkpt lat="62.63084928898" lon="17.973674542849">
        <ele>76.4</ele>
        <time>2018-03-19T18:31:21Z</time>
      </trkpt>
      <trkpt lat="62.630825735841" lon="17.973621569241">
        <ele>76.2</ele>
        <time>2018-03-19T18:31:22Z</time>
      </trkpt>
      <trkpt lat="62.630804278177" lon="17.97356130338">
        <ele>76</ele>
        <time>2018-03-19T18:31:23Z</time>
      </trkpt>
      <trkpt lat="62.630782066142" lon="17.973498355311">
        <ele>76</ele>
        <time>2018-03-19T18:31:24Z</time>
      </trkpt>
      <trkpt lat="62.630763290686" lon="17.973439011459">
        <ele>76</ele>
        <time>2018-03-19T18:31:25Z</time>
      </trkpt>
      <trkpt lat="62.630745185782" lon="17.973364244911">
        <ele>75.8</ele>
        <time>2018-03-19T18:31:26Z</time>
      </trkpt>
      <trkpt lat="62.630731271828" lon="17.973305068697">
        <ele>75.8</ele>
        <time>2018-03-19T18:31:27Z</time>
      </trkpt>
      <trkpt lat="62.630710317078" lon="17.973243713189">
        <ele>75.8</ele>
        <time>2018-03-19T18:31:28Z</time>
      </trkpt>
      <trkpt lat="62.630689865242" lon="17.97317070684">
        <ele>76</ele>
        <time>2018-03-19T18:31:29Z</time>
      </trkpt>
      <trkpt lat="62.63067075451" lon="17.973110524798">
        <ele>75.8</ele>
        <time>2018-03-19T18:31:30Z</time>
      </trkpt>
      <trkpt lat="62.630645860267" lon="17.973044810702">
        <ele>75.6</ele>
        <time>2018-03-19T18:31:31Z</time>
      </trkpt>
      <trkpt lat="62.63062800682" lon="17.972978509873">
        <ele>74.8</ele>
        <time>2018-03-19T18:31:32Z</time>
      </trkpt>
      <trkpt lat="62.630605878604" lon="17.972931152138">
        <ele>74.4</ele>
        <time>2018-03-19T18:31:33Z</time>
      </trkpt>
      <trkpt lat="62.630586767872" lon="17.972858397246">
        <ele>74</ele>
        <time>2018-03-19T18:31:34Z</time>
      </trkpt>
      <trkpt lat="62.630564555837" lon="17.972800981231">
        <ele>74</ele>
        <time>2018-03-19T18:31:35Z</time>
      </trkpt>
      <trkpt lat="62.630544942191" lon="17.972735853868">
        <ele>73.8</ele>
        <time>2018-03-19T18:31:36Z</time>
      </trkpt>
      <trkpt lat="62.630524825631" lon="17.972663853347">
        <ele>73.8</ele>
        <time>2018-03-19T18:31:37Z</time>
      </trkpt>
      <trkpt lat="62.630507558917" lon="17.972605180047">
        <ele>74</ele>
        <time>2018-03-19T18:31:38Z</time>
      </trkpt>
      <trkpt lat="62.630495321343" lon="17.972530581137">
        <ele>74.2</ele>
        <time>2018-03-19T18:31:39Z</time>
      </trkpt>
      <trkpt lat="62.630482748493" lon="17.972457993883">
        <ele>74</ele>
        <time>2018-03-19T18:31:40Z</time>
      </trkpt>
      <trkpt lat="62.630469924186" lon="17.972407367207">
        <ele>73.8</ele>
        <time>2018-03-19T18:31:41Z</time>
      </trkpt>
      <trkpt lat="62.630449053255" lon="17.972323464388">
        <ele>73.8</ele>
        <time>2018-03-19T18:31:42Z</time>
      </trkpt>
      <trkpt lat="62.63042516484" lon="17.972264958726">
        <ele>74.2</ele>
        <time>2018-03-19T18:31:43Z</time>
      </trkpt>
      <trkpt lat="62.630402868986" lon="17.972193628757">
        <ele>74.2</ele>
        <time>2018-03-19T18:31:44Z</time>
      </trkpt>
      <trkpt lat="62.630383842073" lon="17.972121041503">
        <ele>74.2</ele>
        <time>2018-03-19T18:31:45Z</time>
      </trkpt>
      <trkpt lat="62.630366910635" lon="17.97204753224">
        <ele>74</ele>
        <time>2018-03-19T18:31:46Z</time>
      </trkpt>
      <trkpt lat="62.630360037477" lon="17.97197796247">
        <ele>74</ele>
        <time>2018-03-19T18:31:47Z</time>
      </trkpt>
      <trkpt lat="62.630361210943" lon="17.971902441551">
        <ele>73.8</ele>
        <time>2018-03-19T18:31:48Z</time>
      </trkpt>
      <trkpt lat="62.630358696373" lon="17.97183211741">
        <ele>73.6</ele>
        <time>2018-03-19T18:31:49Z</time>
      </trkpt>
      <trkpt lat="62.630350649749" lon="17.971750226247">
        <ele>73.4</ele>
        <time>2018-03-19T18:31:50Z</time>
      </trkpt>
      <trkpt lat="62.630341681116" lon="17.971685937074">
        <ele>73.2</ele>
        <time>2018-03-19T18:31:51Z</time>
      </trkpt>
      <trkpt lat="62.630335310872" lon="17.9716150262">
        <ele>73.2</ele>
        <time>2018-03-19T18:31:52Z</time>
      </trkpt>
      <trkpt lat="62.630332377207" lon="17.971538834729">
        <ele>73.2</ele>
        <time>2018-03-19T18:31:53Z</time>
      </trkpt>
      <trkpt lat="62.630325001135" lon="17.971453674625">
        <ele>73</ele>
        <time>2018-03-19T18:31:54Z</time>
      </trkpt>
      <trkpt lat="62.630319636719" lon="17.971364826485">
        <ele>72.8</ele>
        <time>2018-03-19T18:31:55Z</time>
      </trkpt>
      <trkpt lat="62.630312512104" lon="17.971285952806">
        <ele>72.6</ele>
        <time>2018-03-19T18:31:56Z</time>
      </trkpt>
      <trkpt lat="62.630298514331" lon="17.971200792702">
        <ele>72.6</ele>
        <time>2018-03-19T18:31:57Z</time>
      </trkpt>
      <trkpt lat="62.630289964793" lon="17.971125774697">
        <ele>72.2</ele>
        <time>2018-03-19T18:31:58Z</time>
      </trkpt>
      <trkpt lat="62.630285019472" lon="17.971050840511">
        <ele>72.2</ele>
        <time>2018-03-19T18:31:59Z</time>
      </trkpt>
      <trkpt lat="62.630285941481" lon="17.970970206633">
        <ele>72</ele>
        <time>2018-03-19T18:32:00Z</time>
      </trkpt>
      <trkpt lat="62.63028686349" lon="17.970892338782">
        <ele>72</ele>
        <time>2018-03-19T18:32:01Z</time>
      </trkpt>
      <trkpt lat="62.630287534042" lon="17.970822014641">
        <ele>72</ele>
        <time>2018-03-19T18:32:02Z</time>
      </trkpt>
      <trkpt lat="62.630288120775" lon="17.970743895333">
        <ele>72.2</ele>
        <time>2018-03-19T18:32:03Z</time>
      </trkpt>
      <trkpt lat="62.630292898458" lon="17.970667117129">
        <ele>72.2</ele>
        <time>2018-03-19T18:32:04Z</time>
      </trkpt>
      <trkpt lat="62.630298933426" lon="17.970586231794">
        <ele>72.4</ele>
        <time>2018-03-19T18:32:05Z</time>
      </trkpt>
      <trkpt lat="62.630318379434" lon="17.970512973988">
        <ele>72.4</ele>
        <time>2018-03-19T18:32:06Z</time>
      </trkpt>
      <trkpt lat="62.630342267849" lon="17.970453462498">
        <ele>72.6</ele>
        <time>2018-03-19T18:32:07Z</time>
      </trkpt>
      <trkpt lat="62.630376298363" lon="17.970398896329">
        <ele>72.4</ele>
        <time>2018-03-19T18:32:08Z</time>
      </trkpt>
      <trkpt lat="62.630415777112" lon="17.970363021797">
        <ele>72.4</ele>
        <time>2018-03-19T18:32:09Z</time>
      </trkpt>
      <trkpt lat="62.630451903101" lon="17.970325303247">
        <ele>72</ele>
        <time>2018-03-19T18:32:10Z</time>
      </trkpt>
      <trkpt lat="62.630487945271" lon="17.970297223882">
        <ele>71.6</ele>
        <time>2018-03-19T18:32:11Z</time>
      </trkpt>
      <trkpt lat="62.630528513667" lon="17.970270234164">
        <ele>70.8</ele>
        <time>2018-03-19T18:32:12Z</time>
      </trkpt>
      <trkpt lat="62.630561370715" lon="17.970256823124">
        <ele>70.6</ele>
        <time>2018-03-19T18:32:13Z</time>
      </trkpt>
      <trkpt lat="62.63060034655" lon="17.970250117604">
        <ele>70.2</ele>
        <time>2018-03-19T18:32:14Z</time>
      </trkpt>
      <trkpt lat="62.630634544702" lon="17.970239640229">
        <ele>70</ele>
        <time>2018-03-19T18:32:15Z</time>
      </trkpt>
      <trkpt lat="62.630670251596" lon="17.970214494529">
        <ele>69.8</ele>
        <time>2018-03-19T18:32:16Z</time>
      </trkpt>
      <trkpt lat="62.630706461404" lon="17.97019764691">
        <ele>69.8</ele>
        <time>2018-03-19T18:32:17Z</time>
      </trkpt>
      <trkpt lat="62.630740994832" lon="17.97017753035">
        <ele>69.4</ele>
        <time>2018-03-19T18:32:18Z</time>
      </trkpt>
      <trkpt lat="62.630777037002" lon="17.970169483726">
        <ele>69.2</ele>
        <time>2018-03-19T18:32:19Z</time>
      </trkpt>
      <trkpt lat="62.630813749724" lon="17.970155318315">
        <ele>69.4</ele>
        <time>2018-03-19T18:32:20Z</time>
      </trkpt>
      <trkpt lat="62.630848534609" lon="17.970142577827">
        <ele>69.2</ele>
        <time>2018-03-19T18:32:21Z</time>
      </trkpt>
      <trkpt lat="62.630892371946" lon="17.970132016633">
        <ele>69.2</ele>
        <time>2018-03-19T18:32:23Z</time>
      </trkpt>
      <trkpt lat="62.630903352235" lon="17.970119946697">
        <ele>69.2</ele>
        <time>2018-03-19T18:32:24Z</time>
      </trkpt>
      <trkpt lat="62.630909135746" lon="17.970106703295">
        <ele>69.2</ele>
        <time>2018-03-19T18:32:25Z</time>
      </trkpt>
      <trkpt lat="62.630901424398" lon="17.970106954752">
        <ele>69.2</ele>
        <time>2018-03-19T18:32:26Z</time>
      </trkpt>
      <trkpt lat="62.630900837665" lon="17.970115420471">
        <ele>69</ele>
        <time>2018-03-19T18:32:27Z</time>
      </trkpt>
      <trkpt lat="62.630896479077" lon="17.970122880362">
        <ele>69.2</ele>
        <time>2018-03-19T18:32:28Z</time>
      </trkpt>
      <trkpt lat="62.630891366118" lon="17.970131513719">
        <ele>69.2</ele>
        <time>2018-03-19T18:32:29Z</time>
      </trkpt>
      <trkpt lat="62.630882900399" lon="17.970141655818">
        <ele>69.2</ele>
        <time>2018-03-19T18:32:30Z</time>
      </trkpt>
      <trkpt lat="62.630894970335" lon="17.970147020234">
        <ele>69.4</ele>
        <time>2018-03-19T18:32:31Z</time>
      </trkpt>
      <trkpt lat="62.63089287486" lon="17.970115085195">
        <ele>69.6</ele>
        <time>2018-03-19T18:32:32Z</time>
      </trkpt>
      <trkpt lat="62.630902681683" lon="17.970118102679">
        <ele>70</ele>
        <time>2018-03-19T18:32:33Z</time>
      </trkpt>
      <trkpt lat="62.63091382961" lon="17.970118270317">
        <ele>70</ele>
        <time>2018-03-19T18:32:34Z</time>
      </trkpt>
      <trkpt lat="62.630913159058" lon="17.970114247005">
        <ele>70</ele>
        <time>2018-03-19T18:32:35Z</time>
      </trkpt>
      <trkpt lat="62.630919864578" lon="17.970126903674">
        <ele>69.8</ele>
        <time>2018-03-19T18:32:36Z</time>
      </trkpt>
      <trkpt lat="62.631221026245" lon="17.969968066669">
        <ele>68.2</ele>
        <time>2018-03-19T18:34:25Z</time>
      </trkpt>
      <trkpt lat="62.631253967112" lon="17.969949375032">
        <ele>68.4</ele>
        <time>2018-03-19T18:34:26Z</time>
      </trkpt>
      <trkpt lat="62.631285734513" lon="17.969929090834">
        <ele>67.8</ele>
        <time>2018-03-19T18:34:27Z</time>
      </trkpt>
      <trkpt lat="62.63132035176" lon="17.969907130256">
        <ele>67.6</ele>
        <time>2018-03-19T18:34:28Z</time>
      </trkpt>
      <trkpt lat="62.631356980663" lon="17.969887768067">
        <ele>67.4</ele>
        <time>2018-03-19T18:34:29Z</time>
      </trkpt>
      <trkpt lat="62.631387993693" lon="17.969867735326">
        <ele>67</ele>
        <time>2018-03-19T18:34:30Z</time>
      </trkpt>
      <trkpt lat="62.631420766922" lon="17.969849127508">
        <ele>66.8</ele>
        <time>2018-03-19T18:34:31Z</time>
      </trkpt>
      <trkpt lat="62.631451612314" lon="17.969832866622">
        <ele>67</ele>
        <time>2018-03-19T18:34:32Z</time>
      </trkpt>
      <trkpt lat="62.631486648656" lon="17.969812666243">
        <ele>67.2</ele>
        <time>2018-03-19T18:34:33Z</time>
      </trkpt>
      <trkpt lat="62.631518332238" lon="17.969796824452">
        <ele>67.2</ele>
        <time>2018-03-19T18:34:34Z</time>
      </trkpt>
      <trkpt lat="62.631550686372" lon="17.969780647385">
        <ele>67.4</ele>
        <time>2018-03-19T18:34:35Z</time>
      </trkpt>
      <trkpt lat="62.631586477085" lon="17.969763967404">
        <ele>67.2</ele>
        <time>2018-03-19T18:34:36Z</time>
      </trkpt>
      <trkpt lat="62.63161958559" lon="17.969743767025">
        <ele>67.2</ele>
        <time>2018-03-19T18:34:37Z</time>
      </trkpt>
      <trkpt lat="62.631655460122" lon="17.969716777307">
        <ele>67.4</ele>
        <time>2018-03-19T18:34:38Z</time>
      </trkpt>
      <trkpt lat="62.631688652446" lon="17.969690877236">
        <ele>67.4</ele>
        <time>2018-03-19T18:34:39Z</time>
      </trkpt>
      <trkpt lat="62.631718324372" lon="17.969661121491">
        <ele>67.6</ele>
        <time>2018-03-19T18:34:40Z</time>
      </trkpt>
      <trkpt lat="62.631751097601" lon="17.969626504244">
        <ele>67.8</ele>
        <time>2018-03-19T18:34:41Z</time>
      </trkpt>
      <trkpt lat="62.631781942993" lon="17.96959750287">
        <ele>68</ele>
        <time>2018-03-19T18:34:42Z</time>
      </trkpt>
      <trkpt lat="62.631817985163" lon="17.96957151898">
        <ele>67.8</ele>
        <time>2018-03-19T18:34:43Z</time>
      </trkpt>
      <trkpt lat="62.631853189143" lon="17.969552408248">
        <ele>67.4</ele>
        <time>2018-03-19T18:34:44Z</time>
      </trkpt>
      <trkpt lat="62.631888393123" lon="17.969543355796">
        <ele>66.6</ele>
        <time>2018-03-19T18:34:45Z</time>
      </trkpt>
      <trkpt lat="62.631920411981" lon="17.96954134414">
        <ele>66.4</ele>
        <time>2018-03-19T18:34:46Z</time>
      </trkpt>
      <trkpt lat="62.631953688124" lon="17.969542266149">
        <ele>65.8</ele>
        <time>2018-03-19T18:34:47Z</time>
      </trkpt>
      <trkpt lat="62.63198671281" lon="17.96954050595">
        <ele>66</ele>
        <time>2018-03-19T18:34:48Z</time>
      </trkpt>
      <trkpt lat="62.632017390564" lon="17.969537320828">
        <ele>66</ele>
        <time>2018-03-19T18:34:49Z</time>
      </trkpt>
      <trkpt lat="62.632043542092" lon="17.969538075199">
        <ele>66.2</ele>
        <time>2018-03-19T18:34:50Z</time>
      </trkpt>
      <trkpt lat="62.63207220819" lon="17.969534806258">
        <ele>66</ele>
        <time>2018-03-19T18:34:51Z</time>
      </trkpt>
      <trkpt lat="62.632096683338" lon="17.969529274204">
        <ele>65.8</ele>
        <time>2018-03-19T18:34:52Z</time>
      </trkpt>
      <trkpt lat="62.632129456567" lon="17.969526340539">
        <ele>65.8</ele>
        <time>2018-03-19T18:34:53Z</time>
      </trkpt>
      <trkpt lat="62.632163319443" lon="17.96952709491">
        <ele>66</ele>
        <time>2018-03-19T18:34:54Z</time>
      </trkpt>
      <trkpt lat="62.632197601414" lon="17.969524496521">
        <ele>65.8</ele>
        <time>2018-03-19T18:34:55Z</time>
      </trkpt>
      <trkpt lat="62.632231212833" lon="17.969516533716">
        <ele>66</ele>
        <time>2018-03-19T18:34:56Z</time>
      </trkpt>
      <trkpt lat="62.632263231691" lon="17.969506810712">
        <ele>66.2</ele>
        <time>2018-03-19T18:34:57Z</time>
      </trkpt>
      <trkpt lat="62.63229265216" lon="17.969500189011">
        <ele>66.4</ele>
        <time>2018-03-19T18:34:58Z</time>
      </trkpt>
      <trkpt lat="62.632327688502" lon="17.96949272912">
        <ele>66.8</ele>
        <time>2018-03-19T18:34:59Z</time>
      </trkpt>
      <trkpt lat="62.632356773695" lon="17.969484682496">
        <ele>66.8</ele>
        <time>2018-03-19T18:35:00Z</time>
      </trkpt>
      <trkpt lat="62.632386948535" lon="17.969478312252">
        <ele>66.6</ele>
        <time>2018-03-19T18:35:01Z</time>
      </trkpt>
      <trkpt lat="62.632415111719" lon="17.969475881501">
        <ele>66.6</ele>
        <time>2018-03-19T18:35:02Z</time>
      </trkpt>
      <trkpt lat="62.632446376206" lon="17.96947428894">
        <ele>66.8</ele>
        <time>2018-03-19T18:35:03Z</time>
      </trkpt>
      <trkpt lat="62.63247537758" lon="17.969477222605">
        <ele>66.8</ele>
        <time>2018-03-19T18:35:04Z</time>
      </trkpt>
      <trkpt lat="62.632502786393" lon="17.969481748831">
        <ele>66.6</ele>
        <time>2018-03-19T18:35:05Z</time>
      </trkpt>
      <trkpt lat="62.632536062536" lon="17.969489292541">
        <ele>66.4</ele>
        <time>2018-03-19T18:35:06Z</time>
      </trkpt>
      <trkpt lat="62.632564812453" lon="17.969497422984">
        <ele>66.6</ele>
        <time>2018-03-19T18:35:07Z</time>
      </trkpt>
      <trkpt lat="62.632594316741" lon="17.969506307798">
        <ele>66.6</ele>
        <time>2018-03-19T18:35:08Z</time>
      </trkpt>
      <trkpt lat="62.632624156305" lon="17.969518210096">
        <ele>66.2</ele>
        <time>2018-03-19T18:35:09Z</time>
      </trkpt>
      <trkpt lat="62.632652068032" lon="17.969522484865">
        <ele>66.2</ele>
        <time>2018-03-19T18:35:10Z</time>
      </trkpt>
      <trkpt lat="62.632681488501" lon="17.969524412702">
        <ele>66</ele>
        <time>2018-03-19T18:35:11Z</time>
      </trkpt>
      <trkpt lat="62.632707053296" lon="17.969527346367">
        <ele>65.8</ele>
        <time>2018-03-19T18:35:12Z</time>
      </trkpt>
      <trkpt lat="62.632737479593" lon="17.969530531489">
        <ele>65.6</ele>
        <time>2018-03-19T18:35:13Z</time>
      </trkpt>
      <trkpt lat="62.632766983881" lon="17.969533046059">
        <ele>65.6</ele>
        <time>2018-03-19T18:35:14Z</time>
      </trkpt>
      <trkpt lat="62.632795985255" lon="17.969531872593">
        <ele>65.8</ele>
        <time>2018-03-19T18:35:15Z</time>
      </trkpt>
      <trkpt lat="62.63282406462" lon="17.969529022747">
        <ele>66</ele>
        <time>2018-03-19T18:35:16Z</time>
      </trkpt>
      <trkpt lat="62.632852982175" lon="17.969522987779">
        <ele>66</ele>
        <time>2018-03-19T18:35:17Z</time>
      </trkpt>
      <trkpt lat="62.632884079024" lon="17.969514438241">
        <ele>66.2</ele>
        <time>2018-03-19T18:35:18Z</time>
      </trkpt>
      <trkpt lat="62.632912828941" lon="17.969513767689">
        <ele>66.4</ele>
        <time>2018-03-19T18:35:19Z</time>
      </trkpt>
      <trkpt lat="62.632941075944" lon="17.969516366078">
        <ele>66.4</ele>
        <time>2018-03-19T18:35:20Z</time>
      </trkpt>
      <trkpt lat="62.632973932992" lon="17.96951619844">
        <ele>66.2</ele>
        <time>2018-03-19T18:35:21Z</time>
      </trkpt>
      <trkpt lat="62.632998994873" lon="17.969517623363">
        <ele>66.4</ele>
        <time>2018-03-19T18:35:22Z</time>
      </trkpt>
      <trkpt lat="62.633029840265" lon="17.969527430186">
        <ele>66.4</ele>
        <time>2018-03-19T18:35:23Z</time>
      </trkpt>
      <trkpt lat="62.633057416716" lon="17.96953882957">
        <ele>66.8</ele>
        <time>2018-03-19T18:35:24Z</time>
      </trkpt>
      <trkpt lat="62.633086585728" lon="17.969554000809">
        <ele>66.6</ele>
        <time>2018-03-19T18:35:25Z</time>
      </trkpt>
      <trkpt lat="62.633114581274" lon="17.969565316374">
        <ele>67</ele>
        <time>2018-03-19T18:35:26Z</time>
      </trkpt>
      <trkpt lat="62.633142241544" lon="17.969578475957">
        <ele>67</ele>
        <time>2018-03-19T18:35:27Z</time>
      </trkpt>
      <trkpt lat="62.633168728348" lon="17.969593479558">
        <ele>67.4</ele>
        <time>2018-03-19T18:35:28Z</time>
      </trkpt>
      <trkpt lat="62.633196388618" lon="17.969604795123">
        <ele>67.6</ele>
        <time>2018-03-19T18:35:29Z</time>
      </trkpt>
      <trkpt lat="62.633224803259" lon="17.969612003557">
        <ele>67.6</ele>
        <time>2018-03-19T18:35:30Z</time>
      </trkpt>
      <trkpt lat="62.633254139909" lon="17.969622229475">
        <ele>67.8</ele>
        <time>2018-03-19T18:35:31Z</time>
      </trkpt>
      <trkpt lat="62.633280794351" lon="17.969631784841">
        <ele>67.8</ele>
        <time>2018-03-19T18:35:32Z</time>
      </trkpt>
      <trkpt lat="62.633309125173" lon="17.969648716279">
        <ele>67.8</ele>
        <time>2018-03-19T18:35:33Z</time>
      </trkpt>
      <trkpt lat="62.633331085751" lon="17.969673526703">
        <ele>67.8</ele>
        <time>2018-03-19T18:35:34Z</time>
      </trkpt>
      <trkpt lat="62.633351872863" lon="17.969708563045">
        <ele>68</ele>
        <time>2018-03-19T18:35:35Z</time>
      </trkpt>
      <trkpt lat="62.633366708826" lon="17.969759608816">
        <ele>68</ele>
        <time>2018-03-19T18:35:36Z</time>
      </trkpt>
      <trkpt lat="62.63337475545" lon="17.969811911872">
        <ele>68.2</ele>
        <time>2018-03-19T18:35:37Z</time>
      </trkpt>
      <trkpt lat="62.633377856753" lon="17.969879050891">
        <ele>68.4</ele>
        <time>2018-03-19T18:35:38Z</time>
      </trkpt>
      <trkpt lat="62.633380455142" lon="17.96994032258">
        <ele>68.6</ele>
        <time>2018-03-19T18:35:39Z</time>
      </trkpt>
      <trkpt lat="62.633383472626" lon="17.969998660604">
        <ele>68.8</ele>
        <time>2018-03-19T18:35:40Z</time>
      </trkpt>
      <trkpt lat="62.633388920861" lon="17.970062279225">
        <ele>68.8</ele>
        <time>2018-03-19T18:35:41Z</time>
      </trkpt>
      <trkpt lat="62.633396464571" lon="17.970123215638">
        <ele>69</ele>
        <time>2018-03-19T18:35:42Z</time>
      </trkpt>
      <trkpt lat="62.633403421548" lon="17.970189767924">
        <ele>69</ele>
        <time>2018-03-19T18:35:43Z</time>
      </trkpt>
      <trkpt lat="62.633406690489" lon="17.970249949966">
        <ele>69.4</ele>
        <time>2018-03-19T18:35:44Z</time>
      </trkpt>
      <trkpt lat="62.633408785964" lon="17.970312395121">
        <ele>69.4</ele>
        <time>2018-03-19T18:35:45Z</time>
      </trkpt>
      <trkpt lat="62.633411971086" lon="17.970372158068">
        <ele>69.4</ele>
        <time>2018-03-19T18:35:46Z</time>
      </trkpt>
      <trkpt lat="62.633415156208" lon="17.970430999006">
        <ele>69.6</ele>
        <time>2018-03-19T18:35:47Z</time>
      </trkpt>
      <trkpt lat="62.633417586959" lon="17.970495371998">
        <ele>69.8</ele>
        <time>2018-03-19T18:35:48Z</time>
      </trkpt>
      <trkpt lat="62.633420520624" lon="17.970556308411">
        <ele>70</ele>
        <time>2018-03-19T18:35:49Z</time>
      </trkpt>
      <trkpt lat="62.633424543936" lon="17.97061087458">
        <ele>70.2</ele>
        <time>2018-03-19T18:35:50Z</time>
      </trkpt>
      <trkpt lat="62.633427645239" lon="17.970672816821">
        <ele>70.4</ele>
        <time>2018-03-19T18:35:51Z</time>
      </trkpt>
      <trkpt lat="62.633429656895" lon="17.970725958067">
        <ele>70.4</ele>
        <time>2018-03-19T18:35:52Z</time>
      </trkpt>
      <trkpt lat="62.63343091418" lon="17.970798377683">
        <ele>70.6</ele>
        <time>2018-03-19T18:35:53Z</time>
      </trkpt>
      <trkpt lat="62.63343342875" lon="17.970863505046">
        <ele>70.8</ele>
        <time>2018-03-19T18:35:54Z</time>
      </trkpt>
      <trkpt lat="62.633435859501" lon="17.970927123667">
        <ele>71.2</ele>
        <time>2018-03-19T18:35:55Z</time>
      </trkpt>
      <trkpt lat="62.633437703519" lon="17.970991245202">
        <ele>71.6</ele>
        <time>2018-03-19T18:35:56Z</time>
      </trkpt>
      <trkpt lat="62.63344181065" lon="17.971050505235">
        <ele>71.8</ele>
        <time>2018-03-19T18:35:57Z</time>
      </trkpt>
      <trkpt lat="62.633443067935" lon="17.971116554607">
        <ele>72.2</ele>
        <time>2018-03-19T18:35:58Z</time>
      </trkpt>
      <trkpt lat="62.633441475374" lon="17.971183442169">
        <ele>72.2</ele>
        <time>2018-03-19T18:35:59Z</time>
      </trkpt>
      <trkpt lat="62.633444157582" lon="17.971250497369">
        <ele>72.4</ele>
        <time>2018-03-19T18:36:00Z</time>
      </trkpt>
      <trkpt lat="62.633442732659" lon="17.97131495418">
        <ele>72.4</ele>
        <time>2018-03-19T18:36:01Z</time>
      </trkpt>
      <trkpt lat="62.633440553365" lon="17.97137530386">
        <ele>72.4</ele>
        <time>2018-03-19T18:36:02Z</time>
      </trkpt>
      <trkpt lat="62.633438625528" lon="17.971443448707">
        <ele>72.4</ele>
        <time>2018-03-19T18:36:03Z</time>
      </trkpt>
      <trkpt lat="62.633439715175" lon="17.971504301301">
        <ele>72.4</ele>
        <time>2018-03-19T18:36:04Z</time>
      </trkpt>
      <trkpt lat="62.633439715175" lon="17.971569596302">
        <ele>72.4</ele>
        <time>2018-03-19T18:36:05Z</time>
      </trkpt>
      <trkpt lat="62.633437452062" lon="17.971637992606">
        <ele>72.2</ele>
        <time>2018-03-19T18:36:06Z</time>
      </trkpt>
      <trkpt lat="62.633435608044" lon="17.971700689218">
        <ele>72</ele>
        <time>2018-03-19T18:36:07Z</time>
      </trkpt>
      <trkpt lat="62.633428902524" lon="17.9717659004">
        <ele>72.2</ele>
        <time>2018-03-19T18:36:08Z</time>
      </trkpt>
      <trkpt lat="62.633423873384" lon="17.97182541189">
        <ele>72.8</ele>
        <time>2018-03-19T18:36:09Z</time>
      </trkpt>
      <trkpt lat="62.633419682434" lon="17.971881402982">
        <ele>72.8</ele>
        <time>2018-03-19T18:36:10Z</time>
      </trkpt>
      <trkpt lat="62.633413144552" lon="17.971944183413">
        <ele>73</ele>
        <time>2018-03-19T18:36:11Z</time>
      </trkpt>
      <trkpt lat="62.633405684661" lon="17.971999587772">
        <ele>73.2</ele>
        <time>2018-03-19T18:36:12Z</time>
      </trkpt>
      <trkpt lat="62.633394955829" lon="17.972060356547">
        <ele>73.4</ele>
        <time>2018-03-19T18:36:13Z</time>
      </trkpt>
      <trkpt lat="62.633386406291" lon="17.972115341811">
        <ele>73.6</ele>
        <time>2018-03-19T18:36:14Z</time>
      </trkpt>
      <trkpt lat="62.633378275848" lon="17.972174350387">
        <ele>73.8</ele>
        <time>2018-03-19T18:36:15Z</time>
      </trkpt>
      <trkpt lat="62.633369893948" lon="17.972229922384">
        <ele>73.6</ele>
        <time>2018-03-19T18:36:16Z</time>
      </trkpt>
      <trkpt lat="62.633360003306" lon="17.972286081114">
        <ele>73.2</ele>
        <time>2018-03-19T18:36:17Z</time>
      </trkpt>
      <trkpt lat="62.633349358293" lon="17.972341904568">
        <ele>73</ele>
        <time>2018-03-19T18:36:18Z</time>
      </trkpt>
      <trkpt lat="62.633338126547" lon="17.972392782701">
        <ele>72.6</ele>
        <time>2018-03-19T18:36:19Z</time>
      </trkpt>
      <trkpt lat="62.633326643344" lon="17.972443493196">
        <ele>72.2</ele>
        <time>2018-03-19T18:36:20Z</time>
      </trkpt>
      <trkpt lat="62.633314657227" lon="17.972497975546">
        <ele>72</ele>
        <time>2018-03-19T18:36:21Z</time>
      </trkpt>
      <trkpt lat="62.633304431309" lon="17.972546339109">
        <ele>72</ele>
        <time>2018-03-19T18:36:22Z</time>
      </trkpt>
      <trkpt lat="62.633290684993" lon="17.972610041549">
        <ele>71.8</ele>
        <time>2018-03-19T18:36:23Z</time>
      </trkpt>
      <trkpt lat="62.63328003998" lon="17.972665362089">
        <ele>72.4</ele>
        <time>2018-03-19T18:36:24Z</time>
      </trkpt>
      <trkpt lat="62.633268640596" lon="17.972720095896">
        <ele>73.2</ele>
        <time>2018-03-19T18:36:25Z</time>
      </trkpt>
      <trkpt lat="62.633258582316" lon="17.972770722572">
        <ele>74.2</ele>
        <time>2018-03-19T18:36:26Z</time>
      </trkpt>
      <trkpt lat="62.63324735057" lon="17.972826965121">
        <ele>74.4</ele>
        <time>2018-03-19T18:36:27Z</time>
      </trkpt>
      <trkpt lat="62.633234107168" lon="17.972883375308">
        <ele>74.8</ele>
        <time>2018-03-19T18:36:28Z</time>
      </trkpt>
      <trkpt lat="62.633220109395" lon="17.972945569006">
        <ele>75.4</ele>
        <time>2018-03-19T18:36:29Z</time>
      </trkpt>
      <trkpt lat="62.633208039459" lon="17.973006924514">
        <ele>75.6</ele>
        <time>2018-03-19T18:36:30Z</time>
      </trkpt>
      <trkpt lat="62.633195634247" lon="17.973068028565">
        <ele>75.6</ele>
        <time>2018-03-19T18:36:31Z</time>
      </trkpt>
      <trkpt lat="62.633184821596" lon="17.973119744888">
        <ele>75.8</ele>
        <time>2018-03-19T18:36:32Z</time>
      </trkpt>
      <trkpt lat="62.633170488547" lon="17.973180681301">
        <ele>75.6</ele>
        <time>2018-03-19T18:36:33Z</time>
      </trkpt>
      <trkpt lat="62.633159089163" lon="17.973235834203">
        <ele>75.8</ele>
        <time>2018-03-19T18:36:34Z</time>
      </trkpt>
      <trkpt lat="62.633146181037" lon="17.973298363177">
        <ele>76.2</ele>
        <time>2018-03-19T18:36:35Z</time>
      </trkpt>
      <trkpt lat="62.633132769997" lon="17.973361981798">
        <ele>76.2</ele>
        <time>2018-03-19T18:36:36Z</time>
      </trkpt>
      <trkpt lat="62.633120364785" lon="17.973419146356">
        <ele>76</ele>
        <time>2018-03-19T18:36:37Z</time>
      </trkpt>
      <trkpt lat="62.633105109727" lon="17.973480753321">
        <ele>75.8</ele>
        <time>2018-03-19T18:36:38Z</time>
      </trkpt>
      <trkpt lat="62.63309144723" lon="17.973534062205">
        <ele>75.6</ele>
        <time>2018-03-19T18:36:39Z</time>
      </trkpt>
      <trkpt lat="62.633078958199" lon="17.973585359433">
        <ele>75.2</ele>
        <time>2018-03-19T18:36:40Z</time>
      </trkpt>
      <trkpt lat="62.63306462515" lon="17.973645625294">
        <ele>74.8</ele>
        <time>2018-03-19T18:36:41Z</time>
      </trkpt>
      <trkpt lat="62.633052219938" lon="17.97369960473">
        <ele>74.8</ele>
        <time>2018-03-19T18:36:42Z</time>
      </trkpt>
      <trkpt lat="62.63303696488" lon="17.973758529487">
        <ele>74.8</ele>
        <time>2018-03-19T18:36:43Z</time>
      </trkpt>
      <trkpt lat="62.633021793641" lon="17.973813095656">
        <ele>74.8</ele>
        <time>2018-03-19T18:36:44Z</time>
      </trkpt>
      <trkpt lat="62.633006873859" lon="17.973871852775">
        <ele>74.8</ele>
        <time>2018-03-19T18:36:45Z</time>
      </trkpt>
      <trkpt lat="62.63299170262" lon="17.97392675422">
        <ele>74.8</ele>
        <time>2018-03-19T18:36:46Z</time>
      </trkpt>
      <trkpt lat="62.632975357915" lon="17.973987020081">
        <ele>74.6</ele>
        <time>2018-03-19T18:36:47Z</time>
      </trkpt>
      <trkpt lat="62.632956163364" lon="17.974050554883">
        <ele>74.6</ele>
        <time>2018-03-19T18:36:48Z</time>
      </trkpt>
      <trkpt lat="62.63294057303" lon="17.974108054717">
        <ele>74.8</ele>
        <time>2018-03-19T18:36:49Z</time>
      </trkpt>
      <trkpt lat="62.632924060687" lon="17.974161279782">
        <ele>75</ele>
        <time>2018-03-19T18:36:50Z</time>
      </trkpt>
      <trkpt lat="62.632905452869" lon="17.974224395489">
        <ele>75.4</ele>
        <time>2018-03-19T18:36:51Z</time>
      </trkpt>
      <trkpt lat="62.632889024345" lon="17.974272172319">
        <ele>75.6</ele>
        <time>2018-03-19T18:36:52Z</time>
      </trkpt>
      <trkpt lat="62.632864716835" lon="17.97432740904">
        <ele>76</ele>
        <time>2018-03-19T18:36:53Z</time>
      </trkpt>
      <trkpt lat="62.632841834248" lon="17.974372168386">
        <ele>76.4</ele>
        <time>2018-03-19T18:36:54Z</time>
      </trkpt>
      <trkpt lat="62.632814676892" lon="17.974415586628">
        <ele>77.2</ele>
        <time>2018-03-19T18:36:55Z</time>
      </trkpt>
      <trkpt lat="62.632783663862" lon="17.974441570518">
        <ele>77.6</ele>
        <time>2018-03-19T18:36:56Z</time>
      </trkpt>
      <trkpt lat="62.632756003592" lon="17.974444336545">
        <ele>77.8</ele>
        <time>2018-03-19T18:36:57Z</time>
      </trkpt>
      <trkpt lat="62.632725242019" lon="17.974431512238">
        <ele>78.2</ele>
        <time>2018-03-19T18:36:58Z</time>
      </trkpt>
      <trkpt lat="62.632694731903" lon="17.974417346827">
        <ele>78.4</ele>
        <time>2018-03-19T18:36:59Z</time>
      </trkpt>
      <trkpt lat="62.6326664849" lon="17.974405528348">
        <ele>78.4</ele>
        <time>2018-03-19T18:37:00Z</time>
      </trkpt>
      <trkpt lat="62.632636142422" lon="17.974387171987">
        <ele>77.8</ele>
        <time>2018-03-19T18:37:01Z</time>
      </trkpt>
      <trkpt lat="62.632605632306" lon="17.974369989092">
        <ele>77.2</ele>
        <time>2018-03-19T18:37:02Z</time>
      </trkpt>
      <trkpt lat="62.632580821882" lon="17.974353728206">
        <ele>76.8</ele>
        <time>2018-03-19T18:37:03Z</time>
      </trkpt>
      <trkpt lat="62.632558106933" lon="17.974342161184">
        <ele>76.4</ele>
        <time>2018-03-19T18:37:04Z</time>
      </trkpt>
      <trkpt lat="62.632532877414" lon="17.974325565022">
        <ele>76.4</ele>
        <time>2018-03-19T18:37:05Z</time>
      </trkpt>
      <trkpt lat="62.632505720058" lon="17.974298156209">
        <ele>76.2</ele>
        <time>2018-03-19T18:37:06Z</time>
      </trkpt>
      <trkpt lat="62.632483508023" lon="17.974267562274">
        <ele>76.2</ele>
        <time>2018-03-19T18:37:07Z</time>
      </trkpt>
      <trkpt lat="62.632455009563" lon="17.974231352466">
        <ele>76.2</ele>
        <time>2018-03-19T18:37:08Z</time>
      </trkpt>
      <trkpt lat="62.632427265474" lon="17.97420000416">
        <ele>76.2</ele>
        <time>2018-03-19T18:37:09Z</time>
      </trkpt>
      <trkpt lat="62.632401868317" lon="17.974173601175">
        <ele>76.2</ele>
        <time>2018-03-19T18:37:10Z</time>
      </trkpt>
      <trkpt lat="62.632375046237" lon="17.974139822118">
        <ele>76.2</ele>
        <time>2018-03-19T18:37:11Z</time>
      </trkpt>
      <trkpt lat="62.632349900537" lon="17.974113000038">
        <ele>76.2</ele>
        <time>2018-03-19T18:37:12Z</time>
      </trkpt>
      <trkpt lat="62.632320060973" lon="17.974078969524">
        <ele>76.2</ele>
        <time>2018-03-19T18:37:13Z</time>
      </trkpt>
      <trkpt lat="62.632292903617" lon="17.974043346449">
        <ele>76.2</ele>
        <time>2018-03-19T18:37:14Z</time>
      </trkpt>
      <trkpt lat="62.632263483148" lon="17.974010237944">
        <ele>76.2</ele>
        <time>2018-03-19T18:37:15Z</time>
      </trkpt>
      <trkpt lat="62.63223649343" lon="17.973978051448">
        <ele>76</ele>
        <time>2018-03-19T18:37:16Z</time>
      </trkpt>
      <trkpt lat="62.632209838988" lon="17.973948379522">
        <ele>76.2</ele>
        <time>2018-03-19T18:37:17Z</time>
      </trkpt>
      <trkpt lat="62.632180083243" lon="17.973917785587">
        <ele>76.2</ele>
        <time>2018-03-19T18:37:18Z</time>
      </trkpt>
      <trkpt lat="62.632148902575" lon="17.97388568291">
        <ele>76.2</ele>
        <time>2018-03-19T18:37:19Z</time>
      </trkpt>
      <trkpt lat="62.632120907029" lon="17.973858190278">
        <ele>76.2</ele>
        <time>2018-03-19T18:37:20Z</time>
      </trkpt>
      <trkpt lat="62.632084361945" lon="17.973835978243">
        <ele>76.2</ele>
        <time>2018-03-19T18:37:21Z</time>
      </trkpt>
      <trkpt lat="62.632052259268" lon="17.973812844199">
        <ele>76</ele>
        <time>2018-03-19T18:37:22Z</time>
      </trkpt>
      <trkpt lat="62.632015965641" lon="17.973783926644">
        <ele>76.2</ele>
        <time>2018-03-19T18:37:23Z</time>
      </trkpt>
      <trkpt lat="62.631984868792" lon="17.97375576346">
        <ele>76.8</ele>
        <time>2018-03-19T18:37:24Z</time>
      </trkpt>
      <trkpt lat="62.631956035056" lon="17.973723241688">
        <ele>77.2</ele>
        <time>2018-03-19T18:37:25Z</time>
      </trkpt>
      <trkpt lat="62.631925860216" lon="17.973688959717">
        <ele>78</ele>
        <time>2018-03-19T18:37:26Z</time>
      </trkpt>
      <trkpt lat="62.631901971801" lon="17.973658365782">
        <ele>78.2</ele>
        <time>2018-03-19T18:37:27Z</time>
      </trkpt>
      <trkpt lat="62.631873892436" lon="17.97362416763">
        <ele>78.6</ele>
        <time>2018-03-19T18:37:28Z</time>
      </trkpt>
      <trkpt lat="62.631845645433" lon="17.973586197623">
        <ele>78.2</ele>
        <time>2018-03-19T18:37:29Z</time>
      </trkpt>
      <trkpt lat="62.631815805869" lon="17.973549149625">
        <ele>77.8</ele>
        <time>2018-03-19T18:37:30Z</time>
      </trkpt>
      <trkpt lat="62.631788564694" lon="17.973511347256">
        <ele>77</ele>
        <time>2018-03-19T18:37:31Z</time>
      </trkpt>
      <trkpt lat="62.631764089546" lon="17.973478406389">
        <ele>77</ele>
        <time>2018-03-19T18:37:32Z</time>
      </trkpt>
      <trkpt lat="62.631733747068" lon="17.973443872961">
        <ele>76.8</ele>
        <time>2018-03-19T18:37:33Z</time>
      </trkpt>
      <trkpt lat="62.631704326599" lon="17.973417050881">
        <ele>76.4</ele>
        <time>2018-03-19T18:37:34Z</time>
      </trkpt>
      <trkpt lat="62.631673145931" lon="17.973394084475">
        <ele>76.4</ele>
        <time>2018-03-19T18:37:35Z</time>
      </trkpt>
      <trkpt lat="62.631638361046" lon="17.973388468602">
        <ele>76.2</ele>
        <time>2018-03-19T18:37:36Z</time>
      </trkpt>
      <trkpt lat="62.631610197862" lon="17.973398191606">
        <ele>76.2</ele>
        <time>2018-03-19T18:37:37Z</time>
      </trkpt>
      <trkpt lat="62.631578095185" lon="17.973422331478">
        <ele>75.8</ele>
        <time>2018-03-19T18:37:38Z</time>
      </trkpt>
      <trkpt lat="62.631548423259" lon="17.973446136074">
        <ele>75.6</ele>
        <time>2018-03-19T18:37:39Z</time>
      </trkpt>
      <trkpt lat="62.631521852636" lon="17.973473796344">
        <ele>75.4</ele>
        <time>2018-03-19T18:37:40Z</time>
      </trkpt>
      <trkpt lat="62.631490671968" lon="17.973507994496">
        <ele>75.2</ele>
        <time>2018-03-19T18:37:41Z</time>
      </trkpt>
      <trkpt lat="62.631464185164" lon="17.973540516268">
        <ele>75.2</ele>
        <time>2018-03-19T18:37:42Z</time>
      </trkpt>
      <trkpt lat="62.631432166306" lon="17.973581503759">
        <ele>75.2</ele>
        <time>2018-03-19T18:37:43Z</time>
      </trkpt>
      <trkpt lat="62.631403500208" lon="17.973620898689">
        <ele>75.2</ele>
        <time>2018-03-19T18:37:44Z</time>
      </trkpt>
      <trkpt lat="62.631375588481" lon="17.973651744081">
        <ele>75.2</ele>
        <time>2018-03-19T18:37:45Z</time>
      </trkpt>
      <trkpt lat="62.631347341478" lon="17.973684433491">
        <ele>75.2</ele>
        <time>2018-03-19T18:37:46Z</time>
      </trkpt>
      <trkpt lat="62.631315154982" lon="17.973712764313">
        <ele>75.2</ele>
        <time>2018-03-19T18:37:47Z</time>
      </trkpt>
      <trkpt lat="62.631283387581" lon="17.973744112619">
        <ele>75</ele>
        <time>2018-03-19T18:37:48Z</time>
      </trkpt>
      <trkpt lat="62.631251871637" lon="17.973773449269">
        <ele>74.8</ele>
        <time>2018-03-19T18:37:49Z</time>
      </trkpt>
      <trkpt lat="62.631220774788" lon="17.973804127023">
        <ele>74.4</ele>
        <time>2018-03-19T18:37:50Z</time>
      </trkpt>
      <trkpt lat="62.631190264672" lon="17.973835307691">
        <ele>74.2</ele>
        <time>2018-03-19T18:37:51Z</time>
      </trkpt>
      <trkpt lat="62.63116193385" lon="17.973860872486">
        <ele>74.2</ele>
        <time>2018-03-19T18:37:52Z</time>
      </trkpt>
      <trkpt lat="62.631123963843" lon="17.973891717878">
        <ele>74.2</ele>
        <time>2018-03-19T18:37:53Z</time>
      </trkpt>
      <trkpt lat="62.631089430415" lon="17.973911080067">
        <ele>74.4</ele>
        <time>2018-03-19T18:37:54Z</time>
      </trkpt>
      <trkpt lat="62.631055651358" lon="17.973914935741">
        <ele>74.4</ele>
        <time>2018-03-19T18:37:55Z</time>
      </trkpt>
      <trkpt lat="62.63102279431" lon="17.973913175542">
        <ele>74.4</ele>
        <time>2018-03-19T18:37:56Z</time>
      </trkpt>
      <trkpt lat="62.630992703289" lon="17.973902530529">
        <ele>74.4</ele>
        <time>2018-03-19T18:37:57Z</time>
      </trkpt>
      <trkpt lat="62.63095909187" lon="17.973876043725">
        <ele>74.6</ele>
        <time>2018-03-19T18:37:58Z</time>
      </trkpt>
      <trkpt lat="62.630929252306" lon="17.973837319347">
        <ele>74.6</ele>
        <time>2018-03-19T18:37:59Z</time>
      </trkpt>
      <trkpt lat="62.630899748018" lon="17.973788285232">
        <ele>74.4</ele>
        <time>2018-03-19T18:38:00Z</time>
      </trkpt>
      <trkpt lat="62.630870076092" lon="17.973732629416">
        <ele>74.2</ele>
        <time>2018-03-19T18:38:01Z</time>
      </trkpt>
      <trkpt lat="62.6308476126" lon="17.973673704659">
        <ele>74.2</ele>
        <time>2018-03-19T18:38:02Z</time>
      </trkpt>
      <trkpt lat="62.63082414328" lon="17.973607152373">
        <ele>74.2</ele>
        <time>2018-03-19T18:38:03Z</time>
      </trkpt>
      <trkpt lat="62.630806625109" lon="17.973546467417">
        <ele>74.2</ele>
        <time>2018-03-19T18:38:04Z</time>
      </trkpt>
      <trkpt lat="62.630780976495" lon="17.973477987294">
        <ele>73.8</ele>
        <time>2018-03-19T18:38:05Z</time>
      </trkpt>
      <trkpt lat="62.630756333709" lon="17.973419062537">
        <ele>73.6</ele>
        <time>2018-03-19T18:38:06Z</time>
      </trkpt>
      <trkpt lat="62.630735462778" lon="17.973358545219">
        <ele>73.2</ele>
        <time>2018-03-19T18:38:07Z</time>
      </trkpt>
      <trkpt lat="62.630715346218" lon="17.973288304897">
        <ele>73</ele>
        <time>2018-03-19T18:38:08Z</time>
      </trkpt>
      <trkpt lat="62.630698666237" lon="17.97322854195">
        <ele>72.8</ele>
        <time>2018-03-19T18:38:09Z</time>
      </trkpt>
      <trkpt lat="62.630678717315" lon="17.973174311057">
        <ele>72.6</ele>
        <time>2018-03-19T18:38:10Z</time>
      </trkpt>
      <trkpt lat="62.630657762565" lon="17.973108513142">
        <ele>72.4</ele>
        <time>2018-03-19T18:38:11Z</time>
      </trkpt>
      <trkpt lat="62.630641585498" lon="17.973052689688">
        <ele>72.4</ele>
        <time>2018-03-19T18:38:12Z</time>
      </trkpt>
      <trkpt lat="62.630620546929" lon="17.972976917312">
        <ele>72.4</ele>
        <time>2018-03-19T18:38:13Z</time>
      </trkpt>
      <trkpt lat="62.630603615491" lon="17.97290919156">
        <ele>72.4</ele>
        <time>2018-03-19T18:38:14Z</time>
      </trkpt>
      <trkpt lat="62.630584588578" lon="17.972843896559">
        <ele>72.2</ele>
        <time>2018-03-19T18:38:15Z</time>
      </trkpt>
      <trkpt lat="62.630567070407" lon="17.972786648182">
        <ele>72.2</ele>
        <time>2018-03-19T18:38:16Z</time>
      </trkpt>
      <trkpt lat="62.630549384598" lon="17.972725208855">
        <ele>72.2</ele>
        <time>2018-03-19T18:38:17Z</time>
      </trkpt>
      <trkpt lat="62.630533375169" lon="17.972654717076">
        <ele>72.2</ele>
        <time>2018-03-19T18:38:18Z</time>
      </trkpt>
      <trkpt lat="62.630519461215" lon="17.972588667704">
        <ele>72</ele>
        <time>2018-03-19T18:38:19Z</time>
      </trkpt>
      <trkpt lat="62.630505882537" lon="17.972520439038">
        <ele>72</ele>
        <time>2018-03-19T18:38:20Z</time>
      </trkpt>
      <trkpt lat="62.630493812601" lon="17.972451288363">
        <ele>71.8</ele>
        <time>2018-03-19T18:38:21Z</time>
      </trkpt>
      <trkpt lat="62.630485095425" lon="17.972396638375">
        <ele>71.6</ele>
        <time>2018-03-19T18:38:22Z</time>
      </trkpt>
      <trkpt lat="62.630473193127" lon="17.972323799664">
        <ele>71.6</ele>
        <time>2018-03-19T18:38:23Z</time>
      </trkpt>
      <trkpt lat="62.630463218666" lon="17.972251966781">
        <ele>71.6</ele>
        <time>2018-03-19T18:38:24Z</time>
      </trkpt>
      <trkpt lat="62.6304536633" lon="17.972179547165">
        <ele>71.6</ele>
        <time>2018-03-19T18:38:25Z</time>
      </trkpt>
      <trkpt lat="62.6304452814" lon="17.972107211368">
        <ele>71.2</ele>
        <time>2018-03-19T18:38:26Z</time>
      </trkpt>
      <trkpt lat="62.630436731862" lon="17.972052142285">
        <ele>71</ele>
        <time>2018-03-19T18:38:27Z</time>
      </trkpt>
      <trkpt lat="62.630427260315" lon="17.971984584171">
        <ele>70.6</ele>
        <time>2018-03-19T18:38:28Z</time>
      </trkpt>
      <trkpt lat="62.630418124044" lon="17.971914762944">
        <ele>70.2</ele>
        <time>2018-03-19T18:38:29Z</time>
      </trkpt>
      <trkpt lat="62.630407898126" lon="17.971843684432">
        <ele>70</ele>
        <time>2018-03-19T18:38:30Z</time>
      </trkpt>
      <trkpt lat="62.630395492914" lon="17.971765984219">
        <ele>70</ele>
        <time>2018-03-19T18:38:31Z</time>
      </trkpt>
      <trkpt lat="62.6303866081" lon="17.971702784693">
        <ele>70</ele>
        <time>2018-03-19T18:38:32Z</time>
      </trkpt>
      <trkpt lat="62.630378561476" lon="17.971633717837">
        <ele>70.2</ele>
        <time>2018-03-19T18:38:33Z</time>
      </trkpt>
      <trkpt lat="62.630368754653" lon="17.971560040936">
        <ele>70.2</ele>
        <time>2018-03-19T18:38:34Z</time>
      </trkpt>
      <trkpt lat="62.630356936174" lon="17.971475299927">
        <ele>70</ele>
        <time>2018-03-19T18:38:35Z</time>
      </trkpt>
      <trkpt lat="62.630346207342" lon="17.97139374404">
        <ele>70</ele>
        <time>2018-03-19T18:38:36Z</time>
      </trkpt>
      <trkpt lat="62.630340088555" lon="17.971317887845">
        <ele>70</ele>
        <time>2018-03-19T18:38:37Z</time>
      </trkpt>
      <trkpt lat="62.630335227053" lon="17.971232476284">
        <ele>69.8</ele>
        <time>2018-03-19T18:38:38Z</time>
      </trkpt>
      <trkpt lat="62.630330533189" lon="17.971151339492">
        <ele>69.8</ele>
        <time>2018-03-19T18:38:39Z</time>
      </trkpt>
      <trkpt lat="62.630328521533" lon="17.971077075858">
        <ele>69.6</ele>
        <time>2018-03-19T18:38:40Z</time>
      </trkpt>
      <trkpt lat="62.630328102438" lon="17.970997447808">
        <ele>69.6</ele>
        <time>2018-03-19T18:38:41Z</time>
      </trkpt>
      <trkpt lat="62.630332293388" lon="17.970927375124">
        <ele>69.6</ele>
        <time>2018-03-19T18:38:42Z</time>
      </trkpt>
      <trkpt lat="62.630335813786" lon="17.970838778441">
        <ele>69.6</ele>
        <time>2018-03-19T18:38:43Z</time>
      </trkpt>
      <trkpt lat="62.630340004736" lon="17.970753199242">
        <ele>69.4</ele>
        <time>2018-03-19T18:38:44Z</time>
      </trkpt>
      <trkpt lat="62.630343106039" lon="17.970668877328">
        <ele>69.4</ele>
        <time>2018-03-19T18:38:45Z</time>
      </trkpt>
      <trkpt lat="62.630349979197" lon="17.970585980337">
        <ele>69.4</ele>
        <time>2018-03-19T18:38:46Z</time>
      </trkpt>
      <trkpt lat="62.630369341386" lon="17.970511465246">
        <ele>69.4</ele>
        <time>2018-03-19T18:38:47Z</time>
      </trkpt>
      <trkpt lat="62.630402617529" lon="17.970442314571">
        <ele>69.2</ele>
        <time>2018-03-19T18:38:48Z</time>
      </trkpt>
      <trkpt lat="62.630441593364" lon="17.970386407298">
        <ele>68.8</ele>
        <time>2018-03-19T18:38:49Z</time>
      </trkpt>
      <trkpt lat="62.630479479552" lon="17.970340306848">
        <ele>68.4</ele>
        <time>2018-03-19T18:38:50Z</time>
      </trkpt>
      <trkpt lat="62.630520634681" lon="17.970301079556">
        <ele>67.6</ele>
        <time>2018-03-19T18:38:51Z</time>
      </trkpt>
      <trkpt lat="62.630556173937" lon="17.970269563612">
        <ele>67</ele>
        <time>2018-03-19T18:38:52Z</time>
      </trkpt>
      <trkpt lat="62.630598251075" lon="17.970229917225">
        <ele>66.8</ele>
        <time>2018-03-19T18:38:53Z</time>
      </trkpt>
      <trkpt lat="62.630638819471" lon="17.970193539779">
        <ele>66.4</ele>
        <time>2018-03-19T18:38:54Z</time>
      </trkpt>
      <trkpt lat="62.63067913641" lon="17.970160682731">
        <ele>66.4</ele>
        <time>2018-03-19T18:38:55Z</time>
      </trkpt>
      <trkpt lat="62.630720040082" lon="17.970133776832">
        <ele>66.6</ele>
        <time>2018-03-19T18:38:56Z</time>
      </trkpt>
      <trkpt lat="62.630754908786" lon="17.970116258661">
        <ele>66.6</ele>
        <time>2018-03-19T18:38:57Z</time>
      </trkpt>
      <trkpt lat="62.630793214069" lon="17.9701062842">
        <ele>66.6</ele>
        <time>2018-03-19T18:38:58Z</time>
      </trkpt>
      <trkpt lat="62.630833531008" lon="17.970098824309">
        <ele>66.6</ele>
        <time>2018-03-19T18:38:59Z</time>
      </trkpt>
      <trkpt lat="62.63088784572" lon="17.970074684437">
        <ele>66.4</ele>
        <time>2018-03-19T18:39:01Z</time>
      </trkpt>
      <trkpt lat="62.630901340579" lon="17.970060099931">
        <ele>66.4</ele>
        <time>2018-03-19T18:39:02Z</time>
      </trkpt>
      <trkpt lat="62.630910728307" lon="17.970042665579">
        <ele>66</ele>
        <time>2018-03-19T18:39:03Z</time>
      </trkpt>
      <trkpt lat="62.630916847094" lon="17.970033445489">
        <ele>65.8</ele>
        <time>2018-03-19T18:39:04Z</time>
      </trkpt>
      <trkpt lat="62.630922714424" lon="17.97003839081">
        <ele>65.8</ele>
        <time>2018-03-19T18:39:05Z</time>
      </trkpt>
      <trkpt lat="62.630920116035" lon="17.970041827389">
        <ele>65.4</ele>
        <time>2018-03-19T18:39:06Z</time>
      </trkpt>
      <trkpt lat="62.630924558442" lon="17.970040318647">
        <ele>65.2</ele>
        <time>2018-03-19T18:39:07Z</time>
      </trkpt>
      <trkpt lat="62.631150534466" lon="17.970047107986">
        <ele>65</ele>
        <time>2018-03-19T18:41:40Z</time>
      </trkpt>
      <trkpt lat="62.631175177252" lon="17.970036462973">
        <ele>65</ele>
        <time>2018-03-19T18:41:41Z</time>
      </trkpt>
      <trkpt lat="62.631222032073" lon="17.970012071644">
        <ele>65</ele>
        <time>2018-03-19T18:41:42Z</time>
      </trkpt>
      <trkpt lat="62.631255140578" lon="17.969990697799">
        <ele>65</ele>
        <time>2018-03-19T18:41:43Z</time>
      </trkpt>
      <trkpt lat="62.631293110585" lon="17.969968904859">
        <ele>64.8</ele>
        <time>2018-03-19T18:41:44Z</time>
      </trkpt>
      <trkpt lat="62.631328566022" lon="17.969950213222">
        <ele>64.4</ele>
        <time>2018-03-19T18:41:45Z</time>
      </trkpt>
      <trkpt lat="62.631364524373" lon="17.96993194068">
        <ele>64</ele>
        <time>2018-03-19T18:41:46Z</time>
      </trkpt>
      <trkpt lat="62.631397884335" lon="17.969912997586">
        <ele>64.2</ele>
        <time>2018-03-19T18:41:47Z</time>
      </trkpt>
      <trkpt lat="62.631434597057" lon="17.96989254575">
        <ele>64.2</ele>
        <time>2018-03-19T18:41:48Z</time>
      </trkpt>
      <trkpt lat="62.631473321435" lon="17.969874357027">
        <ele>64</ele>
        <time>2018-03-19T18:41:49Z</time>
      </trkpt>
      <trkpt lat="62.631504669741" lon="17.969853569915">
        <ele>64</ele>
        <time>2018-03-19T18:41:50Z</time>
      </trkpt>
      <trkpt lat="62.631541131006" lon="17.969836554658">
        <ele>63.8</ele>
        <time>2018-03-19T18:41:51Z</time>
      </trkpt>
      <trkpt lat="62.631571557303" lon="17.969814258804">
        <ele>63.8</ele>
        <time>2018-03-19T18:41:52Z</time>
      </trkpt>
      <trkpt lat="62.631603073247" lon="17.969800261031">
        <ele>63.6</ele>
        <time>2018-03-19T18:41:53Z</time>
      </trkpt>
      <trkpt lat="62.631638612503" lon="17.969780312109">
        <ele>63.8</ele>
        <time>2018-03-19T18:41:54Z</time>
      </trkpt>
      <trkpt lat="62.631673313569" lon="17.969756172237">
        <ele>63.8</ele>
        <time>2018-03-19T18:41:55Z</time>
      </trkpt>
      <trkpt lat="62.631707679359" lon="17.96972658413">
        <ele>64.2</ele>
        <time>2018-03-19T18:41:56Z</time>
      </trkpt>
      <trkpt lat="62.631739027665" lon="17.969690793417">
        <ele>64</ele>
        <time>2018-03-19T18:41:57Z</time>
      </trkpt>
      <trkpt lat="62.631771800894" lon="17.969651566125">
        <ele>63.8</ele>
        <time>2018-03-19T18:41:58Z</time>
      </trkpt>
      <trkpt lat="62.631799880259" lon="17.969616445964">
        <ele>63.8</ele>
        <time>2018-03-19T18:41:59Z</time>
      </trkpt>
      <trkpt lat="62.631837263533" lon="17.96959247373">
        <ele>63.8</ele>
        <time>2018-03-19T18:42:00Z</time>
      </trkpt>
      <trkpt lat="62.631873138065" lon="17.96956732803">
        <ele>63.8</ele>
        <time>2018-03-19T18:42:01Z</time>
      </trkpt>
      <trkpt lat="62.631911862443" lon="17.969565232555">
        <ele>63.6</ele>
        <time>2018-03-19T18:42:02Z</time>
      </trkpt>
      <trkpt lat="62.631939271256" lon="17.969571183704">
        <ele>63.6</ele>
        <time>2018-03-19T18:42:03Z</time>
      </trkpt>
      <trkpt lat="62.631981180756" lon="17.969590545893">
        <ele>63.4</ele>
        <time>2018-03-19T18:42:04Z</time>
      </trkpt>
      <trkpt lat="62.632007332284" lon="17.96957319536">
        <ele>63.2</ele>
        <time>2018-03-19T18:42:05Z</time>
      </trkpt>
      <trkpt lat="62.632042787721" lon="17.969569339686">
        <ele>63</ele>
        <time>2018-03-19T18:42:06Z</time>
      </trkpt>
      <trkpt lat="62.632074806579" lon="17.969561544519">
        <ele>62.6</ele>
        <time>2018-03-19T18:42:07Z</time>
      </trkpt>
      <trkpt lat="62.632102634487" lon="17.969548804031">
        <ele>62.6</ele>
        <time>2018-03-19T18:42:08Z</time>
      </trkpt>
      <trkpt lat="62.632138257562" lon="17.969538578113">
        <ele>62.8</ele>
        <time>2018-03-19T18:42:09Z</time>
      </trkpt>
      <trkpt lat="62.632165498737" lon="17.969529525661">
        <ele>63</ele>
        <time>2018-03-19T18:42:10Z</time>
      </trkpt>
      <trkpt lat="62.632196008853" lon="17.969530531489">
        <ele>63.6</ele>
        <time>2018-03-19T18:42:11Z</time>
      </trkpt>
      <trkpt lat="62.632226351331" lon="17.969523658331">
        <ele>64</ele>
        <time>2018-03-19T18:42:12Z</time>
      </trkpt>
      <trkpt lat="62.632251497031" lon="17.96951619844">
        <ele>64</ele>
        <time>2018-03-19T18:42:13Z</time>
      </trkpt>
      <trkpt lat="62.632281001319" lon="17.969517455725">
        <ele>64</ele>
        <time>2018-03-19T18:42:14Z</time>
      </trkpt>
      <trkpt lat="62.632308410132" lon="17.969507145988">
        <ele>63.8</ele>
        <time>2018-03-19T18:42:15Z</time>
      </trkpt>
      <trkpt lat="62.632343865569" lon="17.969512678042">
        <ele>63.8</ele>
        <time>2018-03-19T18:42:16Z</time>
      </trkpt>
      <trkpt lat="62.632370100916" lon="17.96951619844">
        <ele>63.8</ele>
        <time>2018-03-19T18:42:17Z</time>
      </trkpt>
      <trkpt lat="62.63240077867" lon="17.969512342766">
        <ele>63.6</ele>
        <time>2018-03-19T18:42:18Z</time>
      </trkpt>
      <trkpt lat="62.632434893003" lon="17.969509409101">
        <ele>63.6</ele>
        <time>2018-03-19T18:42:19Z</time>
      </trkpt>
      <trkpt lat="62.632464062015" lon="17.969508822368">
        <ele>63.8</ele>
        <time>2018-03-19T18:42:20Z</time>
      </trkpt>
      <trkpt lat="62.632497086701" lon="17.969518293915">
        <ele>63.8</ele>
        <time>2018-03-19T18:42:21Z</time>
      </trkpt>
      <trkpt lat="62.63252734536" lon="17.969529441842">
        <ele>64</ele>
        <time>2018-03-19T18:42:22Z</time>
      </trkpt>
      <trkpt lat="62.6325491383" lon="17.969540003036">
        <ele>63.8</ele>
        <time>2018-03-19T18:42:23Z</time>
      </trkpt>
      <trkpt lat="62.632589622877" lon="17.969549306945">
        <ele>63.8</ele>
        <time>2018-03-19T18:42:24Z</time>
      </trkpt>
      <trkpt lat="62.632619797717" lon="17.969551989153">
        <ele>64</ele>
        <time>2018-03-19T18:42:25Z</time>
      </trkpt>
      <trkpt lat="62.632650643109" lon="17.969570429333">
        <ele>64.2</ele>
        <time>2018-03-19T18:42:26Z</time>
      </trkpt>
      <trkpt lat="62.632675453533" lon="17.969570345514">
        <ele>64.2</ele>
        <time>2018-03-19T18:42:27Z</time>
      </trkpt>
      <trkpt lat="62.63270336526" lon="17.969572943903">
        <ele>64</ele>
        <time>2018-03-19T18:42:28Z</time>
      </trkpt>
      <trkpt lat="62.632730354978" lon="17.969578392138">
        <ele>64</ele>
        <time>2018-03-19T18:42:29Z</time>
      </trkpt>
      <trkpt lat="62.632757260877" lon="17.969583840373">
        <ele>64</ele>
        <time>2018-03-19T18:42:30Z</time>
      </trkpt>
      <trkpt lat="62.632788357726" lon="17.969592306092">
        <ele>64.4</ele>
        <time>2018-03-19T18:42:31Z</time>
      </trkpt>
      <trkpt lat="62.63281316815" lon="17.969599598345">
        <ele>64.2</ele>
        <time>2018-03-19T18:42:32Z</time>
      </trkpt>
      <trkpt lat="62.632844851732" lon="17.96959415011">
        <ele>64.2</ele>
        <time>2018-03-19T18:42:33Z</time>
      </trkpt>
      <trkpt lat="62.632872009088" lon="17.969581409622">
        <ele>64.2</ele>
        <time>2018-03-19T18:42:34Z</time>
      </trkpt>
      <trkpt lat="62.632899585539" lon="17.969573865912">
        <ele>64.4</ele>
        <time>2018-03-19T18:42:35Z</time>
      </trkpt>
      <trkpt lat="62.632928251637" lon="17.969579817061">
        <ele>64.2</ele>
        <time>2018-03-19T18:42:36Z</time>
      </trkpt>
      <trkpt lat="62.632957504468" lon="17.969576296663">
        <ele>64.4</ele>
        <time>2018-03-19T18:42:37Z</time>
      </trkpt>
      <trkpt lat="62.632987595489" lon="17.969579984699">
        <ele>64.6</ele>
        <time>2018-03-19T18:42:38Z</time>
      </trkpt>
      <trkpt lat="62.633016596863" lon="17.969583840373">
        <ele>64.8</ele>
        <time>2018-03-19T18:42:39Z</time>
      </trkpt>
      <trkpt lat="62.633047442255" lon="17.969586941676">
        <ele>64.6</ele>
        <time>2018-03-19T18:42:40Z</time>
      </trkpt>
      <trkpt lat="62.633070408661" lon="17.969593982472">
        <ele>64.6</ele>
        <time>2018-03-19T18:42:41Z</time>
      </trkpt>
      <trkpt lat="62.633106115555" lon="17.969599598345">
        <ele>64.6</ele>
        <time>2018-03-19T18:42:42Z</time>
      </trkpt>
      <trkpt lat="62.633134446377" lon="17.969613847575">
        <ele>64.4</ele>
        <time>2018-03-19T18:42:43Z</time>
      </trkpt>
      <trkpt lat="62.633162022828" lon="17.969629773185">
        <ele>64.6</ele>
        <time>2018-03-19T18:42:44Z</time>
      </trkpt>
      <trkpt lat="62.633192700582" lon="17.969650141202">
        <ele>64.6</ele>
        <time>2018-03-19T18:42:45Z</time>
      </trkpt>
      <trkpt lat="62.633226647277" lon="17.969662965509">
        <ele>64.8</ele>
        <time>2018-03-19T18:42:46Z</time>
      </trkpt>
      <trkpt lat="62.633248440217" lon="17.969671179771">
        <ele>65</ele>
        <time>2018-03-19T18:42:47Z</time>
      </trkpt>
      <trkpt lat="62.633278615057" lon="17.969685931915">
        <ele>65.2</ele>
        <time>2018-03-19T18:42:48Z</time>
      </trkpt>
      <trkpt lat="62.633306610603" lon="17.969696325471">
        <ele>65.4</ele>
        <time>2018-03-19T18:42:49Z</time>
      </trkpt>
      <trkpt lat="62.633335947253" lon="17.969714598013">
        <ele>65.6</ele>
        <time>2018-03-19T18:42:50Z</time>
      </trkpt>
      <trkpt lat="62.633364613351" lon="17.969732954374">
        <ele>65.6</ele>
        <time>2018-03-19T18:42:51Z</time>
      </trkpt>
      <trkpt lat="62.633384143178" lon="17.969771678752">
        <ele>65.6</ele>
        <time>2018-03-19T18:42:52Z</time>
      </trkpt>
      <trkpt lat="62.633396967485" lon="17.969823143618">
        <ele>65.8</ele>
        <time>2018-03-19T18:42:53Z</time>
      </trkpt>
      <trkpt lat="62.633407025765" lon="17.969885504954">
        <ele>65.8</ele>
        <time>2018-03-19T18:42:54Z</time>
      </trkpt>
      <trkpt lat="62.633419095701" lon="17.969947614833">
        <ele>65.8</ele>
        <time>2018-03-19T18:42:55Z</time>
      </trkpt>
      <trkpt lat="62.633420269167" lon="17.970004527934">
        <ele>65.8</ele>
        <time>2018-03-19T18:42:56Z</time>
      </trkpt>
      <trkpt lat="62.633421526452" lon="17.970075103532">
        <ele>66</ele>
        <time>2018-03-19T18:42:57Z</time>
      </trkpt>
      <trkpt lat="62.633426220316" lon="17.970127071312">
        <ele>65.6</ele>
        <time>2018-03-19T18:42:58Z</time>
      </trkpt>
      <trkpt lat="62.633429992171" lon="17.970192366313">
        <ele>65.4</ele>
        <time>2018-03-19T18:42:59Z</time>
      </trkpt>
      <trkpt lat="62.633429070162" lon="17.970255817296">
        <ele>65.4</ele>
        <time>2018-03-19T18:43:00Z</time>
      </trkpt>
      <trkpt lat="62.633430411266" lon="17.970313065673">
        <ele>65.6</ele>
        <time>2018-03-19T18:43:01Z</time>
      </trkpt>
      <trkpt lat="62.633429153981" lon="17.970372325706">
        <ele>65.6</ele>
        <time>2018-03-19T18:43:02Z</time>
      </trkpt>
      <trkpt lat="62.633431668551" lon="17.970428568255">
        <ele>66</ele>
        <time>2018-03-19T18:43:03Z</time>
      </trkpt>
      <trkpt lat="62.633431668551" lon="17.970488834116">
        <ele>66.4</ele>
        <time>2018-03-19T18:43:04Z</time>
      </trkpt>
      <trkpt lat="62.633431165637" lon="17.970558152429">
        <ele>66.8</ele>
        <time>2018-03-19T18:43:05Z</time>
      </trkpt>
      <trkpt lat="62.633437116786" lon="17.97061506553">
        <ele>67</ele>
        <time>2018-03-19T18:43:06Z</time>
      </trkpt>
      <trkpt lat="62.633439379899" lon="17.970670218432">
        <ele>67.4</ele>
        <time>2018-03-19T18:43:07Z</time>
      </trkpt>
      <trkpt lat="62.633440888641" lon="17.970728472637">
        <ele>67.4</ele>
        <time>2018-03-19T18:43:08Z</time>
      </trkpt>
      <trkpt lat="62.633441391555" lon="17.970783625539">
        <ele>67.4</ele>
        <time>2018-03-19T18:43:09Z</time>
      </trkpt>
      <trkpt lat="62.633442984116" lon="17.97084305321">
        <ele>67.6</ele>
        <time>2018-03-19T18:43:10Z</time>
      </trkpt>
      <trkpt lat="62.633443235573" lon="17.9708941828">
        <ele>67.6</ele>
        <time>2018-03-19T18:43:11Z</time>
      </trkpt>
      <trkpt lat="62.633441726831" lon="17.970966099502">
        <ele>67.8</ele>
        <time>2018-03-19T18:43:12Z</time>
      </trkpt>
      <trkpt lat="62.63344264884" lon="17.971018318739">
        <ele>67.6</ele>
        <time>2018-03-19T18:43:13Z</time>
      </trkpt>
      <trkpt lat="62.633441978288" lon="17.971077830229">
        <ele>68</ele>
        <time>2018-03-19T18:43:14Z</time>
      </trkpt>
      <trkpt lat="62.633443906125" lon="17.97114144885">
        <ele>68.4</ele>
        <time>2018-03-19T18:43:15Z</time>
      </trkpt>
      <trkpt lat="62.633450779283" lon="17.971202049987">
        <ele>68.8</ele>
        <time>2018-03-19T18:43:16Z</time>
      </trkpt>
      <trkpt lat="62.633455137871" lon="17.971264159866">
        <ele>69.2</ele>
        <time>2018-03-19T18:43:17Z</time>
      </trkpt>
      <trkpt lat="62.633456646613" lon="17.971333561998">
        <ele>69.6</ele>
        <time>2018-03-19T18:43:18Z</time>
      </trkpt>
      <trkpt lat="62.633455724604" lon="17.971398018809">
        <ele>69.6</ele>
        <time>2018-03-19T18:43:19Z</time>
      </trkpt>
      <trkpt lat="62.633451785111" lon="17.971455434824">
        <ele>69.8</ele>
        <time>2018-03-19T18:43:20Z</time>
      </trkpt>
      <trkpt lat="62.633448935265" lon="17.971513856667">
        <ele>69.6</ele>
        <time>2018-03-19T18:43:21Z</time>
      </trkpt>
      <trkpt lat="62.633444828134" lon="17.971571105044">
        <ele>69.4</ele>
        <time>2018-03-19T18:43:22Z</time>
      </trkpt>
      <trkpt lat="62.633440721003" lon="17.971625503575">
        <ele>69</ele>
        <time>2018-03-19T18:43:23Z</time>
      </trkpt>
      <trkpt lat="62.633438290252" lon="17.97169968339">
        <ele>69</ele>
        <time>2018-03-19T18:43:24Z</time>
      </trkpt>
      <trkpt lat="62.633432506741" lon="17.971761038898">
        <ele>69</ele>
        <time>2018-03-19T18:43:25Z</time>
      </trkpt>
      <trkpt lat="62.633429656895" lon="17.971818035818">
        <ele>69.4</ele>
        <time>2018-03-19T18:43:26Z</time>
      </trkpt>
      <trkpt lat="62.633424711574" lon="17.971878301679">
        <ele>69.8</ele>
        <time>2018-03-19T18:43:27Z</time>
      </trkpt>
      <trkpt lat="62.633413563647" lon="17.971950469838">
        <ele>70</ele>
        <time>2018-03-19T18:43:29Z</time>
      </trkpt>
      <trkpt lat="62.633398308589" lon="17.972025823119">
        <ele>70.4</ele>
        <time>2018-03-19T18:43:30Z</time>
      </trkpt>
      <trkpt lat="62.633387663576" lon="17.972088855007">
        <ele>70.6</ele>
        <time>2018-03-19T18:43:31Z</time>
      </trkpt>
      <trkpt lat="62.633379030219" lon="17.972149959058">
        <ele>71</ele>
        <time>2018-03-19T18:43:32Z</time>
      </trkpt>
      <trkpt lat="62.633370983595" lon="17.972205866331">
        <ele>71</ele>
        <time>2018-03-19T18:43:33Z</time>
      </trkpt>
      <trkpt lat="62.633361763505" lon="17.972268060029">
        <ele>71.4</ele>
        <time>2018-03-19T18:43:34Z</time>
      </trkpt>
      <trkpt lat="62.633352794872" lon="17.972327068605">
        <ele>72</ele>
        <time>2018-03-19T18:43:35Z</time>
      </trkpt>
      <trkpt lat="62.633344748248" lon="17.972389849036">
        <ele>72</ele>
        <time>2018-03-19T18:43:36Z</time>
      </trkpt>
      <trkpt lat="62.633335109063" lon="17.972451875096">
        <ele>72</ele>
        <time>2018-03-19T18:43:37Z</time>
      </trkpt>
      <trkpt lat="62.633326559525" lon="17.972505686894">
        <ele>72</ele>
        <time>2018-03-19T18:43:38Z</time>
      </trkpt>
      <trkpt lat="62.633317004159" lon="17.972568970239">
        <ele>71.6</ele>
        <time>2018-03-19T18:43:39Z</time>
      </trkpt>
      <trkpt lat="62.633305018042" lon="17.972627392082">
        <ele>71</ele>
        <time>2018-03-19T18:43:40Z</time>
      </trkpt>
      <trkpt lat="62.633294540667" lon="17.972679862776">
        <ele>71</ele>
        <time>2018-03-19T18:43:41Z</time>
      </trkpt>
      <trkpt lat="62.633280961989" lon="17.972735015678">
        <ele>71.2</ele>
        <time>2018-03-19T18:43:42Z</time>
      </trkpt>
      <trkpt lat="62.63326914351" lon="17.972789162752">
        <ele>71.4</ele>
        <time>2018-03-19T18:43:43Z</time>
      </trkpt>
      <trkpt lat="62.633255061918" lon="17.972845992034">
        <ele>71.6</ele>
        <time>2018-03-19T18:43:44Z</time>
      </trkpt>
      <trkpt lat="62.633243913991" lon="17.97290500061">
        <ele>71.8</ele>
        <time>2018-03-19T18:43:45Z</time>
      </trkpt>
      <trkpt lat="62.633231844055" lon="17.972961075521">
        <ele>72</ele>
        <time>2018-03-19T18:43:46Z</time>
      </trkpt>
      <trkpt lat="62.633221199042" lon="17.973019497364">
        <ele>72.2</ele>
        <time>2018-03-19T18:43:47Z</time>
      </trkpt>
      <trkpt lat="62.633207620364" lon="17.973079930863">
        <ele>72</ele>
        <time>2018-03-19T18:43:48Z</time>
      </trkpt>
      <trkpt lat="62.633195298971" lon="17.973145058226">
        <ele>72</ele>
        <time>2018-03-19T18:43:49Z</time>
      </trkpt>
      <trkpt lat="62.633180882103" lon="17.973207754838">
        <ele>72.2</ele>
        <time>2018-03-19T18:43:50Z</time>
      </trkpt>
      <trkpt lat="62.633167135787" lon="17.973265338491">
        <ele>72.4</ele>
        <time>2018-03-19T18:43:51Z</time>
      </trkpt>
      <trkpt lat="62.633152886557" lon="17.973318815013">
        <ele>72.4</ele>
        <time>2018-03-19T18:43:52Z</time>
      </trkpt>
      <trkpt lat="62.633138888784" lon="17.973374219372">
        <ele>72.4</ele>
        <time>2018-03-19T18:43:53Z</time>
      </trkpt>
      <trkpt lat="62.633125142468" lon="17.973437837993">
        <ele>72.6</ele>
        <time>2018-03-19T18:43:54Z</time>
      </trkpt>
      <trkpt lat="62.633111982885" lon="17.973496008379">
        <ele>72.6</ele>
        <time>2018-03-19T18:43:55Z</time>
      </trkpt>
      <trkpt lat="62.633100164406" lon="17.973552167109">
        <ele>72.4</ele>
        <time>2018-03-19T18:43:56Z</time>
      </trkpt>
      <trkpt lat="62.633088513565" lon="17.973609415486">
        <ele>72.4</ele>
        <time>2018-03-19T18:43:57Z</time>
      </trkpt>
      <trkpt lat="62.633074515792" lon="17.973662808189">
        <ele>72.2</ele>
        <time>2018-03-19T18:43:58Z</time>
      </trkpt>
      <trkpt lat="62.633063200227" lon="17.973715781797">
        <ele>72</ele>
        <time>2018-03-19T18:43:59Z</time>
      </trkpt>
      <trkpt lat="62.63304953773" lon="17.973772862536">
        <ele>72.2</ele>
        <time>2018-03-19T18:44:00Z</time>
      </trkpt>
      <trkpt lat="62.633033276844" lon="17.973832709302">
        <ele>72.4</ele>
        <time>2018-03-19T18:44:01Z</time>
      </trkpt>
      <trkpt lat="62.633018273243" lon="17.973887107833">
        <ele>72.4</ele>
        <time>2018-03-19T18:44:02Z</time>
      </trkpt>
      <trkpt lat="62.633004946022" lon="17.973936728681">
        <ele>72.6</ele>
        <time>2018-03-19T18:44:03Z</time>
      </trkpt>
      <trkpt lat="62.632992456991" lon="17.97399380942">
        <ele>72.6</ele>
        <time>2018-03-19T18:44:04Z</time>
      </trkpt>
      <trkpt lat="62.632978543037" lon="17.974047872675">
        <ele>72.8</ele>
        <time>2018-03-19T18:44:05Z</time>
      </trkpt>
      <trkpt lat="62.632961108685" lon="17.974107132708">
        <ele>72.6</ele>
        <time>2018-03-19T18:44:06Z</time>
      </trkpt>
      <trkpt lat="62.632946272722" lon="17.974165135456">
        <ele>72.8</ele>
        <time>2018-03-19T18:44:07Z</time>
      </trkpt>
      <trkpt lat="62.632930263293" lon="17.974223892575">
        <ele>72.8</ele>
        <time>2018-03-19T18:44:08Z</time>
      </trkpt>
      <trkpt lat="62.632914337683" lon="17.974288768481">
        <ele>73</ele>
        <time>2018-03-19T18:44:09Z</time>
      </trkpt>
      <trkpt lat="62.632895897503" lon="17.974346519772">
        <ele>72.8</ele>
        <time>2018-03-19T18:44:10Z</time>
      </trkpt>
      <trkpt lat="62.63287519421" lon="17.974394296602">
        <ele>73</ele>
        <time>2018-03-19T18:44:11Z</time>
      </trkpt>
      <trkpt lat="62.632850719062" lon="17.974440648509">
        <ele>73</ele>
        <time>2018-03-19T18:44:12Z</time>
      </trkpt>
      <trkpt lat="62.63282155005" lon="17.974472080634">
        <ele>72.8</ele>
        <time>2018-03-19T18:44:13Z</time>
      </trkpt>
      <trkpt lat="62.632788106269" lon="17.974494292669">
        <ele>73</ele>
        <time>2018-03-19T18:44:14Z</time>
      </trkpt>
      <trkpt lat="62.632753740479" lon="17.97449588523">
        <ele>73</ele>
        <time>2018-03-19T18:44:15Z</time>
      </trkpt>
      <trkpt lat="62.632724571467" lon="17.974488592977">
        <ele>73.2</ele>
        <time>2018-03-19T18:44:16Z</time>
      </trkpt>
      <trkpt lat="62.63269665974" lon="17.97448079781">
        <ele>73.4</ele>
        <time>2018-03-19T18:44:17Z</time>
      </trkpt>
      <trkpt lat="62.632667239271" lon="17.974468308779">
        <ele>73.6</ele>
        <time>2018-03-19T18:44:18Z</time>
      </trkpt>
      <trkpt lat="62.63263631006" lon="17.974446851115">
        <ele>73.4</ele>
        <time>2018-03-19T18:44:19Z</time>
      </trkpt>
      <trkpt lat="62.632605883763" lon="17.974433691532">
        <ele>73.6</ele>
        <time>2018-03-19T18:44:20Z</time>
      </trkpt>
      <trkpt lat="62.63258098952" lon="17.974410222212">
        <ele>73.4</ele>
        <time>2018-03-19T18:44:21Z</time>
      </trkpt>
      <trkpt lat="62.632551569051" lon="17.974384573598">
        <ele>73.2</ele>
        <time>2018-03-19T18:44:22Z</time>
      </trkpt>
      <trkpt lat="62.632526088075" lon="17.974358757346">
        <ele>73.4</ele>
        <time>2018-03-19T18:44:23Z</time>
      </trkpt>
      <trkpt lat="62.632491554647" lon="17.974325984117">
        <ele>73.2</ele>
        <time>2018-03-19T18:44:24Z</time>
      </trkpt>
      <trkpt lat="62.632464145834" lon="17.974297653295">
        <ele>73.2</ele>
        <time>2018-03-19T18:44:25Z</time>
      </trkpt>
      <trkpt lat="62.632440089781" lon="17.974263287505">
        <ele>73.2</ele>
        <time>2018-03-19T18:44:26Z</time>
      </trkpt>
      <trkpt lat="62.632414273529" lon="17.974229005534">
        <ele>73.2</ele>
        <time>2018-03-19T18:44:27Z</time>
      </trkpt>
      <trkpt lat="62.632392648227" lon="17.974199836522">
        <ele>73.2</ele>
        <time>2018-03-19T18:44:28Z</time>
      </trkpt>
      <trkpt lat="62.632363143939" lon="17.97416647656">
        <ele>73.2</ele>
        <time>2018-03-19T18:44:29Z</time>
      </trkpt>
      <trkpt lat="62.63233372347" lon="17.974120879024">
        <ele>73.4</ele>
        <time>2018-03-19T18:44:30Z</time>
      </trkpt>
      <trkpt lat="62.632304722096" lon="17.974091290917">
        <ele>73.4</ele>
        <time>2018-03-19T18:44:31Z</time>
      </trkpt>
      <trkpt lat="62.632277313283" lon="17.974055416385">
        <ele>73.4</ele>
        <time>2018-03-19T18:44:32Z</time>
      </trkpt>
      <trkpt lat="62.632251413212" lon="17.974033539626">
        <ele>73.6</ele>
        <time>2018-03-19T18:44:33Z</time>
      </trkpt>
      <trkpt lat="62.632213778481" lon="17.974003700062">
        <ele>73.4</ele>
        <time>2018-03-19T18:44:34Z</time>
      </trkpt>
      <trkpt lat="62.632182346356" lon="17.973972770851">
        <ele>73.4</ele>
        <time>2018-03-19T18:44:35Z</time>
      </trkpt>
      <trkpt lat="62.632151333326" lon="17.97394100345">
        <ele>73.4</ele>
        <time>2018-03-19T18:44:36Z</time>
      </trkpt>
      <trkpt lat="62.632121996676" lon="17.973902111434">
        <ele>73.4</ele>
        <time>2018-03-19T18:44:37Z</time>
      </trkpt>
      <trkpt lat="62.632094504044" lon="17.973868583834">
        <ele>73.2</ele>
        <time>2018-03-19T18:44:38Z</time>
      </trkpt>
      <trkpt lat="62.632063742471" lon="17.973829859456">
        <ele>73.4</ele>
        <time>2018-03-19T18:44:39Z</time>
      </trkpt>
      <trkpt lat="62.632037171848" lon="17.973794068743">
        <ele>73.4</ele>
        <time>2018-03-19T18:44:40Z</time>
      </trkpt>
      <trkpt lat="62.632009763035" lon="17.973764480636">
        <ele>73.2</ele>
        <time>2018-03-19T18:44:41Z</time>
      </trkpt>
      <trkpt lat="62.631978414729" lon="17.973724834249">
        <ele>73.2</ele>
        <time>2018-03-19T18:44:42Z</time>
      </trkpt>
      <trkpt lat="62.631948072251" lon="17.973692563934">
        <ele>73</ele>
        <time>2018-03-19T18:44:43Z</time>
      </trkpt>
      <trkpt lat="62.631912281538" lon="17.973656270307">
        <ele>73</ele>
        <time>2018-03-19T18:44:44Z</time>
      </trkpt>
      <trkpt lat="62.631884788906" lon="17.973625089639">
        <ele>72.8</ele>
        <time>2018-03-19T18:44:45Z</time>
      </trkpt>
      <trkpt lat="62.631857966826" lon="17.973597764645">
        <ele>72.8</ele>
        <time>2018-03-19T18:44:46Z</time>
      </trkpt>
      <trkpt lat="62.631826534701" lon="17.973573960049">
        <ele>72.8</ele>
        <time>2018-03-19T18:44:47Z</time>
      </trkpt>
      <trkpt lat="62.631795354033" lon="17.973542695562">
        <ele>72.8</ele>
        <time>2018-03-19T18:44:48Z</time>
      </trkpt>
      <trkpt lat="62.631766101202" lon="17.973508413591">
        <ele>72.8</ele>
        <time>2018-03-19T18:44:49Z</time>
      </trkpt>
      <trkpt lat="62.631737099828" lon="17.973470862679">
        <ele>72.8</ele>
        <time>2018-03-19T18:44:50Z</time>
      </trkpt>
      <trkpt lat="62.631707427902" lon="17.973440268744">
        <ele>72.6</ele>
        <time>2018-03-19T18:44:51Z</time>
      </trkpt>
      <trkpt lat="62.631680019089" lon="17.973416045053">
        <ele>72.4</ele>
        <time>2018-03-19T18:44:52Z</time>
      </trkpt>
      <trkpt lat="62.631650514801" lon="17.973413614302">
        <ele>72.4</ele>
        <time>2018-03-19T18:44:53Z</time>
      </trkpt>
      <trkpt lat="62.631614137355" lon="17.973419984546">
        <ele>72.4</ele>
        <time>2018-03-19T18:44:54Z</time>
      </trkpt>
      <trkpt lat="62.631580106841" lon="17.973437586536">
        <ele>72.4</ele>
        <time>2018-03-19T18:44:55Z</time>
      </trkpt>
      <trkpt lat="62.63154833944" lon="17.973465162987">
        <ele>72.2</ele>
        <time>2018-03-19T18:44:56Z</time>
      </trkpt>
      <trkpt lat="62.631517913143" lon="17.973496846569">
        <ele>72.2</ele>
        <time>2018-03-19T18:44:57Z</time>
      </trkpt>
      <trkpt lat="62.63148882795" lon="17.973532553463">
        <ele>72</ele>
        <time>2018-03-19T18:44:58Z</time>
      </trkpt>
      <trkpt lat="62.631457395825" lon="17.973567003072">
        <ele>71.6</ele>
        <time>2018-03-19T18:44:59Z</time>
      </trkpt>
      <trkpt lat="62.631430825202" lon="17.973600279215">
        <ele>71.6</ele>
        <time>2018-03-19T18:45:00Z</time>
      </trkpt>
      <trkpt lat="62.631401740009" lon="17.973640260878">
        <ele>71.6</ele>
        <time>2018-03-19T18:45:01Z</time>
      </trkpt>
      <trkpt lat="62.631374498834" lon="17.973676470686">
        <ele>71.6</ele>
        <time>2018-03-19T18:45:02Z</time>
      </trkpt>
      <trkpt lat="62.631315071163" lon="17.973743777343">
        <ele>71.4</ele>
        <time>2018-03-19T18:45:04Z</time>
      </trkpt>
      <trkpt lat="62.631290260739" lon="17.973778226952">
        <ele>71.4</ele>
        <time>2018-03-19T18:45:05Z</time>
      </trkpt>
      <trkpt lat="62.63125748751" lon="17.973818040977">
        <ele>71.2</ele>
        <time>2018-03-19T18:45:06Z</time>
      </trkpt>
      <trkpt lat="62.631226390661" lon="17.973850562749">
        <ele>71.2</ele>
        <time>2018-03-19T18:45:07Z</time>
      </trkpt>
      <trkpt lat="62.631196132002" lon="17.973879731761">
        <ele>71.2</ele>
        <time>2018-03-19T18:45:08Z</time>
      </trkpt>
      <trkpt lat="62.631161766212" lon="17.973909655144">
        <ele>71.2</ele>
        <time>2018-03-19T18:45:09Z</time>
      </trkpt>
      <trkpt lat="62.631125807861" lon="17.973932202455">
        <ele>71.2</ele>
        <time>2018-03-19T18:45:10Z</time>
      </trkpt>
      <trkpt lat="62.63109571684" lon="17.973950391178">
        <ele>71.2</ele>
        <time>2018-03-19T18:45:11Z</time>
      </trkpt>
      <trkpt lat="62.631062021602" lon="17.973962628752">
        <ele>71.4</ele>
        <time>2018-03-19T18:45:12Z</time>
      </trkpt>
      <trkpt lat="62.631025057423" lon="17.973964137494">
        <ele>71.4</ele>
        <time>2018-03-19T18:45:13Z</time>
      </trkpt>
      <trkpt lat="62.630987674149" lon="17.973957851069">
        <ele>71.2</ele>
        <time>2018-03-19T18:45:14Z</time>
      </trkpt>
      <trkpt lat="62.630954146549" lon="17.973933543559">
        <ele>71.4</ele>
        <time>2018-03-19T18:45:15Z</time>
      </trkpt>
      <trkpt lat="62.630926067184" lon="17.973895657371">
        <ele>71.4</ele>
        <time>2018-03-19T18:45:16Z</time>
      </trkpt>
      <trkpt lat="62.630902430226" lon="17.97385047893">
        <ele>71.6</ele>
        <time>2018-03-19T18:45:17Z</time>
      </trkpt>
      <trkpt lat="62.630874853775" lon="17.973790380707">
        <ele>71.6</ele>
        <time>2018-03-19T18:45:18Z</time>
      </trkpt>
      <trkpt lat="62.630846606772" lon="17.973726091534">
        <ele>71.6</ele>
        <time>2018-03-19T18:45:19Z</time>
      </trkpt>
      <trkpt lat="62.630822885995" lon="17.973666831501">
        <ele>71.6</ele>
        <time>2018-03-19T18:45:20Z</time>
      </trkpt>
      <trkpt lat="62.630798578485" lon="17.973603464337">
        <ele>71.6</ele>
        <time>2018-03-19T18:45:21Z</time>
      </trkpt>
      <trkpt lat="62.630776031174" lon="17.973538420793">
        <ele>71.4</ele>
        <time>2018-03-19T18:45:22Z</time>
      </trkpt>
      <trkpt lat="62.630755746976" lon="17.973480920959">
        <ele>71.2</ele>
        <time>2018-03-19T18:45:23Z</time>
      </trkpt>
      <trkpt lat="62.630739569909" lon="17.97342467841">
        <ele>71</ele>
        <time>2018-03-19T18:45:24Z</time>
      </trkpt>
      <trkpt lat="62.630714759485" lon="17.973353264622">
        <ele>70.8</ele>
        <time>2018-03-19T18:45:25Z</time>
      </trkpt>
      <trkpt lat="62.630700007341" lon="17.973274139486">
        <ele>70.6</ele>
        <time>2018-03-19T18:45:26Z</time>
      </trkpt>
      <trkpt lat="62.630681315704" lon="17.973210017951">
        <ele>70.4</ele>
        <time>2018-03-19T18:45:27Z</time>
      </trkpt>
      <trkpt lat="62.630660612411" lon="17.973145896416">
        <ele>70.4</ele>
        <time>2018-03-19T18:45:28Z</time>
      </trkpt>
      <trkpt lat="62.630639406204" lon="17.973072973886">
        <ele>70.4</ele>
        <time>2018-03-19T18:45:29Z</time>
      </trkpt>
      <trkpt lat="62.630616523617" lon="17.973007175971">
        <ele>70.6</ele>
        <time>2018-03-19T18:45:30Z</time>
      </trkpt>
      <trkpt lat="62.630594814496" lon="17.972934672536">
        <ele>70.6</ele>
        <time>2018-03-19T18:45:31Z</time>
      </trkpt>
      <trkpt lat="62.630577631601" lon="17.972864180757">
        <ele>70.4</ele>
        <time>2018-03-19T18:45:32Z</time>
      </trkpt>
      <trkpt lat="62.630561119258" lon="17.972805423638">
        <ele>70.2</ele>
        <time>2018-03-19T18:45:33Z</time>
      </trkpt>
      <trkpt lat="62.630542846716" lon="17.972729399805">
        <ele>70.2</ele>
        <time>2018-03-19T18:45:34Z</time>
      </trkpt>
      <trkpt lat="62.630530944418" lon="17.972664188623">
        <ele>70.2</ele>
        <time>2018-03-19T18:45:35Z</time>
      </trkpt>
      <trkpt lat="62.630516946645" lon="17.972591014636">
        <ele>70</ele>
        <time>2018-03-19T18:45:36Z</time>
      </trkpt>
      <trkpt lat="62.630503451786" lon="17.972517337735">
        <ele>70</ele>
        <time>2018-03-19T18:45:37Z</time>
      </trkpt>
      <trkpt lat="62.630491130393" lon="17.972454305847">
        <ele>69.8</ele>
        <time>2018-03-19T18:45:38Z</time>
      </trkpt>
      <trkpt lat="62.630477803172" lon="17.972381048041">
        <ele>69.8</ele>
        <time>2018-03-19T18:45:39Z</time>
      </trkpt>
      <trkpt lat="62.630464392132" lon="17.972306113855">
        <ele>69.6</ele>
        <time>2018-03-19T18:45:40Z</time>
      </trkpt>
      <trkpt lat="62.630452908929" lon="17.972236711723">
        <ele>69.6</ele>
        <time>2018-03-19T18:45:41Z</time>
      </trkpt>
      <trkpt lat="62.630445951952" lon="17.972158927691">
        <ele>69.4</ele>
        <time>2018-03-19T18:45:42Z</time>
      </trkpt>
      <trkpt lat="62.630439581708" lon="17.972089357921">
        <ele>69.4</ele>
        <time>2018-03-19T18:45:43Z</time>
      </trkpt>
      <trkpt lat="62.63042600303" lon="17.972012076803">
        <ele>69.2</ele>
        <time>2018-03-19T18:45:44Z</time>
      </trkpt>
      <trkpt lat="62.630415693293" lon="17.971934208952">
        <ele>69</ele>
        <time>2018-03-19T18:45:45Z</time>
      </trkpt>
      <trkpt lat="62.630404293909" lon="17.971855251454">
        <ele>68.8</ele>
        <time>2018-03-19T18:45:46Z</time>
      </trkpt>
      <trkpt lat="62.630399348588" lon="17.971788112435">
        <ele>68.8</ele>
        <time>2018-03-19T18:45:47Z</time>
      </trkpt>
      <trkpt lat="62.63039331362" lon="17.971719548493">
        <ele>68.6</ele>
        <time>2018-03-19T18:45:48Z</time>
      </trkpt>
      <trkpt lat="62.630387111014" lon="17.971652158017">
        <ele>68.2</ele>
        <time>2018-03-19T18:45:49Z</time>
      </trkpt>
      <trkpt lat="62.630378729114" lon="17.971576553279">
        <ele>68.4</ele>
        <time>2018-03-19T18:45:50Z</time>
      </trkpt>
      <trkpt lat="62.630369089929" lon="17.971500529446">
        <ele>68.2</ele>
        <time>2018-03-19T18:45:51Z</time>
      </trkpt>
      <trkpt lat="62.630361713857" lon="17.971429534753">
        <ele>68</ele>
        <time>2018-03-19T18:45:52Z</time>
      </trkpt>
      <trkpt lat="62.630355427432" lon="17.971363736838">
        <ele>68</ele>
        <time>2018-03-19T18:45:53Z</time>
      </trkpt>
      <trkpt lat="62.630347045532" lon="17.971277990001">
        <ele>68</ele>
        <time>2018-03-19T18:45:54Z</time>
      </trkpt>
      <trkpt lat="62.630343189858" lon="17.971202804358">
        <ele>68</ele>
        <time>2018-03-19T18:45:55Z</time>
      </trkpt>
      <trkpt lat="62.630334472682" lon="17.971118733901">
        <ele>67.8</ele>
        <time>2018-03-19T18:45:56Z</time>
      </trkpt>
      <trkpt lat="62.630330197913" lon="17.971045057">
        <ele>67.8</ele>
        <time>2018-03-19T18:45:57Z</time>
      </trkpt>
      <trkpt lat="62.630331203741" lon="17.970972553565">
        <ele>67.8</ele>
        <time>2018-03-19T18:45:58Z</time>
      </trkpt>
      <trkpt lat="62.630331036103" lon="17.970894098981">
        <ele>67.8</ele>
        <time>2018-03-19T18:45:59Z</time>
      </trkpt>
      <trkpt lat="62.630331706655" lon="17.970813800379">
        <ele>67.6</ele>
        <time>2018-03-19T18:46:00Z</time>
      </trkpt>
      <trkpt lat="62.630337825442" lon="17.970725958067">
        <ele>67.8</ele>
        <time>2018-03-19T18:46:01Z</time>
      </trkpt>
      <trkpt lat="62.630343273677" lon="17.970645072732">
        <ele>67.6</ele>
        <time>2018-03-19T18:46:02Z</time>
      </trkpt>
      <trkpt lat="62.630361127124" lon="17.970570809098">
        <ele>67.6</ele>
        <time>2018-03-19T18:46:03Z</time>
      </trkpt>
      <trkpt lat="62.630385686091" lon="17.9704918516">
        <ele>67.4</ele>
        <time>2018-03-19T18:46:04Z</time>
      </trkpt>
      <trkpt lat="62.630418962234" lon="17.970444996779">
        <ele>67.4</ele>
        <time>2018-03-19T18:46:05Z</time>
      </trkpt>
      <trkpt lat="62.630461793743" lon="17.970389508601">
        <ele>67</ele>
        <time>2018-03-19T18:46:06Z</time>
      </trkpt>
      <trkpt lat="62.630499260836" lon="17.970344581617">
        <ele>66.6</ele>
        <time>2018-03-19T18:46:07Z</time>
      </trkpt>
      <trkpt lat="62.630536057377" lon="17.970303677945">
        <ele>66.4</ele>
        <time>2018-03-19T18:46:08Z</time>
      </trkpt>
      <trkpt lat="62.630575955221" lon="17.970263361006">
        <ele>66.2</ele>
        <time>2018-03-19T18:46:09Z</time>
      </trkpt>
      <trkpt lat="62.630610237192" lon="17.970231845062">
        <ele>65.6</ele>
        <time>2018-03-19T18:46:10Z</time>
      </trkpt>
      <trkpt lat="62.630643513335" lon="17.970210471217">
        <ele>65.4</ele>
        <time>2018-03-19T18:46:11Z</time>
      </trkpt>
      <trkpt lat="62.630681148066" lon="17.97018675044">
        <ele>65.2</ele>
        <time>2018-03-19T18:46:12Z</time>
      </trkpt>
      <trkpt lat="62.630718196064" lon="17.970173674676">
        <ele>64.8</ele>
        <time>2018-03-19T18:46:13Z</time>
      </trkpt>
      <trkpt lat="62.630759435012" lon="17.970162107654">
        <ele>64.8</ele>
        <time>2018-03-19T18:46:14Z</time>
      </trkpt>
      <trkpt lat="62.63079564482" lon="17.970163700215">
        <ele>64.6</ele>
        <time>2018-03-19T18:46:15Z</time>
      </trkpt>
      <trkpt lat="62.63083336337" lon="17.970165963328">
        <ele>64.4</ele>
        <time>2018-03-19T18:46:16Z</time>
      </trkpt>
      <trkpt lat="62.630880553467" lon="17.970147690786">
        <ele>64</ele>
        <time>2018-03-19T18:46:18Z</time>
      </trkpt>
      <trkpt lat="62.630895054154" lon="17.970140147076">
        <ele>64</ele>
        <time>2018-03-19T18:46:19Z</time>
      </trkpt>
      <trkpt lat="62.630906202081" lon="17.97013310628">
        <ele>64.8</ele>
        <time>2018-03-19T18:46:20Z</time>
      </trkpt>
      <trkpt lat="62.630909303384" lon="17.970120365792">
        <ele>65.2</ele>
        <time>2018-03-19T18:46:21Z</time>
      </trkpt>
      <trkpt lat="62.630909219565" lon="17.970108379675">
        <ele>65.4</ele>
        <time>2018-03-19T18:46:22Z</time>
      </trkpt>
      <trkpt lat="62.630903687511" lon="17.970103099078">
        <ele>65.4</ele>
        <time>2018-03-19T18:46:23Z</time>
      </trkpt>
      <trkpt lat="62.630895976163" lon="17.97010041687">
        <ele>65.4</ele>
        <time>2018-03-19T18:46:24Z</time>
      </trkpt>
      <trkpt lat="62.630896898172" lon="17.970097399386">
        <ele>65.6</ele>
        <time>2018-03-19T18:46:25Z</time>
      </trkpt>
      <trkpt lat="62.630894467421" lon="17.970097483205">
        <ele>64.8</ele>
        <time>2018-03-19T18:46:26Z</time>
      </trkpt>
      <trkpt lat="62.630967222313" lon="17.970620849041">
        <ele>64.4</ele>
        <time>2018-03-19T18:48:49Z</time>
      </trkpt>
      <trkpt lat="62.630970407435" lon="17.970668206776">
        <ele>64.4</ele>
        <time>2018-03-19T18:48:50Z</time>
      </trkpt>
      <trkpt lat="62.63097585567" lon="17.97070894281">
        <ele>64.2</ele>
        <time>2018-03-19T18:48:51Z</time>
      </trkpt>
      <trkpt lat="62.630979292249" lon="17.970749511206">
        <ele>64.2</ele>
        <time>2018-03-19T18:48:52Z</time>
      </trkpt>
      <trkpt lat="62.630986668321" lon="17.970803155366">
        <ele>64</ele>
        <time>2018-03-19T18:48:53Z</time>
      </trkpt>
      <trkpt lat="62.630990691633" lon="17.970848752902">
        <ele>64</ele>
        <time>2018-03-19T18:48:54Z</time>
      </trkpt>
      <trkpt lat="62.630995217859" lon="17.970893428429">
        <ele>63.8</ele>
        <time>2018-03-19T18:48:55Z</time>
      </trkpt>
      <trkpt lat="62.630999492628" lon="17.970943552191">
        <ele>64</ele>
        <time>2018-03-19T18:48:56Z</time>
      </trkpt>
      <trkpt lat="62.631006198148" lon="17.97098722189">
        <ele>64</ele>
        <time>2018-03-19T18:48:57Z</time>
      </trkpt>
      <trkpt lat="62.631012568392" lon="17.97103499872">
        <ele>64.2</ele>
        <time>2018-03-19T18:48:58Z</time>
      </trkpt>
      <trkpt lat="62.631018519541" lon="17.971083529921">
        <ele>64.4</ele>
        <time>2018-03-19T18:48:59Z</time>
      </trkpt>
      <trkpt lat="62.631023716319" lon="17.971128624543">
        <ele>64.4</ele>
        <time>2018-03-19T18:49:00Z</time>
      </trkpt>
      <trkpt lat="62.631029835106" lon="17.971176569011">
        <ele>64.4</ele>
        <time>2018-03-19T18:49:01Z</time>
      </trkpt>
      <trkpt lat="62.631036037712" lon="17.97121940052">
        <ele>64.6</ele>
        <time>2018-03-19T18:49:02Z</time>
      </trkpt>
      <trkpt lat="62.631038887558" lon="17.971258711631">
        <ele>64.6</ele>
        <time>2018-03-19T18:49:03Z</time>
      </trkpt>
      <trkpt lat="62.631047604734" lon="17.97130992504">
        <ele>64.4</ele>
        <time>2018-03-19T18:49:04Z</time>
      </trkpt>
      <trkpt lat="62.631051795684" lon="17.971352253635">
        <ele>64.6</ele>
        <time>2018-03-19T18:49:05Z</time>
      </trkpt>
      <trkpt lat="62.631058920299" lon="17.971396677705">
        <ele>64.6</ele>
        <time>2018-03-19T18:49:06Z</time>
      </trkpt>
      <trkpt lat="62.631067302199" lon="17.971442023784">
        <ele>64.6</ele>
        <time>2018-03-19T18:49:07Z</time>
      </trkpt>
      <trkpt lat="62.631073588624" lon="17.971482759818">
        <ele>64.6</ele>
        <time>2018-03-19T18:49:08Z</time>
      </trkpt>
      <trkpt lat="62.63108062942" lon="17.971524920775">
        <ele>64.8</ele>
        <time>2018-03-19T18:49:09Z</time>
      </trkpt>
      <trkpt lat="62.631091106795" lon="17.971575212175">
        <ele>64.8</ele>
        <time>2018-03-19T18:49:10Z</time>
      </trkpt>
      <trkpt lat="62.631098650505" lon="17.971613182182">
        <ele>64.8</ele>
        <time>2018-03-19T18:49:11Z</time>
      </trkpt>
      <trkpt lat="62.631109714613" lon="17.971658779718">
        <ele>65</ele>
        <time>2018-03-19T18:49:12Z</time>
      </trkpt>
      <trkpt lat="62.631116503952" lon="17.971702700874">
        <ele>65</ele>
        <time>2018-03-19T18:49:13Z</time>
      </trkpt>
      <trkpt lat="62.631125388766" lon="17.971741760528">
        <ele>65.2</ele>
        <time>2018-03-19T18:49:14Z</time>
      </trkpt>
      <trkpt lat="62.631137374883" lon="17.971783418571">
        <ele>65.4</ele>
        <time>2018-03-19T18:49:15Z</time>
      </trkpt>
      <trkpt lat="62.631147349344" lon="17.971825495709">
        <ele>65.4</ele>
        <time>2018-03-19T18:49:16Z</time>
      </trkpt>
      <trkpt lat="62.631153971045" lon="17.971858268938">
        <ele>65.6</ele>
        <time>2018-03-19T18:49:17Z</time>
      </trkpt>
      <trkpt lat="62.631165538067" lon="17.97189833442">
        <ele>65.6</ele>
        <time>2018-03-19T18:49:18Z</time>
      </trkpt>
      <trkpt lat="62.631175177252" lon="17.971939657187">
        <ele>65.8</ele>
        <time>2018-03-19T18:49:19Z</time>
      </trkpt>
      <trkpt lat="62.631185570808" lon="17.97197041876">
        <ele>65.8</ele>
        <time>2018-03-19T18:49:20Z</time>
      </trkpt>
      <trkpt lat="62.631194790898" lon="17.972015513382">
        <ele>65.8</ele>
        <time>2018-03-19T18:49:21Z</time>
      </trkpt>
      <trkpt lat="62.631204765359" lon="17.972052980475">
        <ele>65.8</ele>
        <time>2018-03-19T18:49:22Z</time>
      </trkpt>
      <trkpt lat="62.631214823639" lon="17.972087010989">
        <ele>65.6</ele>
        <time>2018-03-19T18:49:23Z</time>
      </trkpt>
      <trkpt lat="62.631223373177" lon="17.972141912434">
        <ele>65.6</ele>
        <time>2018-03-19T18:49:24Z</time>
      </trkpt>
      <trkpt lat="62.631232257991" lon="17.972176948776">
        <ele>65.8</ele>
        <time>2018-03-19T18:49:25Z</time>
      </trkpt>
      <trkpt lat="62.631247932144" lon="17.972202932666">
        <ele>66</ele>
        <time>2018-03-19T18:49:26Z</time>
      </trkpt>
      <trkpt lat="62.63126419303" lon="17.972232856049">
        <ele>66</ele>
        <time>2018-03-19T18:49:27Z</time>
      </trkpt>
      <trkpt lat="62.631272742568" lon="17.972264791088">
        <ele>66</ele>
        <time>2018-03-19T18:49:28Z</time>
      </trkpt>
      <trkpt lat="62.631287494712" lon="17.972297648136">
        <ele>66.2</ele>
        <time>2018-03-19T18:49:29Z</time>
      </trkpt>
      <trkpt lat="62.631296630983" lon="17.97233922236">
        <ele>66.4</ele>
        <time>2018-03-19T18:49:30Z</time>
      </trkpt>
      <trkpt lat="62.631306773082" lon="17.972380712765">
        <ele>66.6</ele>
        <time>2018-03-19T18:49:31Z</time>
      </trkpt>
      <trkpt lat="62.631317753371" lon="17.972410636148">
        <ele>67</ele>
        <time>2018-03-19T18:49:32Z</time>
      </trkpt>
      <trkpt lat="62.631328985117" lon="17.972447097413">
        <ele>67</ele>
        <time>2018-03-19T18:49:33Z</time>
      </trkpt>
      <trkpt lat="62.631342060881" lon="17.972486827619">
        <ele>67.2</ele>
        <time>2018-03-19T18:49:34Z</time>
      </trkpt>
      <trkpt lat="62.631354382274" lon="17.972516583364">
        <ele>67.2</ele>
        <time>2018-03-19T18:49:35Z</time>
      </trkpt>
      <trkpt lat="62.631369553513" lon="17.972555894475">
        <ele>67</ele>
        <time>2018-03-19T18:49:36Z</time>
      </trkpt>
      <trkpt lat="62.631384305657" lon="17.972592774835">
        <ele>67.2</ele>
        <time>2018-03-19T18:49:37Z</time>
      </trkpt>
      <trkpt lat="62.631398219611" lon="17.972618423449">
        <ele>67.2</ele>
        <time>2018-03-19T18:49:38Z</time>
      </trkpt>
      <trkpt lat="62.631417414162" lon="17.972657064008">
        <ele>67.2</ele>
        <time>2018-03-19T18:49:39Z</time>
      </trkpt>
      <trkpt lat="62.631429484098" lon="17.972691597436">
        <ele>67.4</ele>
        <time>2018-03-19T18:49:40Z</time>
      </trkpt>
      <trkpt lat="62.631444655337" lon="17.972721939914">
        <ele>67.8</ele>
        <time>2018-03-19T18:49:41Z</time>
      </trkpt>
      <trkpt lat="62.631459742757" lon="17.97275580279">
        <ele>67.8</ele>
        <time>2018-03-19T18:49:42Z</time>
      </trkpt>
      <trkpt lat="62.63146954958" lon="17.972788659838">
        <ele>68</ele>
        <time>2018-03-19T18:49:43Z</time>
      </trkpt>
      <trkpt lat="62.631481200421" lon="17.972817493574">
        <ele>67.8</ele>
        <time>2018-03-19T18:49:44Z</time>
      </trkpt>
      <trkpt lat="62.631497712764" lon="17.972857307599">
        <ele>67.8</ele>
        <time>2018-03-19T18:49:45Z</time>
      </trkpt>
      <trkpt lat="62.631509112148" lon="17.972889661733">
        <ele>68</ele>
        <time>2018-03-19T18:49:46Z</time>
      </trkpt>
      <trkpt lat="62.631523696654" lon="17.972917154365">
        <ele>68</ele>
        <time>2018-03-19T18:49:47Z</time>
      </trkpt>
      <trkpt lat="62.631542304472" lon="17.972957722761">
        <ele>68.2</ele>
        <time>2018-03-19T18:49:48Z</time>
      </trkpt>
      <trkpt lat="62.63155588315" lon="17.972996195682">
        <ele>68.4</ele>
        <time>2018-03-19T18:49:49Z</time>
      </trkpt>
      <trkpt lat="62.631573904235" lon="17.97303408187">
        <ele>68.4</ele>
        <time>2018-03-19T18:49:50Z</time>
      </trkpt>
      <trkpt lat="62.63159024894" lon="17.973073057705">
        <ele>68.4</ele>
        <time>2018-03-19T18:49:51Z</time>
      </trkpt>
      <trkpt lat="62.631605923093" lon="17.973095772654">
        <ele>68.8</ele>
        <time>2018-03-19T18:49:52Z</time>
      </trkpt>
      <trkpt lat="62.631625369101" lon="17.973135419041">
        <ele>68.8</ele>
        <time>2018-03-19T18:49:53Z</time>
      </trkpt>
      <trkpt lat="62.631643641643" lon="17.973172047944">
        <ele>68.8</ele>
        <time>2018-03-19T18:49:54Z</time>
      </trkpt>
      <trkpt lat="62.631661662728" lon="17.973204569716">
        <ele>69.2</ele>
        <time>2018-03-19T18:49:55Z</time>
      </trkpt>
      <trkpt lat="62.631678677985" lon="17.973235582746">
        <ele>69.2</ele>
        <time>2018-03-19T18:49:56Z</time>
      </trkpt>
      <trkpt lat="62.631697453441" lon="17.973266595776">
        <ele>69.2</ele>
        <time>2018-03-19T18:49:57Z</time>
      </trkpt>
      <trkpt lat="62.631714384879" lon="17.973284952137">
        <ele>69.4</ele>
        <time>2018-03-19T18:49:58Z</time>
      </trkpt>
      <trkpt lat="62.63174028495" lon="17.973321497221">
        <ele>69.4</ele>
        <time>2018-03-19T18:49:59Z</time>
      </trkpt>
      <trkpt lat="62.631761826433" lon="17.973354941002">
        <ele>69.4</ele>
        <time>2018-03-19T18:50:00Z</time>
      </trkpt>
      <trkpt lat="62.631782613545" lon="17.973375476657">
        <ele>69.4</ele>
        <time>2018-03-19T18:50:01Z</time>
      </trkpt>
      <trkpt lat="62.631803065381" lon="17.973401292909">
        <ele>69.4</ele>
        <time>2018-03-19T18:50:02Z</time>
      </trkpt>
      <trkpt lat="62.63182578033" lon="17.973430964835">
        <ele>69.4</ele>
        <time>2018-03-19T18:50:03Z</time>
      </trkpt>
      <trkpt lat="62.631845813071" lon="17.973453763603">
        <ele>69.4</ele>
        <time>2018-03-19T18:50:04Z</time>
      </trkpt>
      <trkpt lat="62.631869952943" lon="17.973487039746">
        <ele>69.4</ele>
        <time>2018-03-19T18:50:05Z</time>
      </trkpt>
      <trkpt lat="62.631891829702" lon="17.973515286749">
        <ele>69.4</ele>
        <time>2018-03-19T18:50:06Z</time>
      </trkpt>
      <trkpt lat="62.631909012597" lon="17.973539426621">
        <ele>69.6</ele>
        <time>2018-03-19T18:50:07Z</time>
      </trkpt>
      <trkpt lat="62.631932901012" lon="17.973571110203">
        <ele>70</ele>
        <time>2018-03-19T18:50:08Z</time>
      </trkpt>
      <trkpt lat="62.631952263201" lon="17.97359902193">
        <ele>70.4</ele>
        <time>2018-03-19T18:50:09Z</time>
      </trkpt>
      <trkpt lat="62.631969865191" lon="17.973618467938">
        <ele>70.4</ele>
        <time>2018-03-19T18:50:10Z</time>
      </trkpt>
      <trkpt lat="62.631986461353" lon="17.973651073529">
        <ele>70.4</ele>
        <time>2018-03-19T18:50:11Z</time>
      </trkpt>
      <trkpt lat="62.632009846854" lon="17.973676889781">
        <ele>70.6</ele>
        <time>2018-03-19T18:50:12Z</time>
      </trkpt>
      <trkpt lat="62.632032310346" lon="17.973698095988">
        <ele>70.4</ele>
        <time>2018-03-19T18:50:13Z</time>
      </trkpt>
      <trkpt lat="62.632054773838" lon="17.973730366303">
        <ele>70.2</ele>
        <time>2018-03-19T18:50:14Z</time>
      </trkpt>
      <trkpt lat="62.632072543466" lon="17.973754673813">
        <ele>70</ele>
        <time>2018-03-19T18:50:15Z</time>
      </trkpt>
      <trkpt lat="62.632088636714" lon="17.973779903332">
        <ele>69.8</ele>
        <time>2018-03-19T18:50:16Z</time>
      </trkpt>
      <trkpt lat="62.632105819609" lon="17.973813263294">
        <ele>69.6</ele>
        <time>2018-03-19T18:50:17Z</time>
      </trkpt>
      <trkpt lat="62.632120320296" lon="17.973847293808">
        <ele>69.6</ele>
        <time>2018-03-19T18:50:18Z</time>
      </trkpt>
      <trkpt lat="62.632144543987" lon="17.973874283526">
        <ele>69</ele>
        <time>2018-03-19T18:50:19Z</time>
      </trkpt>
      <trkpt lat="62.632165079642" lon="17.973897166113">
        <ele>69</ele>
        <time>2018-03-19T18:50:20Z</time>
      </trkpt>
      <trkpt lat="62.632185280021" lon="17.973918623777">
        <ele>68.8</ele>
        <time>2018-03-19T18:50:21Z</time>
      </trkpt>
      <trkpt lat="62.632201792364" lon="17.973941590183">
        <ele>68.8</ele>
        <time>2018-03-19T18:50:22Z</time>
      </trkpt>
      <trkpt lat="62.632224088218" lon="17.973961874381">
        <ele>68.8</ele>
        <time>2018-03-19T18:50:23Z</time>
      </trkpt>
      <trkpt lat="62.632253760144" lon="17.973989953746">
        <ele>69</ele>
        <time>2018-03-19T18:50:24Z</time>
      </trkpt>
      <trkpt lat="62.632276139817" lon="17.974008729202">
        <ele>69.4</ele>
        <time>2018-03-19T18:50:25Z</time>
      </trkpt>
      <trkpt lat="62.632300698784" lon="17.974027672296">
        <ele>69.8</ele>
        <time>2018-03-19T18:50:26Z</time>
      </trkpt>
      <trkpt lat="62.632320144792" lon="17.974050387245">
        <ele>69.8</ele>
        <time>2018-03-19T18:50:27Z</time>
      </trkpt>
      <trkpt lat="62.632339423162" lon="17.974067821597">
        <ele>70</ele>
        <time>2018-03-19T18:50:28Z</time>
      </trkpt>
      <trkpt lat="62.632362305749" lon="17.974092799659">
        <ele>70.2</ele>
        <time>2018-03-19T18:50:29Z</time>
      </trkpt>
      <trkpt lat="62.632391642399" lon="17.97411450878">
        <ele>70.2</ele>
        <time>2018-03-19T18:50:30Z</time>
      </trkpt>
      <trkpt lat="62.632410082579" lon="17.974137056091">
        <ele>70.2</ele>
        <time>2018-03-19T18:50:31Z</time>
      </trkpt>
      <trkpt lat="62.632433635718" lon="17.974160693049">
        <ele>70.4</ele>
        <time>2018-03-19T18:50:32Z</time>
      </trkpt>
      <trkpt lat="62.632460038703" lon="17.974187682767">
        <ele>70.6</ele>
        <time>2018-03-19T18:50:33Z</time>
      </trkpt>
      <trkpt lat="62.632482166919" lon="17.974220036901">
        <ele>70.6</ele>
        <time>2018-03-19T18:50:34Z</time>
      </trkpt>
      <trkpt lat="62.632504211316" lon="17.974243673859">
        <ele>70.6</ele>
        <time>2018-03-19T18:50:35Z</time>
      </trkpt>
      <trkpt lat="62.632526423351" lon="17.974270495939">
        <ele>70.6</ele>
        <time>2018-03-19T18:50:36Z</time>
      </trkpt>
      <trkpt lat="62.632550982318" lon="17.97428717592">
        <ele>70.8</ele>
        <time>2018-03-19T18:50:37Z</time>
      </trkpt>
      <trkpt lat="62.632576966208" lon="17.974308633584">
        <ele>70.8</ele>
        <time>2018-03-19T18:50:38Z</time>
      </trkpt>
      <trkpt lat="62.632602279546" lon="17.974334449836">
        <ele>70.6</ele>
        <time>2018-03-19T18:50:39Z</time>
      </trkpt>
      <trkpt lat="62.632624072486" lon="17.974362780658">
        <ele>70.4</ele>
        <time>2018-03-19T18:50:40Z</time>
      </trkpt>
      <trkpt lat="62.632649553462" lon="17.974381723752">
        <ele>70</ele>
        <time>2018-03-19T18:50:41Z</time>
      </trkpt>
      <trkpt lat="62.632674615343" lon="17.9744061989">
        <ele>70</ele>
        <time>2018-03-19T18:50:42Z</time>
      </trkpt>
      <trkpt lat="62.632696995016" lon="17.974411982411">
        <ele>69.6</ele>
        <time>2018-03-19T18:50:43Z</time>
      </trkpt>
      <trkpt lat="62.632727588951" lon="17.974417765922">
        <ele>69</ele>
        <time>2018-03-19T18:50:44Z</time>
      </trkpt>
      <trkpt lat="62.63275449485" lon="17.974422040691">
        <ele>69</ele>
        <time>2018-03-19T18:50:45Z</time>
      </trkpt>
      <trkpt lat="62.632776455428" lon="17.974412569144">
        <ele>69.2</ele>
        <time>2018-03-19T18:50:46Z</time>
      </trkpt>
      <trkpt lat="62.632797996911" lon="17.974397314086">
        <ele>69.4</ele>
        <time>2018-03-19T18:50:47Z</time>
      </trkpt>
      <trkpt lat="62.632821130955" lon="17.974364708495">
        <ele>69.8</ele>
        <time>2018-03-19T18:50:48Z</time>
      </trkpt>
      <trkpt lat="62.63283915204" lon="17.97432992361">
        <ele>70.2</ele>
        <time>2018-03-19T18:50:49Z</time>
      </trkpt>
      <trkpt lat="62.632855161469" lon="17.974285080445">
        <ele>70.6</ele>
        <time>2018-03-19T18:50:50Z</time>
      </trkpt>
      <trkpt lat="62.632871254717" lon="17.974237052158">
        <ele>70.6</ele>
        <time>2018-03-19T18:50:51Z</time>
      </trkpt>
      <trkpt lat="62.632882151187" lon="17.974194639744">
        <ele>70.4</ele>
        <time>2018-03-19T18:50:52Z</time>
      </trkpt>
      <trkpt lat="62.632898914987" lon="17.974144096887">
        <ele>70.4</ele>
        <time>2018-03-19T18:50:53Z</time>
      </trkpt>
      <trkpt lat="62.632916014063" lon="17.974085842682">
        <ele>70.2</ele>
        <time>2018-03-19T18:50:54Z</time>
      </trkpt>
      <trkpt lat="62.632927664904" lon="17.974041250974">
        <ele>70</ele>
        <time>2018-03-19T18:50:55Z</time>
      </trkpt>
      <trkpt lat="62.632937304089" lon="17.973985846615">
        <ele>70</ele>
        <time>2018-03-19T18:50:56Z</time>
      </trkpt>
      <trkpt lat="62.632948535835" lon="17.973936477224">
        <ele>70</ele>
        <time>2018-03-19T18:50:57Z</time>
      </trkpt>
      <trkpt lat="62.632958258839" lon="17.973896998475">
        <ele>69.8</ele>
        <time>2018-03-19T18:50:58Z</time>
      </trkpt>
      <trkpt lat="62.632968903852" lon="17.973843521953">
        <ele>69.8</ele>
        <time>2018-03-19T18:50:59Z</time>
      </trkpt>
      <trkpt lat="62.632979381227" lon="17.973792560001">
        <ele>69.8</ele>
        <time>2018-03-19T18:51:00Z</time>
      </trkpt>
      <trkpt lat="62.632990277697" lon="17.973746375732">
        <ele>69.8</ele>
        <time>2018-03-19T18:51:01Z</time>
      </trkpt>
      <trkpt lat="62.633002431452" lon="17.973699353273">
        <ele>69.6</ele>
        <time>2018-03-19T18:51:02Z</time>
      </trkpt>
      <trkpt lat="62.633008801696" lon="17.973647972226">
        <ele>69.6</ele>
        <time>2018-03-19T18:51:03Z</time>
      </trkpt>
      <trkpt lat="62.633022128917" lon="17.97360237469">
        <ele>69.6</ele>
        <time>2018-03-19T18:51:04Z</time>
      </trkpt>
      <trkpt lat="62.633034366491" lon="17.973549903996">
        <ele>69.4</ele>
        <time>2018-03-19T18:51:05Z</time>
      </trkpt>
      <trkpt lat="62.633048950997" lon="17.973497098026">
        <ele>69.4</ele>
        <time>2018-03-19T18:51:06Z</time>
      </trkpt>
      <trkpt lat="62.633053393404" lon="17.973442448038">
        <ele>69.6</ele>
        <time>2018-03-19T18:51:07Z</time>
      </trkpt>
      <trkpt lat="62.633060601838" lon="17.973376147209">
        <ele>69.8</ele>
        <time>2018-03-19T18:51:08Z</time>
      </trkpt>
      <trkpt lat="62.63307300705" lon="17.973317725366">
        <ele>69.8</ele>
        <time>2018-03-19T18:51:09Z</time>
      </trkpt>
      <trkpt lat="62.6330855799" lon="17.973266931052">
        <ele>69.8</ele>
        <time>2018-03-19T18:51:10Z</time>
      </trkpt>
      <trkpt lat="62.633095805818" lon="17.973221082059">
        <ele>69.8</ele>
        <time>2018-03-19T18:51:11Z</time>
      </trkpt>
      <trkpt lat="62.633104355356" lon="17.97315813399">
        <ele>69.6</ele>
        <time>2018-03-19T18:51:12Z</time>
      </trkpt>
      <trkpt lat="62.633113072532" lon="17.973106082391">
        <ele>69.2</ele>
        <time>2018-03-19T18:51:13Z</time>
      </trkpt>
      <trkpt lat="62.633124304278" lon="17.973036093526">
        <ele>69</ele>
        <time>2018-03-19T18:51:14Z</time>
      </trkpt>
      <trkpt lat="62.633132350902" lon="17.972982030271">
        <ele>69</ele>
        <time>2018-03-19T18:51:15Z</time>
      </trkpt>
      <trkpt lat="62.633138804965" lon="17.972923189333">
        <ele>68.8</ele>
        <time>2018-03-19T18:51:16Z</time>
      </trkpt>
      <trkpt lat="62.633150455806" lon="17.97287650215">
        <ele>68.6</ele>
        <time>2018-03-19T18:51:17Z</time>
      </trkpt>
      <trkpt lat="62.633160346448" lon="17.972827132759">
        <ele>68.6</ele>
        <time>2018-03-19T18:51:18Z</time>
      </trkpt>
      <trkpt lat="62.633175601506" lon="17.972770135839">
        <ele>68.6</ele>
        <time>2018-03-19T18:51:19Z</time>
      </trkpt>
      <trkpt lat="62.633184402501" lon="17.972712384548">
        <ele>68.6</ele>
        <time>2018-03-19T18:51:20Z</time>
      </trkpt>
      <trkpt lat="62.633192952039" lon="17.972661338777">
        <ele>68.6</ele>
        <time>2018-03-19T18:51:21Z</time>
      </trkpt>
      <trkpt lat="62.633204770518" lon="17.972607191703">
        <ele>68.6</ele>
        <time>2018-03-19T18:51:22Z</time>
      </trkpt>
      <trkpt lat="62.633213320056" lon="17.972559750149">
        <ele>68.6</ele>
        <time>2018-03-19T18:51:23Z</time>
      </trkpt>
      <trkpt lat="62.633225306173" lon="17.972496550623">
        <ele>68.6</ele>
        <time>2018-03-19T18:51:24Z</time>
      </trkpt>
      <trkpt lat="62.633235867367" lon="17.972439469884">
        <ele>68.4</ele>
        <time>2018-03-19T18:51:25Z</time>
      </trkpt>
      <trkpt lat="62.633243746353" lon="17.972402505705">
        <ele>68.4</ele>
        <time>2018-03-19T18:51:26Z</time>
      </trkpt>
      <trkpt lat="62.633250954787" lon="17.972324805492">
        <ele>68.2</ele>
        <time>2018-03-19T18:51:27Z</time>
      </trkpt>
      <trkpt lat="62.633261935076" lon="17.972281303431">
        <ele>68.2</ele>
        <time>2018-03-19T18:51:28Z</time>
      </trkpt>
      <trkpt lat="62.633269814062" lon="17.972222965407">
        <ele>68</ele>
        <time>2018-03-19T18:51:29Z</time>
      </trkpt>
      <trkpt lat="62.633275262297" lon="17.972166219944">
        <ele>68</ele>
        <time>2018-03-19T18:51:30Z</time>
      </trkpt>
      <trkpt lat="62.633284566206" lon="17.972104110065">
        <ele>68</ele>
        <time>2018-03-19T18:51:31Z</time>
      </trkpt>
      <trkpt lat="62.633293786296" lon="17.972056584692">
        <ele>68</ele>
        <time>2018-03-19T18:51:32Z</time>
      </trkpt>
      <trkpt lat="62.63330267111" lon="17.972007718215">
        <ele>67.8</ele>
        <time>2018-03-19T18:51:33Z</time>
      </trkpt>
      <trkpt lat="62.633312226476" lon="17.971945524517">
        <ele>67.8</ele>
        <time>2018-03-19T18:51:34Z</time>
      </trkpt>
      <trkpt lat="62.633314992503" lon="17.971897244773">
        <ele>67.4</ele>
        <time>2018-03-19T18:51:35Z</time>
      </trkpt>
      <trkpt lat="62.633323374403" lon="17.971835637808">
        <ele>67.4</ele>
        <time>2018-03-19T18:51:36Z</time>
      </trkpt>
      <trkpt lat="62.633329912285" lon="17.971778892345">
        <ele>67.2</ele>
        <time>2018-03-19T18:51:37Z</time>
      </trkpt>
      <trkpt lat="62.633334270873" lon="17.971725583461">
        <ele>67</ele>
        <time>2018-03-19T18:51:38Z</time>
      </trkpt>
      <trkpt lat="62.633340641117" lon="17.971667580713">
        <ele>67</ele>
        <time>2018-03-19T18:51:39Z</time>
      </trkpt>
      <trkpt lat="62.633346843723" lon="17.971607147214">
        <ele>66.8</ele>
        <time>2018-03-19T18:51:40Z</time>
      </trkpt>
      <trkpt lat="62.633349106836" lon="17.971562052592">
        <ele>66.6</ele>
        <time>2018-03-19T18:51:41Z</time>
      </trkpt>
      <trkpt lat="62.633350950854" lon="17.971493237193">
        <ele>66.6</ele>
        <time>2018-03-19T18:51:42Z</time>
      </trkpt>
      <trkpt lat="62.633354471252" lon="17.971443532526">
        <ele>66.6</ele>
        <time>2018-03-19T18:51:43Z</time>
      </trkpt>
      <trkpt lat="62.63335547708" lon="17.971390726556">
        <ele>66.6</ele>
        <time>2018-03-19T18:51:44Z</time>
      </trkpt>
      <trkpt lat="62.633358075469" lon="17.971329790143">
        <ele>66.6</ele>
        <time>2018-03-19T18:51:45Z</time>
      </trkpt>
      <trkpt lat="62.633361092953" lon="17.971277738544">
        <ele>66.6</ele>
        <time>2018-03-19T18:51:46Z</time>
      </trkpt>
      <trkpt lat="62.633362769333" lon="17.971230967542">
        <ele>66.4</ele>
        <time>2018-03-19T18:51:47Z</time>
      </trkpt>
      <trkpt lat="62.63336553536" lon="17.97117497645">
        <ele>66.4</ele>
        <time>2018-03-19T18:51:48Z</time>
      </trkpt>
      <trkpt lat="62.633364613351" lon="17.971115045865">
        <ele>66.4</ele>
        <time>2018-03-19T18:51:49Z</time>
      </trkpt>
      <trkpt lat="62.633362685514" lon="17.971061401705">
        <ele>66.4</ele>
        <time>2018-03-19T18:51:50Z</time>
      </trkpt>
      <trkpt lat="62.633367463197" lon="17.970997866903">
        <ele>66.2</ele>
        <time>2018-03-19T18:51:51Z</time>
      </trkpt>
      <trkpt lat="62.633371318871" lon="17.97094363601">
        <ele>66</ele>
        <time>2018-03-19T18:51:52Z</time>
      </trkpt>
      <trkpt lat="62.633373665803" lon="17.970893093153">
        <ele>65.8</ele>
        <time>2018-03-19T18:51:53Z</time>
      </trkpt>
      <trkpt lat="62.633374001079" lon="17.970825954134">
        <ele>65.6</ele>
        <time>2018-03-19T18:51:54Z</time>
      </trkpt>
      <trkpt lat="62.63337307907" lon="17.970773064345">
        <ele>65.4</ele>
        <time>2018-03-19T18:51:55Z</time>
      </trkpt>
      <trkpt lat="62.633370732138" lon="17.970712211751">
        <ele>65.4</ele>
        <time>2018-03-19T18:51:56Z</time>
      </trkpt>
      <trkpt lat="62.633370229224" lon="17.970652616442">
        <ele>65.4</ele>
        <time>2018-03-19T18:51:57Z</time>
      </trkpt>
      <trkpt lat="62.633366541188" lon="17.970602576499">
        <ele>65.2</ele>
        <time>2018-03-19T18:51:58Z</time>
      </trkpt>
      <trkpt lat="62.633364361894" lon="17.970549267615">
        <ele>65.2</ele>
        <time>2018-03-19T18:51:59Z</time>
      </trkpt>
      <trkpt lat="62.633363775161" lon="17.970485732813">
        <ele>65.2</ele>
        <time>2018-03-19T18:52:00Z</time>
      </trkpt>
      <trkpt lat="62.633360673858" lon="17.970438710354">
        <ele>64.8</ele>
        <time>2018-03-19T18:52:01Z</time>
      </trkpt>
      <trkpt lat="62.63335882984" lon="17.970373918267">
        <ele>64.8</ele>
        <time>2018-03-19T18:52:02Z</time>
      </trkpt>
      <trkpt lat="62.633355896175" lon="17.970317088985">
        <ele>64.8</ele>
        <time>2018-03-19T18:52:03Z</time>
      </trkpt>
      <trkpt lat="62.633352291958" lon="17.970260427341">
        <ele>64.6</ele>
        <time>2018-03-19T18:52:04Z</time>
      </trkpt>
      <trkpt lat="62.633348855379" lon="17.970207872828">
        <ele>64.6</ele>
        <time>2018-03-19T18:52:05Z</time>
      </trkpt>
      <trkpt lat="62.633348268646" lon="17.97013729723">
        <ele>64.6</ele>
        <time>2018-03-19T18:52:06Z</time>
      </trkpt>
      <trkpt lat="62.633344329153" lon="17.97008700583">
        <ele>64.4</ele>
        <time>2018-03-19T18:52:07Z</time>
      </trkpt>
      <trkpt lat="62.633340976393" lon="17.970032104385">
        <ele>64.2</ele>
        <time>2018-03-19T18:52:08Z</time>
      </trkpt>
      <trkpt lat="62.633338210366" lon="17.969964881547">
        <ele>64.2</ele>
        <time>2018-03-19T18:52:09Z</time>
      </trkpt>
      <trkpt lat="62.63333116957" lon="17.969900257098">
        <ele>64.2</ele>
        <time>2018-03-19T18:52:10Z</time>
      </trkpt>
      <trkpt lat="62.633328990276" lon="17.969840158875">
        <ele>63.8</ele>
        <time>2018-03-19T18:52:11Z</time>
      </trkpt>
      <trkpt lat="62.63332111129" lon="17.969775115331">
        <ele>63.8</ele>
        <time>2018-03-19T18:52:12Z</time>
      </trkpt>
      <trkpt lat="62.633315663055" lon="17.969718286049">
        <ele>63.6</ele>
        <time>2018-03-19T18:52:13Z</time>
      </trkpt>
      <trkpt lat="62.63331608215" lon="17.969649889745">
        <ele>63.6</ele>
        <time>2018-03-19T18:52:14Z</time>
      </trkpt>
      <trkpt lat="62.633315579236" lon="17.969595910309">
        <ele>63.2</ele>
        <time>2018-03-19T18:52:15Z</time>
      </trkpt>
      <trkpt lat="62.633315160141" lon="17.969531369679">
        <ele>63.4</ele>
        <time>2018-03-19T18:52:16Z</time>
      </trkpt>
      <trkpt lat="62.633322452394" lon="17.969466829049">
        <ele>63.2</ele>
        <time>2018-03-19T18:52:17Z</time>
      </trkpt>
      <trkpt lat="62.633326643344" lon="17.969411759966">
        <ele>62.8</ele>
        <time>2018-03-19T18:52:18Z</time>
      </trkpt>
      <trkpt lat="62.633329660828" lon="17.969348392802">
        <ele>62.8</ele>
        <time>2018-03-19T18:52:19Z</time>
      </trkpt>
      <trkpt lat="62.63333284595" lon="17.969281589059">
        <ele>62.8</ele>
        <time>2018-03-19T18:52:20Z</time>
      </trkpt>
      <trkpt lat="62.633344915886" lon="17.969224759777">
        <ele>62.6</ele>
        <time>2018-03-19T18:52:21Z</time>
      </trkpt>
      <trkpt lat="62.633364613351" lon="17.969174133101">
        <ele>62.6</ele>
        <time>2018-03-19T18:52:22Z</time>
      </trkpt>
      <trkpt lat="62.633373162889" lon="17.969141359872">
        <ele>62.6</ele>
        <time>2018-03-19T18:52:23Z</time>
      </trkpt>
      <trkpt lat="62.633392105983" lon="17.969071371007">
        <ele>62.4</ele>
        <time>2018-03-19T18:52:24Z</time>
      </trkpt>
      <trkpt lat="62.633401912806" lon="17.96901076987">
        <ele>62.2</ele>
        <time>2018-03-19T18:52:25Z</time>
      </trkpt>
      <trkpt lat="62.633404678833" lon="17.968952264208">
        <ele>62</ele>
        <time>2018-03-19T18:52:26Z</time>
      </trkpt>
      <trkpt lat="62.633408869783" lon="17.968894345279">
        <ele>61.8</ele>
        <time>2018-03-19T18:52:27Z</time>
      </trkpt>
      <trkpt lat="62.633413815104" lon="17.968829888468">
        <ele>61.6</ele>
        <time>2018-03-19T18:52:28Z</time>
      </trkpt>
      <trkpt lat="62.633422029366" lon="17.968782111638">
        <ele>61.4</ele>
        <time>2018-03-19T18:52:29Z</time>
      </trkpt>
      <trkpt lat="62.633427729058" lon="17.968715643171">
        <ele>61.2</ele>
        <time>2018-03-19T18:52:30Z</time>
      </trkpt>
      <trkpt lat="62.633436865329" lon="17.968651018722">
        <ele>61</ele>
        <time>2018-03-19T18:52:31Z</time>
      </trkpt>
      <trkpt lat="62.633444828134" lon="17.968601900788">
        <ele>60.8</ele>
        <time>2018-03-19T18:52:32Z</time>
      </trkpt>
      <trkpt lat="62.633449186722" lon="17.968550519741">
        <ele>60.4</ele>
        <time>2018-03-19T18:52:33Z</time>
      </trkpt>
      <trkpt lat="62.633459245002" lon="17.968483464541">
        <ele>60.2</ele>
        <time>2018-03-19T18:52:34Z</time>
      </trkpt>
      <trkpt lat="62.633464274142" lon="17.96843409515">
        <ele>60</ele>
        <time>2018-03-19T18:52:35Z</time>
      </trkpt>
      <trkpt lat="62.633470476748" lon="17.968377768782">
        <ele>59.8</ele>
        <time>2018-03-19T18:52:36Z</time>
      </trkpt>
      <trkpt lat="62.633480954123" lon="17.968316245636">
        <ele>59.4</ele>
        <time>2018-03-19T18:52:37Z</time>
      </trkpt>
      <trkpt lat="62.633485899444" lon="17.968269390815">
        <ele>59.4</ele>
        <time>2018-03-19T18:52:38Z</time>
      </trkpt>
      <trkpt lat="62.633491934412" lon="17.968214321732">
        <ele>59</ele>
        <time>2018-03-19T18:52:39Z</time>
      </trkpt>
      <trkpt lat="62.633501573597" lon="17.968153972052">
        <ele>58.8</ele>
        <time>2018-03-19T18:52:40Z</time>
      </trkpt>
      <trkpt lat="62.633506016004" lon="17.968101836634">
        <ele>58.6</ele>
        <time>2018-03-19T18:52:41Z</time>
      </trkpt>
      <trkpt lat="62.633511715696" lon="17.968042325144">
        <ele>58.6</ele>
        <time>2018-03-19T18:52:42Z</time>
      </trkpt>
      <trkpt lat="62.633521941614" lon="17.967981724007">
        <ele>58.2</ele>
        <time>2018-03-19T18:52:43Z</time>
      </trkpt>
      <trkpt lat="62.633527054573" lon="17.967926738743">
        <ele>58</ele>
        <time>2018-03-19T18:52:44Z</time>
      </trkpt>
      <trkpt lat="62.633536442301" lon="17.967866305244">
        <ele>57.8</ele>
        <time>2018-03-19T18:52:45Z</time>
      </trkpt>
      <trkpt lat="62.633545997667" lon="17.967804446822">
        <ele>57.4</ele>
        <time>2018-03-19T18:52:46Z</time>
      </trkpt>
      <trkpt lat="62.633550859169" lon="17.967755831802">
        <ele>57.2</ele>
        <time>2018-03-19T18:52:47Z</time>
      </trkpt>
      <trkpt lat="62.633559073431" lon="17.967702103823">
        <ele>57.2</ele>
        <time>2018-03-19T18:52:48Z</time>
      </trkpt>
      <trkpt lat="62.633571646281" lon="17.967642927609">
        <ele>57.2</ele>
        <time>2018-03-19T18:52:49Z</time>
      </trkpt>
      <trkpt lat="62.633579776724" lon="17.967593809675">
        <ele>57.2</ele>
        <time>2018-03-19T18:52:50Z</time>
      </trkpt>
      <trkpt lat="62.633592433393" lon="17.967532286529">
        <ele>57</ele>
        <time>2018-03-19T18:52:51Z</time>
      </trkpt>
      <trkpt lat="62.633601653483" lon="17.967467745899">
        <ele>57</ele>
        <time>2018-03-19T18:52:52Z</time>
      </trkpt>
      <trkpt lat="62.633609532469" lon="17.967419717612">
        <ele>56.8</ele>
        <time>2018-03-19T18:52:53Z</time>
      </trkpt>
      <trkpt lat="62.633621602405" lon="17.96734109539">
        <ele>56.4</ele>
        <time>2018-03-19T18:52:54Z</time>
      </trkpt>
      <trkpt lat="62.633627134459" lon="17.967284182289">
        <ele>56.2</ele>
        <time>2018-03-19T18:52:55Z</time>
      </trkpt>
      <trkpt lat="62.633633001789" lon="17.967230119034">
        <ele>56</ele>
        <time>2018-03-19T18:52:56Z</time>
      </trkpt>
      <trkpt lat="62.633642221879" lon="17.967161387454">
        <ele>55.6</ele>
        <time>2018-03-19T18:52:57Z</time>
      </trkpt>
      <trkpt lat="62.633649011218" lon="17.967116376651">
        <ele>55.4</ele>
        <time>2018-03-19T18:52:58Z</time>
      </trkpt>
      <trkpt lat="62.633653621263" lon="17.96706197812">
        <ele>55.4</ele>
        <time>2018-03-19T18:52:59Z</time>
      </trkpt>
      <trkpt lat="62.633661667887" lon="17.966989139409">
        <ele>55</ele>
        <time>2018-03-19T18:53:00Z</time>
      </trkpt>
      <trkpt lat="62.633670133606" lon="17.966937255448">
        <ele>54.8</ele>
        <time>2018-03-19T18:53:01Z</time>
      </trkpt>
      <trkpt lat="62.633678096411" lon="17.966884617116">
        <ele>54.6</ele>
        <time>2018-03-19T18:53:02Z</time>
      </trkpt>
      <trkpt lat="62.633686143035" lon="17.966825273264">
        <ele>54.4</ele>
        <time>2018-03-19T18:53:03Z</time>
      </trkpt>
      <trkpt lat="62.633693435288" lon="17.966768360163">
        <ele>54</ele>
        <time>2018-03-19T18:53:04Z</time>
      </trkpt>
      <trkpt lat="62.633698464428" lon="17.966710441234">
        <ele>53.8</ele>
        <time>2018-03-19T18:53:05Z</time>
      </trkpt>
      <trkpt lat="62.633710618183" lon="17.966648079898">
        <ele>53.6</ele>
        <time>2018-03-19T18:53:06Z</time>
      </trkpt>
      <trkpt lat="62.633718748626" lon="17.966600386887">
        <ele>53.4</ele>
        <time>2018-03-19T18:53:07Z</time>
      </trkpt>
      <trkpt lat="62.633724196861" lon="17.966546658908">
        <ele>53.2</ele>
        <time>2018-03-19T18:53:08Z</time>
      </trkpt>
      <trkpt lat="62.633732997856" lon="17.966473987835">
        <ele>52.8</ele>
        <time>2018-03-19T18:53:09Z</time>
      </trkpt>
      <trkpt lat="62.63374188267" lon="17.966428641756">
        <ele>52.8</ele>
        <time>2018-03-19T18:53:10Z</time>
      </trkpt>
      <trkpt lat="62.633748252914" lon="17.966377847442">
        <ele>52.6</ele>
        <time>2018-03-19T18:53:11Z</time>
      </trkpt>
      <trkpt lat="62.63375780828" lon="17.966313977364">
        <ele>52.4</ele>
        <time>2018-03-19T18:53:12Z</time>
      </trkpt>
      <trkpt lat="62.633765184352" lon="17.966266284353">
        <ele>52</ele>
        <time>2018-03-19T18:53:13Z</time>
      </trkpt>
      <trkpt lat="62.633777002831" lon="17.966212556374">
        <ele>51.8</ele>
        <time>2018-03-19T18:53:14Z</time>
      </trkpt>
      <trkpt lat="62.633788318396" lon="17.966144243889">
        <ele>51.8</ele>
        <time>2018-03-19T18:53:15Z</time>
      </trkpt>
      <trkpt lat="62.633792676984" lon="17.966092359928">
        <ele>51.4</ele>
        <time>2018-03-19T18:53:16Z</time>
      </trkpt>
      <trkpt lat="62.633798711952" lon="17.966032848438">
        <ele>51.2</ele>
        <time>2018-03-19T18:53:17Z</time>
      </trkpt>
      <trkpt lat="62.63380390873" lon="17.965971576749">
        <ele>50.6</ele>
        <time>2018-03-19T18:53:18Z</time>
      </trkpt>
      <trkpt lat="62.633809189327" lon="17.965915753295">
        <ele>50.4</ele>
        <time>2018-03-19T18:53:19Z</time>
      </trkpt>
      <trkpt lat="62.633814386105" lon="17.965858504918">
        <ele>50.2</ele>
        <time>2018-03-19T18:53:20Z</time>
      </trkpt>
      <trkpt lat="62.633818409417" lon="17.965802513826">
        <ele>50</ele>
        <time>2018-03-19T18:53:21Z</time>
      </trkpt>
      <trkpt lat="62.633821175444" lon="17.965745265449">
        <ele>49.8</ele>
        <time>2018-03-19T18:53:22Z</time>
      </trkpt>
      <trkpt lat="62.633823941471" lon="17.965693130031">
        <ele>49.6</ele>
        <time>2018-03-19T18:53:23Z</time>
      </trkpt>
      <trkpt lat="62.633822600367" lon="17.965632780351">
        <ele>49.4</ele>
        <time>2018-03-19T18:53:24Z</time>
      </trkpt>
      <trkpt lat="62.633820421073" lon="17.965575699612">
        <ele>49.2</ele>
        <time>2018-03-19T18:53:25Z</time>
      </trkpt>
      <trkpt lat="62.633818577055" lon="17.96551719395">
        <ele>48.8</ele>
        <time>2018-03-19T18:53:26Z</time>
      </trkpt>
      <trkpt lat="62.633815811028" lon="17.965461621953">
        <ele>48.6</ele>
        <time>2018-03-19T18:53:27Z</time>
      </trkpt>
      <trkpt lat="62.633814553743" lon="17.965413509847">
        <ele>48.4</ele>
        <time>2018-03-19T18:53:28Z</time>
      </trkpt>
      <trkpt lat="62.633810781888" lon="17.965360033325">
        <ele>48.2</ele>
        <time>2018-03-19T18:53:29Z</time>
      </trkpt>
      <trkpt lat="62.633807764404" lon="17.965299516007">
        <ele>48.2</ele>
        <time>2018-03-19T18:53:30Z</time>
      </trkpt>
      <trkpt lat="62.633801226522" lon="17.965251236263">
        <ele>48.2</ele>
        <time>2018-03-19T18:53:31Z</time>
      </trkpt>
      <trkpt lat="62.633795778287" lon="17.965190048393">
        <ele>48</ele>
        <time>2018-03-19T18:53:32Z</time>
      </trkpt>
      <trkpt lat="62.633792341708" lon="17.965139924631">
        <ele>48</ele>
        <time>2018-03-19T18:53:33Z</time>
      </trkpt>
      <trkpt lat="62.633790078595" lon="17.965089800869">
        <ele>47.8</ele>
        <time>2018-03-19T18:53:34Z</time>
      </trkpt>
      <trkpt lat="62.633785720007" lon="17.965032803949">
        <ele>47.6</ele>
        <time>2018-03-19T18:53:35Z</time>
      </trkpt>
      <trkpt lat="62.633784546541" lon="17.964972286631">
        <ele>47.2</ele>
        <time>2018-03-19T18:53:36Z</time>
      </trkpt>
      <trkpt lat="62.633785384731" lon="17.964919061566">
        <ele>47</ele>
        <time>2018-03-19T18:53:37Z</time>
      </trkpt>
      <trkpt lat="62.6337980414" lon="17.964879247541">
        <ele>46.6</ele>
        <time>2018-03-19T18:53:38Z</time>
      </trkpt>
      <trkpt lat="62.633821259263" lon="17.964843792104">
        <ele>46.2</ele>
        <time>2018-03-19T18:53:39Z</time>
      </trkpt>
      <trkpt lat="62.633840705271" lon="17.964835913118">
        <ele>46</ele>
        <time>2018-03-19T18:53:40Z</time>
      </trkpt>
      <trkpt lat="62.633861576202" lon="17.964776485447">
        <ele>45.6</ele>
        <time>2018-03-19T18:53:41Z</time>
      </trkpt>
      <trkpt lat="62.633882111857" lon="17.964723763296">
        <ele>45.6</ele>
        <time>2018-03-19T18:53:42Z</time>
      </trkpt>
      <trkpt lat="62.633902312236" lon="17.964687218212">
        <ele>45.2</ele>
        <time>2018-03-19T18:53:43Z</time>
      </trkpt>
      <trkpt lat="62.633930643058" lon="17.964669700041">
        <ele>45</ele>
        <time>2018-03-19T18:53:44Z</time>
      </trkpt>
      <trkpt lat="62.633962494278" lon="17.964675064457">
        <ele>44.8</ele>
        <time>2018-03-19T18:53:45Z</time>
      </trkpt>
      <trkpt lat="62.633987807616" lon="17.964684452185">
        <ele>44.8</ele>
        <time>2018-03-19T18:53:46Z</time>
      </trkpt>
      <trkpt lat="62.634015300248" lon="17.964688643135">
        <ele>44.6</ele>
        <time>2018-03-19T18:53:47Z</time>
      </trkpt>
      <trkpt lat="62.634047235287" lon="17.964692750266">
        <ele>44.6</ele>
        <time>2018-03-19T18:53:48Z</time>
      </trkpt>
      <trkpt lat="62.634077661584" lon="17.96469325318">
        <ele>44.6</ele>
        <time>2018-03-19T18:53:49Z</time>
      </trkpt>
      <trkpt lat="62.634108758433" lon="17.964686799117">
        <ele>44.8</ele>
        <time>2018-03-19T18:53:50Z</time>
      </trkpt>
      <trkpt lat="62.634136837798" lon="17.964683111081">
        <ele>44.6</ele>
        <time>2018-03-19T18:53:51Z</time>
      </trkpt>
      <trkpt lat="62.634162737869" lon="17.964680177416">
        <ele>44.4</ele>
        <time>2018-03-19T18:53:52Z</time>
      </trkpt>
      <trkpt lat="62.634193583261" lon="17.964692331171">
        <ele>44.4</ele>
        <time>2018-03-19T18:53:53Z</time>
      </trkpt>
      <trkpt lat="62.634220908255" lon="17.964693420818">
        <ele>44.2</ele>
        <time>2018-03-19T18:53:54Z</time>
      </trkpt>
      <trkpt lat="62.634248819982" lon="17.96469073861">
        <ele>44</ele>
        <time>2018-03-19T18:53:55Z</time>
      </trkpt>
      <trkpt lat="62.634275390605" lon="17.964689481325">
        <ele>44.2</ele>
        <time>2018-03-19T18:53:56Z</time>
      </trkpt>
      <trkpt lat="62.634299865753" lon="17.964688894592">
        <ele>44.2</ele>
        <time>2018-03-19T18:53:57Z</time>
      </trkpt>
      <trkpt lat="62.634325346729" lon="17.964686799117">
        <ele>44.2</ele>
        <time>2018-03-19T18:53:58Z</time>
      </trkpt>
      <trkpt lat="62.634355353931" lon="17.964689397506">
        <ele>44.4</ele>
        <time>2018-03-19T18:53:59Z</time>
      </trkpt>
      <trkpt lat="62.634380080536" lon="17.964690487153">
        <ele>44.2</ele>
        <time>2018-03-19T18:54:00Z</time>
      </trkpt>
      <trkpt lat="62.634410674471" lon="17.964695516293">
        <ele>44</ele>
        <time>2018-03-19T18:54:01Z</time>
      </trkpt>
      <trkpt lat="62.634439675845" lon="17.964701802718">
        <ele>44</ele>
        <time>2018-03-19T18:54:02Z</time>
      </trkpt>
      <trkpt lat="62.634468090486" lon="17.964701048347">
        <ele>43.8</ele>
        <time>2018-03-19T18:54:03Z</time>
      </trkpt>
      <trkpt lat="62.634497594774" lon="17.964700461614">
        <ele>43.6</ele>
        <time>2018-03-19T18:54:04Z</time>
      </trkpt>
      <trkpt lat="62.634523159569" lon="17.964704065831">
        <ele>43.4</ele>
        <time>2018-03-19T18:54:05Z</time>
      </trkpt>
      <trkpt lat="62.634550903658" lon="17.964702221813">
        <ele>43.4</ele>
        <time>2018-03-19T18:54:06Z</time>
      </trkpt>
      <trkpt lat="62.634579737394" lon="17.964701467442">
        <ele>43.2</ele>
        <time>2018-03-19T18:54:07Z</time>
      </trkpt>
      <trkpt lat="62.634607649121" lon="17.964705574573">
        <ele>42.8</ele>
        <time>2018-03-19T18:54:08Z</time>
      </trkpt>
      <trkpt lat="62.6346362314" lon="17.964707083315">
        <ele>42.8</ele>
        <time>2018-03-19T18:54:09Z</time>
      </trkpt>
      <trkpt lat="62.634664143127" lon="17.964708675876">
        <ele>42.8</ele>
        <time>2018-03-19T18:54:10Z</time>
      </trkpt>
      <trkpt lat="62.634693144501" lon="17.964697276492">
        <ele>42.8</ele>
        <time>2018-03-19T18:54:11Z</time>
      </trkpt>
      <trkpt lat="62.634722313513" lon="17.964689313687">
        <ele>42.8</ele>
        <time>2018-03-19T18:54:12Z</time>
      </trkpt>
      <trkpt lat="62.634745279919" lon="17.964693169361">
        <ele>42.6</ele>
        <time>2018-03-19T18:54:13Z</time>
      </trkpt>
      <trkpt lat="62.634776460587" lon="17.964690068058">
        <ele>42.6</ele>
        <time>2018-03-19T18:54:14Z</time>
      </trkpt>
      <trkpt lat="62.634805126685" lon="17.964681183244">
        <ele>42.8</ele>
        <time>2018-03-19T18:54:15Z</time>
      </trkpt>
      <trkpt lat="62.634831781127" lon="17.964672885163">
        <ele>43</ele>
        <time>2018-03-19T18:54:16Z</time>
      </trkpt>
      <trkpt lat="62.634854663714" lon="17.96466559291">
        <ele>43</ele>
        <time>2018-03-19T18:54:17Z</time>
      </trkpt>
      <trkpt lat="62.634884419459" lon="17.964668023661">
        <ele>43.2</ele>
        <time>2018-03-19T18:54:18Z</time>
      </trkpt>
      <trkpt lat="62.634908894607" lon="17.964665928186">
        <ele>43.2</ele>
        <time>2018-03-19T18:54:19Z</time>
      </trkpt>
      <trkpt lat="62.634931441918" lon="17.964664419444">
        <ele>43</ele>
        <time>2018-03-19T18:54:20Z</time>
      </trkpt>
      <trkpt lat="62.634961197663" lon="17.964662407788">
        <ele>42.6</ele>
        <time>2018-03-19T18:54:21Z</time>
      </trkpt>
      <trkpt lat="62.634987013915" lon="17.964662826883">
        <ele>42.6</ele>
        <time>2018-03-19T18:54:22Z</time>
      </trkpt>
      <trkpt lat="62.63501257871" lon="17.964654780259">
        <ele>42.4</ele>
        <time>2018-03-19T18:54:23Z</time>
      </trkpt>
      <trkpt lat="62.6350385626" lon="17.964650337852">
        <ele>42.4</ele>
        <time>2018-03-19T18:54:24Z</time>
      </trkpt>
      <trkpt lat="62.635064881766" lon="17.964642207409">
        <ele>42.4</ele>
        <time>2018-03-19T18:54:25Z</time>
      </trkpt>
      <trkpt lat="62.635090949475" lon="17.964635250432">
        <ele>42.4</ele>
        <time>2018-03-19T18:54:26Z</time>
      </trkpt>
      <trkpt lat="62.63511819065" lon="17.964629047826">
        <ele>42.4</ele>
        <time>2018-03-19T18:54:27Z</time>
      </trkpt>
      <trkpt lat="62.635139732133" lon="17.964616642614">
        <ele>42.4</ele>
        <time>2018-03-19T18:54:28Z</time>
      </trkpt>
      <trkpt lat="62.635166218937" lon="17.964603734488">
        <ele>42.4</ele>
        <time>2018-03-19T18:54:29Z</time>
      </trkpt>
      <trkpt lat="62.635189772076" lon="17.964598872986">
        <ele>42.4</ele>
        <time>2018-03-19T18:54:30Z</time>
      </trkpt>
      <trkpt lat="62.635215336871" lon="17.964593089475">
        <ele>42.4</ele>
        <time>2018-03-19T18:54:31Z</time>
      </trkpt>
      <trkpt lat="62.635242578046" lon="17.964587138326">
        <ele>42.4</ele>
        <time>2018-03-19T18:54:32Z</time>
      </trkpt>
      <trkpt lat="62.635268981031" lon="17.964573894924">
        <ele>42.4</ele>
        <time>2018-03-19T18:54:33Z</time>
      </trkpt>
      <trkpt lat="62.635293120903" lon="17.964568195232">
        <ele>42.4</ele>
        <time>2018-03-19T18:54:34Z</time>
      </trkpt>
      <trkpt lat="62.635318769517" lon="17.964561154436">
        <ele>42.4</ele>
        <time>2018-03-19T18:54:35Z</time>
      </trkpt>
      <trkpt lat="62.635342490294" lon="17.964555035649">
        <ele>42.4</ele>
        <time>2018-03-19T18:54:36Z</time>
      </trkpt>
      <trkpt lat="62.635368725641" lon="17.964534499994">
        <ele>42.4</ele>
        <time>2018-03-19T18:54:37Z</time>
      </trkpt>
      <trkpt lat="62.635398732843" lon="17.964520334583">
        <ele>42.4</ele>
        <time>2018-03-19T18:54:38Z</time>
      </trkpt>
      <trkpt lat="62.635424716733" lon="17.964505163344">
        <ele>42.2</ele>
        <time>2018-03-19T18:54:39Z</time>
      </trkpt>
      <trkpt lat="62.635450449166" lon="17.964492339037">
        <ele>42</ele>
        <time>2018-03-19T18:54:40Z</time>
      </trkpt>
      <trkpt lat="62.635475511047" lon="17.964478844178">
        <ele>41.8</ele>
        <time>2018-03-19T18:54:41Z</time>
      </trkpt>
      <trkpt lat="62.63549789072" lon="17.964463086206">
        <ele>41.6</ele>
        <time>2018-03-19T18:54:42Z</time>
      </trkpt>
      <trkpt lat="62.635520773307" lon="17.964444394569">
        <ele>41.6</ele>
        <time>2018-03-19T18:54:43Z</time>
      </trkpt>
      <trkpt lat="62.635549271767" lon="17.964433498099">
        <ele>41.8</ele>
        <time>2018-03-19T18:54:44Z</time>
      </trkpt>
      <trkpt lat="62.635573746915" lon="17.964423523638">
        <ele>41.8</ele>
        <time>2018-03-19T18:54:45Z</time>
      </trkpt>
      <trkpt lat="62.635598724977" lon="17.964412710987">
        <ele>41.8</ele>
        <time>2018-03-19T18:54:46Z</time>
      </trkpt>
      <trkpt lat="62.635621020831" lon="17.964402736526">
        <ele>41.8</ele>
        <time>2018-03-19T18:54:47Z</time>
      </trkpt>
      <trkpt lat="62.635642729952" lon="17.964386643278">
        <ele>41.4</ele>
        <time>2018-03-19T18:54:48Z</time>
      </trkpt>
      <trkpt lat="62.635666115453" lon="17.964371304401">
        <ele>41.2</ele>
        <time>2018-03-19T18:54:49Z</time>
      </trkpt>
      <trkpt lat="62.635688914221" lon="17.9643563008">
        <ele>41.2</ele>
        <time>2018-03-19T18:54:50Z</time>
      </trkpt>
      <trkpt lat="62.635712886455" lon="17.964338531172">
        <ele>41.2</ele>
        <time>2018-03-19T18:54:51Z</time>
      </trkpt>
      <trkpt lat="62.635736858689" lon="17.964322940838">
        <ele>41.2</ele>
        <time>2018-03-19T18:54:52Z</time>
      </trkpt>
      <trkpt lat="62.635761250018" lon="17.96430684759">
        <ele>41</ele>
        <time>2018-03-19T18:54:53Z</time>
      </trkpt>
      <trkpt lat="62.635786479537" lon="17.964290502885">
        <ele>41</ele>
        <time>2018-03-19T18:54:54Z</time>
      </trkpt>
      <trkpt lat="62.635811038504" lon="17.964272397981">
        <ele>41</ele>
        <time>2018-03-19T18:54:55Z</time>
      </trkpt>
      <trkpt lat="62.635834340186" lon="17.964257562018">
        <ele>40.8</ele>
        <time>2018-03-19T18:54:56Z</time>
      </trkpt>
      <trkpt lat="62.63585663604" lon="17.964235936716">
        <ele>40.8</ele>
        <time>2018-03-19T18:54:57Z</time>
      </trkpt>
      <trkpt lat="62.635880692093" lon="17.964215652518">
        <ele>40.8</ele>
        <time>2018-03-19T18:54:58Z</time>
      </trkpt>
      <trkpt lat="62.635902485033" lon="17.964200900374">
        <ele>40.6</ele>
        <time>2018-03-19T18:54:59Z</time>
      </trkpt>
      <trkpt lat="62.635928804199" lon="17.96417944271">
        <ele>40.8</ele>
        <time>2018-03-19T18:55:00Z</time>
      </trkpt>
      <trkpt lat="62.63595554246" lon="17.964163098005">
        <ele>40.8</ele>
        <time>2018-03-19T18:55:01Z</time>
      </trkpt>
      <trkpt lat="62.635976916305" lon="17.964146501843">
        <ele>40.8</ele>
        <time>2018-03-19T18:55:02Z</time>
      </trkpt>
      <trkpt lat="62.63600331929" lon="17.964123116342">
        <ele>41</ele>
        <time>2018-03-19T18:55:03Z</time>
      </trkpt>
      <trkpt lat="62.636027123886" lon="17.96410652018">
        <ele>41</ele>
        <time>2018-03-19T18:55:04Z</time>
      </trkpt>
      <trkpt lat="62.636042462763" lon="17.964091265122">
        <ele>40.8</ele>
        <time>2018-03-19T18:55:05Z</time>
      </trkpt>
      <trkpt lat="62.636066937911" lon="17.964062012291">
        <ele>40.6</ele>
        <time>2018-03-19T18:55:06Z</time>
      </trkpt>
      <trkpt lat="62.636088479394" lon="17.964041392817">
        <ele>40.4</ele>
        <time>2018-03-19T18:55:07Z</time>
      </trkpt>
      <trkpt lat="62.636109098868" lon="17.964012475262">
        <ele>39.8</ele>
        <time>2018-03-19T18:55:08Z</time>
      </trkpt>
      <trkpt lat="62.636130807989" lon="17.963991101417">
        <ele>40</ele>
        <time>2018-03-19T18:55:09Z</time>
      </trkpt>
      <trkpt lat="62.636151595101" lon="17.963973080332">
        <ele>39.8</ele>
        <time>2018-03-19T18:55:10Z</time>
      </trkpt>
      <trkpt lat="62.636169029453" lon="17.963950365383">
        <ele>39.4</ele>
        <time>2018-03-19T18:55:11Z</time>
      </trkpt>
      <trkpt lat="62.636197360275" lon="17.963915580498">
        <ele>39.2</ele>
        <time>2018-03-19T18:55:12Z</time>
      </trkpt>
      <trkpt lat="62.636220075224" lon="17.963893368463">
        <ele>39</ele>
        <time>2018-03-19T18:55:13Z</time>
      </trkpt>
      <trkpt lat="62.636243796001" lon="17.963869815324">
        <ele>38.8</ele>
        <time>2018-03-19T18:55:14Z</time>
      </trkpt>
      <trkpt lat="62.636266091855" lon="17.963844501986">
        <ele>39</ele>
        <time>2018-03-19T18:55:15Z</time>
      </trkpt>
      <trkpt lat="62.636287046605" lon="17.963820948847">
        <ele>39.2</ele>
        <time>2018-03-19T18:55:16Z</time>
      </trkpt>
      <trkpt lat="62.636307246984" lon="17.963799658821">
        <ele>39</ele>
        <time>2018-03-19T18:55:17Z</time>
      </trkpt>
      <trkpt lat="62.636335661625" lon="17.963760012434">
        <ele>39</ele>
        <time>2018-03-19T18:55:18Z</time>
      </trkpt>
      <trkpt lat="62.636361477877" lon="17.963728161214">
        <ele>39</ele>
        <time>2018-03-19T18:55:19Z</time>
      </trkpt>
      <trkpt lat="62.636387629405" lon="17.963699327478">
        <ele>38.8</ele>
        <time>2018-03-19T18:55:20Z</time>
      </trkpt>
      <trkpt lat="62.63640984144" lon="17.963700249487">
        <ele>38.6</ele>
        <time>2018-03-19T18:55:21Z</time>
      </trkpt>
      <trkpt lat="62.63643331076" lon="17.963701590591">
        <ele>38.4</ele>
        <time>2018-03-19T18:55:22Z</time>
      </trkpt>
      <trkpt lat="62.63645929465" lon="17.963705446265">
        <ele>38.4</ele>
        <time>2018-03-19T18:55:23Z</time>
      </trkpt>
      <trkpt lat="62.63648527854" lon="17.963709888672">
        <ele>38.4</ele>
        <time>2018-03-19T18:55:24Z</time>
      </trkpt>
      <trkpt lat="62.636516459208" lon="17.96370670355">
        <ele>38.6</ele>
        <time>2018-03-19T18:55:25Z</time>
      </trkpt>
      <trkpt lat="62.636540934356" lon="17.963730759603">
        <ele>38.6</ele>
        <time>2018-03-19T18:55:26Z</time>
      </trkpt>
      <trkpt lat="62.636563984581" lon="17.963747020489">
        <ele>38.8</ele>
        <time>2018-03-19T18:55:27Z</time>
      </trkpt>
      <trkpt lat="62.636592315403" lon="17.96376789142">
        <ele>39.2</ele>
        <time>2018-03-19T18:55:28Z</time>
      </trkpt>
      <trkpt lat="62.636617209646" lon="17.963789432903">
        <ele>39.2</ele>
        <time>2018-03-19T18:55:29Z</time>
      </trkpt>
      <trkpt lat="62.636637410025" lon="17.96380644816">
        <ele>38.8</ele>
        <time>2018-03-19T18:55:30Z</time>
      </trkpt>
      <trkpt lat="62.636657861861" lon="17.963833940792">
        <ele>39</ele>
        <time>2018-03-19T18:55:31Z</time>
      </trkpt>
      <trkpt lat="62.636676721136" lon="17.963871575523">
        <ele>38.8</ele>
        <time>2018-03-19T18:55:32Z</time>
      </trkpt>
      <trkpt lat="62.636694406945" lon="17.963892111178">
        <ele>38.8</ele>
        <time>2018-03-19T18:55:33Z</time>
      </trkpt>
      <trkpt lat="62.636707985623" lon="17.963931506108">
        <ele>38.8</ele>
        <time>2018-03-19T18:55:34Z</time>
      </trkpt>
      <trkpt lat="62.636728856554" lon="17.963980121128">
        <ele>39</ele>
        <time>2018-03-19T18:55:35Z</time>
      </trkpt>
      <trkpt lat="62.636740842671" lon="17.964016666212">
        <ele>39.2</ele>
        <time>2018-03-19T18:55:36Z</time>
      </trkpt>
      <trkpt lat="62.636755427177" lon="17.964062263748">
        <ele>39.4</ele>
        <time>2018-03-19T18:55:37Z</time>
      </trkpt>
      <trkpt lat="62.636768251484" lon="17.964101574859">
        <ele>39.6</ele>
        <time>2018-03-19T18:55:38Z</time>
      </trkpt>
      <trkpt lat="62.636778225945" lon="17.964135940649">
        <ele>39.8</ele>
        <time>2018-03-19T18:55:39Z</time>
      </trkpt>
      <trkpt lat="62.636795827935" lon="17.964170138801">
        <ele>39.8</ele>
        <time>2018-03-19T18:55:40Z</time>
      </trkpt>
      <trkpt lat="62.636804964206" lon="17.964212551215">
        <ele>39.6</ele>
        <time>2018-03-19T18:55:41Z</time>
      </trkpt>
      <trkpt lat="62.636816615047" lon="17.964248593385">
        <ele>39.6</ele>
        <time>2018-03-19T18:55:42Z</time>
      </trkpt>
      <trkpt lat="62.636830109906" lon="17.964278013854">
        <ele>39.4</ele>
        <time>2018-03-19T18:55:43Z</time>
      </trkpt>
      <trkpt lat="62.636851316113" lon="17.964318079336">
        <ele>39.2</ele>
        <time>2018-03-19T18:55:44Z</time>
      </trkpt>
      <trkpt lat="62.636872606139" lon="17.964339034086">
        <ele>39.2</ele>
        <time>2018-03-19T18:55:45Z</time>
      </trkpt>
      <trkpt lat="62.636895740183" lon="17.964363341596">
        <ele>39</ele>
        <time>2018-03-19T18:55:46Z</time>
      </trkpt>
      <trkpt lat="62.636918287494" lon="17.964384631622">
        <ele>39</ele>
        <time>2018-03-19T18:55:47Z</time>
      </trkpt>
      <trkpt lat="62.63694041571" lon="17.964401814517">
        <ele>38.8</ele>
        <time>2018-03-19T18:55:48Z</time>
      </trkpt>
      <trkpt lat="62.636964304125" lon="17.964420087059">
        <ele>38.6</ele>
        <time>2018-03-19T18:55:49Z</time>
      </trkpt>
      <trkpt lat="62.636990958567" lon="17.964446322406">
        <ele>38.8</ele>
        <time>2018-03-19T18:55:50Z</time>
      </trkpt>
      <trkpt lat="62.637008728195" lon="17.964457302695">
        <ele>38.6</ele>
        <time>2018-03-19T18:55:51Z</time>
      </trkpt>
      <trkpt lat="62.63703261661" lon="17.96444933989">
        <ele>38.4</ele>
        <time>2018-03-19T18:55:52Z</time>
      </trkpt>
      <trkpt lat="62.637052314075" lon="17.964427798407">
        <ele>38.4</ele>
        <time>2018-03-19T18:55:53Z</time>
      </trkpt>
      <trkpt lat="62.637071005712" lon="17.964395444273">
        <ele>38.4</ele>
        <time>2018-03-19T18:55:54Z</time>
      </trkpt>
      <trkpt lat="62.637091541367" lon="17.964373986609">
        <ele>38.4</ele>
        <time>2018-03-19T18:55:55Z</time>
      </trkpt>
      <trkpt lat="62.637112999031" lon="17.964347583624">
        <ele>38.4</ele>
        <time>2018-03-19T18:55:56Z</time>
      </trkpt>
      <trkpt lat="62.63713319941" lon="17.964324198123">
        <ele>38.4</ele>
        <time>2018-03-19T18:55:57Z</time>
      </trkpt>
      <trkpt lat="62.637151974866" lon="17.964291927808">
        <ele>38.4</ele>
        <time>2018-03-19T18:55:58Z</time>
      </trkpt>
      <trkpt lat="62.63717343253" lon="17.964261417692">
        <ele>38.6</ele>
        <time>2018-03-19T18:55:59Z</time>
      </trkpt>
      <trkpt lat="62.637192375624" lon="17.964233422146">
        <ele>38.6</ele>
        <time>2018-03-19T18:56:00Z</time>
      </trkpt>
      <trkpt lat="62.637210229071" lon="17.964196793243">
        <ele>38.8</ele>
        <time>2018-03-19T18:56:01Z</time>
      </trkpt>
      <trkpt lat="62.637231016183" lon="17.964168127145">
        <ele>38.8</ele>
        <time>2018-03-19T18:56:02Z</time>
      </trkpt>
      <trkpt lat="62.637247696164" lon="17.964143232902">
        <ele>38.6</ele>
        <time>2018-03-19T18:56:03Z</time>
      </trkpt>
      <trkpt lat="62.637272003674" lon="17.964116159365">
        <ele>38.4</ele>
        <time>2018-03-19T18:56:04Z</time>
      </trkpt>
      <trkpt lat="62.637290443854" lon="17.964090426932">
        <ele>38.2</ele>
        <time>2018-03-19T18:56:05Z</time>
      </trkpt>
      <trkpt lat="62.637308464939" lon="17.964063856309">
        <ele>37.8</ele>
        <time>2018-03-19T18:56:06Z</time>
      </trkpt>
      <trkpt lat="62.637330090241" lon="17.964027059768">
        <ele>37.6</ele>
        <time>2018-03-19T18:56:07Z</time>
      </trkpt>
      <trkpt lat="62.637349620068" lon="17.963995543824">
        <ele>37.4</ele>
        <time>2018-03-19T18:56:08Z</time>
      </trkpt>
      <trkpt lat="62.637367641153" lon="17.963973750884">
        <ele>37</ele>
        <time>2018-03-19T18:56:09Z</time>
      </trkpt>
      <trkpt lat="62.637390691378" lon="17.96395061684">
        <ele>37</ele>
        <time>2018-03-19T18:56:10Z</time>
      </trkpt>
      <trkpt lat="62.637410305024" lon="17.963924213855">
        <ele>37</ele>
        <time>2018-03-19T18:56:11Z</time>
      </trkpt>
      <trkpt lat="62.637431427412" lon="17.963900828354">
        <ele>36.8</ele>
        <time>2018-03-19T18:56:12Z</time>
      </trkpt>
    </trkseg>
  </trk>
</gpx>